[[[{"header":{"parameterUnit":"kt","parameterCategory":2,"dx":1,"dy":1,"la1":29.285339999999998,"la2":30.599998999999997,"lo1":-89.70041500000002,"lo2":-87.6738589999976,"nx":112,"ny":82,"refTime":"2022-09-30T06:00:00:Z","depth":0,"parameterNumber":1,"parameterNumberName":"U-component_of_WINDS"},"data":[2.9281,2.9428,0.0,2.8473,2.8638,2.8711,2.7536,2.7352,2.8766,3.3355,3.3705,3.5163,4.1982,4.2618,4.2798,4.4396,4.4098,4.3823,0.0,4.3441,4.2942,4.296,4.2326,4.2547,4.3726,4.4032,4.4544,4.5198,4.6023,4.6307,0.0,0.0,4.5568,4.4942,4.4316,4.3406,4.2183,4.3008,4.3558,4.384,4.4721,4.6385,4.8644,4.998,5.188,5.412,5.5879,5.696,5.7576,5.8387,5.8666,5.8568,5.9023,5.927,5.927,5.9189,5.939,5.9833,6.1322,6.2408,6.3213,6.3535,6.3615,6.3615,6.3615,6.3615,6.3615,6.3615,6.3615,6.3615,6.3615,6.3615,6.3615,6.3615,6.3615,6.3615,6.3615,6.3615,6.3615,6.3615,6.3615,6.3393,6.2908,6.2685,6.2462,6.2014,6.1341,6.1198,6.1855,6.1965,6.2491,6.363,6.4238,6.42,6.3365,6.2833,6.2036,6.0897,6.1087,6.0897,6.01,6.0062,6.0062,6.0062,6.0062,6.0062,6.0062,6.0062,6.0062,6.0062,6.0062,5.8392,0.0,0.0,2.8179,2.7242,2.7407,2.7554,2.6617,2.6636,2.7934,3.1894,3.2765,3.4743,4.0212,4.1661,4.2326,4.2994,4.3236,4.326,0.0,4.3121,4.3094,4.2647,4.15,4.1443,4.3804,4.3821,0.0,0.0,4.6307,0.0,0.0,4.5539,4.517,4.4345,4.3491,4.2667,4.187,4.2496,4.2581,4.2183,4.2809,4.3906,4.5249,4.678,4.9094,5.2206,5.3731,5.5199,5.6479,5.7109,5.7175,5.7243,5.7896,5.81,5.8465,5.9424,5.9865,6.0065,6.1549,6.2851,6.3615,6.3615,6.3615,6.3615,6.3615,6.3615,6.3615,6.3615,6.3615,6.3615,6.3615,6.3615,6.3615,6.3615,6.3615,6.3615,6.3615,6.3615,6.3615,6.3615,6.3615,6.3393,6.3171,6.3171,6.2908,6.2462,6.179,6.1425,6.1855,6.2232,6.2833,6.3668,6.4466,6.4731,6.42,6.3403,6.2605,6.1732,6.1694,6.1466,6.0897,6.0365,6.0176,6.0441,6.0176,6.0062,6.0062,5.9077,5.8849,5.8849,5.9569,5.7668,2.7297,2.6636,2.5919,2.5497,2.5405,2.5534,2.5919,2.6011,2.6806,2.968,3.2743,3.5323,3.7267,4.1021,4.3109,4.0795,4.2278,0.0,0.0,4.2562,4.3319,4.2211,3.9639,3.9602,0.0,4.2155,0.0,0.0,0.0,0.0,4.5056,4.4885,4.4316,4.315,4.1899,4.1216,4.1216,4.1842,4.2155,4.2155,4.2752,4.2752,4.2155,4.2126,4.4417,4.785,4.8065,5.0663,5.4766,5.5427,5.5842,5.6461,5.7078,5.7732,5.8381,5.9683,6.0066,6.0225,6.1789,6.2891,6.3615,6.3615,6.3615,6.3615,6.3615,6.3615,6.3615,6.3615,6.3615,6.3615,6.3615,6.3615,6.3615,6.3615,6.3615,6.3615,6.3615,6.3615,6.3615,6.3615,6.3615,6.3615,6.3615,6.3615,6.3171,6.2014,6.179,6.1651,6.1355,6.1998,6.2833,6.363,6.4466,6.4959,6.4959,6.4238,6.3441,6.2643,6.2567,6.2529,6.2529,6.0935,6.0441,6.1239,6.0479,6.0062,6.0062,5.7632,5.6216,5.6447,5.8621,5.8355,2.647,2.6195,2.5919,2.5497,2.5625,2.5809,2.5625,2.5809,2.6637,2.8855,3.114,0.0,0.0,0.0,4.1581,4.271,0.0,4.0239,4.225,4.1242,3.95,3.7391,3.7103,0.0,0.0,0.0,0.0,0.0,0.0,4.6649,4.5653,4.4345,4.3463,4.3122,4.1899,4.1216,4.1216,4.1415,4.15,4.15,4.1671,4.1643,4.1472,4.3227,4.4624,4.5718,4.7203,4.8923,5.0663,5.0876,5.1406,5.2545,5.4502,5.5726,5.662,5.9283,6.0366,6.0483,6.201,6.2709,6.3171,6.3393,6.3615,6.3615,6.3615,6.3615,6.3615,6.3615,6.3615,6.3615,6.3615,6.3615,6.3615,6.3615,6.3615,6.3615,6.3615,6.3615,6.3615,6.3615,6.3615,6.3615,6.3615,6.3615,6.3393,6.3171,6.2685,6.2317,6.169,6.2509,6.3078,6.2833,6.4124,6.4959,6.4959,6.4769,6.4542,6.4314,6.3175,6.2529,6.2529,6.0935,6.0441,6.1239,6.0479,6.0062,6.0062,5.9342,5.9077,5.8849,5.413,5.2492,2.5625,2.5387,2.5184,2.4946,2.5074,2.524,2.5166,2.5478,2.6242,2.7671,0.0,0.0,0.0,0.0,0.0,0.0,4.029,3.8888,4.0372,3.8955,3.7221,3.5783,0.0,0.0,0.0,0.0,0.0,0.0,4.3025,4.428,4.2904,4.3078,4.2866,4.2354,4.1614,4.1216,4.1216,4.1216,4.1216,4.1216,4.1216,4.1216,4.1216,4.2518,4.3812,4.4689,4.6254,4.7715,4.8562,4.9166,4.9721,5.0547,5.1384,5.2104,5.3053,5.7394,5.9188,5.9712,6.2041,6.2908,6.3171,6.3393,6.3615,6.3615,6.3615,6.3615,6.3615,6.3615,6.3615,6.3615,6.3615,6.3615,6.3615,6.3615,6.3615,6.3615,6.3615,6.3615,6.3615,6.3615,6.3615,6.3615,6.3615,6.3615,6.3393,6.3171,6.2908,6.2462,6.179,6.2816,6.3198,6.2963,6.4214,6.4959,6.4959,6.4959,6.4959,6.4959,6.3077,6.1644,6.1312,5.8785,5.7432,5.8134,5.7376,5.6979,5.6979,5.579,5.579,5.6713,5.2555,5.137,2.4872,2.4468,2.4174,2.4174,2.4174,2.4303,2.478,0.0,2.5736,2.6452,0.0,3.4376,3.4306,0.0,0.0,4.0074,3.8817,0.0,3.7285,3.612,3.5101,3.5101,3.5734,0.0,0.0,3.3266,3.4679,3.6326,3.963,4.0477,3.8386,4.1022,4.1924,4.0798,4.0993,4.1216,4.1216,4.1216,4.1216,4.1216,4.1216,4.1273,4.133,4.1273,4.2385,4.4495,4.5015,4.6035,4.7563,4.8614,4.9258,4.9119,4.824,4.821,4.945,5.4793,5.6907,5.7861,6.0852,6.2238,6.2462,6.2685,6.2685,6.2685,6.2685,6.2685,6.2685,6.3171,6.3171,6.3171,6.3393,6.3615,6.3615,6.3615,6.3615,6.3615,6.3615,6.3615,6.3615,6.3615,6.3615,6.3615,6.3615,6.3615,6.3393,6.2908,6.2908,6.2685,6.2014,6.2816,6.3668,6.3395,6.4455,6.5204,6.5204,6.4959,6.4959,6.4959,6.2416,6.0494,5.9638,5.5913,5.3724,5.3591,5.2892,5.2525,5.2525,5.0465,5.0259,5.2121,5.2748,5.2715,2.429,2.4248,2.4174,2.4174,2.4174,2.4376,0.0,0.0,0.0,2.6581,2.9799,3.2667,3.2521,3.467,0.0,3.6812,0.0,0.0,0.0,3.273,0.0,3.041,3.0468,0.0,2.9785,2.9917,3.1208,3.378,3.6205,3.7128,3.6309,3.7872,3.8491,3.8254,4.0073,4.1216,4.1216,4.1216,4.1216,4.1216,4.1216,4.15,4.1984,4.1472,4.201,4.3415,4.301,4.3267,4.4104,4.4368,4.4662,4.5307,4.7737,4.8611,4.9212,5.2257,5.3429,5.3896,5.5523,5.5985,5.6447,5.7366,5.7595,5.7595,5.7595,5.7595,5.8053,5.991,6.0626,6.1077,6.2948,6.3615,6.3615,6.3615,6.3615,6.3615,6.3615,6.3615,6.3615,6.3615,6.3615,6.3615,6.3615,6.3615,6.3615,6.3393,6.3393,6.3171,6.2685,6.3964,6.4838,6.4098,6.5657,6.6426,6.6426,6.5939,6.5694,6.5694,6.2664,6.0244,5.8818,5.6665,5.4789,5.3591,5.2892,5.2525,5.2525,5.2583,5.1681,5.0234,5.039,5.104,2.3835,2.4027,2.4174,2.4174,2.4339,0.0,0.0,2.5883,2.6672,2.6874,2.9877,3.2315,3.2561,3.4077,3.5775,3.6288,3.3941,3.2215,3.2692,3.0526,2.9171,2.9593,2.9281,0.0,2.9593,2.9446,2.9737,3.1051,3.2637,3.3411,3.3426,3.4789,3.6199,3.7553,3.8703,3.985,4.1216,4.1216,4.1216,4.1216,4.1557,4.187,4.2155,4.1842,4.2211,4.3093,4.278,4.2837,4.3179,4.3776,4.4203,4.4487,4.6218,4.6817,4.7058,4.9688,5.0842,5.1282,5.3195,5.413,5.456,5.5488,5.5719,5.5719,5.5985,5.6216,5.6447,5.7595,5.8053,5.8281,5.9456,5.991,5.991,5.991,5.991,5.991,5.991,6.0852,6.1751,6.1751,6.0626,5.991,5.991,5.991,5.991,5.991,5.991,5.9683,5.9456,6.0656,6.1195,6.0958,6.2199,6.2912,6.2912,6.3444,6.3937,6.3937,6.1883,6.053,5.9745,5.6003,5.3518,5.221,5.0296,4.9229,4.9229,5.0248,4.9661,4.7796,4.8152,4.8991,2.3471,2.388,2.4174,2.4174,2.4505,0.0,2.5111,2.6029,2.6985,2.7481,2.9862,3.1945,3.2211,3.3437,3.479,3.5192,3.3189,3.0967,2.9648,2.9226,2.9263,2.9924,2.9428,0.0,2.9942,2.9703,2.9336,2.895,2.9852,3.0288,3.0104,3.2071,3.4133,3.5973,3.7102,3.8478,4.0547,4.0993,4.1216,4.1244,4.187,4.224,4.2354,4.2354,4.2752,4.3463,4.3349,4.3349,4.3548,4.4515,4.4914,4.4914,4.4914,4.4914,4.5156,4.7298,4.8226,4.8912,5.1282,5.2191,5.266,5.3362,5.3629,5.3862,5.4362,5.4595,5.4827,5.4827,5.506,5.5523,5.5985,5.6216,5.6216,5.6216,5.6216,5.6216,5.6216,5.7824,5.9002,5.8509,5.7137,5.6216,5.6216,5.6216,5.6216,5.6216,5.6216,5.6216,5.6216,5.7098,5.7812,5.7812,5.8726,5.9165,5.9165,6.0672,6.1457,6.1421,6.0135,5.9312,5.9139,5.4072,5.0695,5.0026,4.7526,4.6051,4.6051,4.7189,4.7218,4.6251,4.662,4.7438,2.3191,2.388,2.4174,2.4174,2.4505,0.0,2.6176,2.7077,2.7903,2.8675,2.9426,2.9886,2.9587,2.9475,2.9728,2.9766,2.9494,2.9241,2.9079,2.906,2.906,2.9152,2.9079,0.0,2.9152,2.9116,2.8932,2.8546,2.8277,2.7905,2.7176,2.9382,3.0724,3.1184,3.5293,3.7553,3.8029,4.0073,4.1216,4.1244,4.187,4.2467,4.3008,4.3008,4.3634,4.4686,4.4117,4.4203,4.4743,4.4857,4.4914,4.4914,4.4914,4.4914,4.4914,4.5156,4.5398,4.564,4.6365,4.6817,4.6817,4.7568,4.8287,4.8766,4.8766,4.9243,4.9513,4.9513,5.1111,5.3429,5.5523,5.6216,5.6216,5.6216,5.6216,5.6216,5.6216,5.6447,5.5985,5.3663,5.4827,5.6216,5.6216,5.6216,5.6216,5.6216,5.6216,5.6216,5.6216,5.7571,5.8498,5.8498,5.9678,6.0636,6.0636,6.0386,5.9884,5.9347,5.6376,5.4074,5.29,4.9814,4.7957,4.7325,4.6986,4.6706,4.6706,4.7417,4.7701,4.7531,4.7047,4.67,2.2778,2.3432,2.4112,2.456,0.0,0.0,2.6489,2.7426,2.8289,2.862,2.9005,2.9226,2.906,2.9024,2.9024,2.9024,2.9024,2.9189,2.9667,2.952,2.963,3.0365,2.9795,0.0,0.0,2.9299,2.8767,2.8124,2.8142,2.7719,2.6672,2.7529,2.89,3.0264,3.233,3.3906,3.5269,3.7804,3.934,3.9692,4.1723,4.3036,4.3605,4.3605,4.4089,4.4885,4.4259,4.4345,4.4914,4.4914,4.4914,4.4914,4.4914,4.4914,4.4914,4.4914,4.4914,4.4914,4.5156,4.5398,4.5398,4.6124,4.6365,4.6847,4.7598,4.8078,4.8318,4.8797,4.9513,5.067,5.1584,5.1819,5.1819,5.1819,5.1819,5.1819,5.1819,5.2995,5.3195,5.0907,5.1111,5.1819,5.1819,5.1819,5.1819,5.1819,5.1819,5.1819,5.1819,5.2706,5.3494,5.4133,5.5123,5.5662,5.6088,5.714,5.7394,5.6598,5.6376,5.5735,5.4647,5.2092,5.0278,4.9876,4.8126,4.736,4.736,4.8014,4.8299,4.8299,4.7275,4.6478,2.238,0.0,0.0,0.0,0.0,0.0,2.6657,2.7477,2.8223,2.8583,2.8822,2.9024,2.9024,2.9024,2.906,2.9171,2.9189,2.9428,3.0144,2.9979,3.0108,3.1008,3.0328,0.0,0.0,0.0,0.0,0.0,2.816,2.783,2.6838,2.6672,2.7529,2.9362,3.0054,3.1184,3.2765,3.5293,3.7157,3.8436,4.0899,4.2702,4.3975,4.4146,4.4487,4.4885,4.443,4.4487,4.4914,4.4914,4.4914,4.4914,4.4914,4.4914,4.4914,4.4914,4.4914,4.4914,4.4914,4.4914,4.4914,4.5398,4.5882,4.6394,4.7117,4.7598,4.8078,4.8318,4.8558,4.8797,4.8797,4.8797,4.8797,4.8797,4.8797,4.8797,4.8797,5.0195,5.0907,4.9036,4.8797,4.8797,4.8797,4.8797,4.8797,4.8797,4.8797,4.8797,4.8797,4.9414,5.0094,5.0742,5.1453,5.2132,5.2812,5.4134,5.4649,5.3845,5.5098,5.561,5.4585,5.2781,5.1532,5.1078,4.902,4.8014,4.8014,4.8498,4.8697,4.8697,4.7758,4.6905,0.0,0.0,0.0,2.4191,2.4904,2.5862,2.6624,2.7138,2.7796,2.8679,2.9024,2.9024,2.9024,2.9024,2.9152,2.9538,2.9593,2.974,3.0181,3.0236,3.0236,3.0273,3.0254,0.0,0.0,0.0,0.0,0.0,2.8068,2.7646,2.7242,2.6838,2.6599,2.6832,2.9131,3.0264,3.0494,3.2765,3.5537,3.8436,3.9241,4.0998,4.4003,4.4601,4.4914,4.4914,4.4885,4.4914,4.4914,4.4914,4.4914,4.4914,4.4914,4.4914,4.4914,4.4914,4.4914,4.4914,4.4914,4.4914,4.4914,4.4914,4.5882,4.6636,4.6124,4.7358,4.8558,4.8078,4.8318,4.8797,4.8797,4.8797,4.8797,4.8797,4.8797,4.8797,4.8797,4.8797,4.8797,4.8797,4.8797,4.8797,4.8797,4.8797,4.8797,4.8797,4.8797,4.8797,4.8797,4.9414,5.0094,5.0742,5.1453,5.2132,5.2812,5.2873,5.2355,5.1084,5.0793,5.027,4.896,4.896,4.896,4.8931,4.8931,4.8668,4.8668,4.8697,4.8697,4.8697,4.8668,4.7986,2.2521,2.3344,2.4059,2.4801,2.5587,2.6484,2.6484,2.6777,2.7341,2.7717,2.8007,2.8261,2.8261,2.8476,2.8708,2.8834,2.9589,3.0181,3.0585,3.064,3.0732,3.1008,3.0806,3.0475,0.0,0.0,0.0,0.0,0.0,0.0,2.7646,2.7481,2.7407,2.7407,2.7862,2.8049,2.7993,3.0557,3.2578,3.4012,3.6192,3.8919,4.1912,4.2099,4.3183,4.4914,4.4914,4.4914,4.4914,4.4914,4.4914,4.4914,4.4914,4.4914,4.4914,4.4914,4.4914,4.4914,4.4914,4.4914,4.4914,4.4914,4.5156,4.564,4.5882,4.6394,4.6877,4.7598,4.8078,4.8318,4.8558,4.8797,4.8797,4.8797,4.8797,4.8797,4.8797,4.8797,4.8797,4.8797,4.8797,4.8797,4.8797,4.8797,4.8797,4.8797,4.8797,4.8797,4.8797,4.9013,4.9569,5.0712,5.102,5.1638,5.2781,5.2873,5.2355,5.0822,5.0822,5.0038,4.896,4.8697,4.8697,4.8697,4.8697,4.8697,4.8697,4.8697,4.8697,4.8697,4.8697,4.8242,2.201,2.3107,2.3945,2.4811,2.5757,2.626,2.6411,2.6563,2.6699,2.6817,2.7139,2.7699,2.7577,2.7981,2.8645,2.8787,2.9671,3.0603,3.0989,3.1063,3.1155,3.143,3.1081,3.0677,0.0,0.0,0.0,0.0,0.0,2.8326,2.805,2.7903,2.7811,2.7811,2.7444,2.7113,2.6838,2.8556,3.0309,3.1865,3.3614,3.6786,4.0981,4.0981,4.2451,4.4914,4.2939,4.2695,4.3427,4.3427,4.4185,4.4914,4.4914,4.4914,4.4914,4.4914,4.4914,4.4914,4.4914,4.4914,4.4914,4.4914,4.5156,4.5398,4.5398,4.5882,4.6606,4.7358,4.7838,4.8318,4.8558,4.8797,4.8797,4.8797,4.8797,4.8797,4.8797,4.8797,4.8797,4.8797,4.8797,4.8797,4.8797,4.8797,4.8797,4.8797,4.8797,4.8797,4.8797,4.8797,4.9229,5.0341,5.0432,5.1016,5.2153,5.2461,5.1835,5.0561,5.0561,5.0038,4.896,4.8697,4.8697,4.8697,4.8697,4.8697,4.8697,4.8697,4.8697,4.8697,4.8697,4.8355,2.1163,2.2887,2.3888,2.445,2.4956,2.532,2.5917,2.5967,2.6122,2.6259,2.6697,2.6834,2.6242,2.7294,2.8472,2.8841,3.0032,3.0971,3.1393,3.143,3.143,3.143,3.1063,3.064,0.0,0.0,0.0,0.0,2.8675,2.8473,2.8473,2.8105,2.7885,2.7885,2.7499,2.7297,2.7297,2.6893,2.8457,3.1666,3.1687,3.4829,4.0709,4.0709,4.1962,4.4185,3.9232,3.849,4.0735,4.0735,4.2206,4.4428,4.4428,4.4428,4.4428,4.4671,4.4671,4.4671,4.4914,4.4914,4.4914,4.4914,4.5398,4.564,4.5156,4.6124,4.7598,4.6877,4.7598,4.8797,4.8797,4.8797,4.8797,4.8797,4.8797,4.8797,4.8797,4.8797,4.8797,4.8797,4.8797,4.8797,4.8797,4.8797,4.8797,4.8797,4.8797,4.8797,4.8797,4.8797,4.9075,4.9754,4.9661,4.9797,5.0745,5.1411,5.1284,5.0009,5.03,5.03,4.896,4.8697,4.8697,4.8697,4.8697,4.8697,4.8697,4.8697,4.8697,4.8697,4.8697,4.8384,1.8715,2.2149,2.4402,2.4691,2.5007,2.5407,2.5247,2.5008,2.4785,2.494,2.549,2.502,2.2385,2.2892,2.4756,2.7251,2.8977,3.0175,3.0551,3.09,3.0989,3.0989,3.064,3.0236,0.0,0.0,0.0,0.0,2.8932,2.8877,2.8877,2.8785,2.8711,2.8711,2.8344,2.8142,2.8142,2.7719,2.7999,2.9259,2.9563,3.1547,3.4987,3.4987,3.6482,3.8985,3.7499,3.7251,3.7995,3.7995,3.8243,3.8985,3.8985,3.8985,3.9232,4.12,4.1962,4.2206,4.4185,4.4914,4.4914,4.4914,4.4914,4.5156,4.4914,4.5156,4.564,4.6124,4.6636,4.7358,4.7838,4.8318,4.8797,4.8797,4.8797,4.8797,4.8797,4.8797,4.8797,4.8797,4.8797,4.8797,4.8797,4.8797,4.8797,4.8797,4.8797,4.8797,4.8797,4.8318,4.8352,4.9022,4.8497,4.8817,4.998,5.0731,5.1033,5.0532,5.0561,5.03,4.9485,4.896,4.8697,4.8697,4.8697,4.8697,4.8697,4.8697,4.8697,4.8697,4.8697,4.8611,1.4784,1.838,2.1154,2.2616,2.3163,2.3354,2.3178,2.3899,2.3905,2.1379,2.1113,2.0862,1.8833,1.953,2.1005,2.2764,2.5483,2.738,2.7577,2.8812,2.9764,3.0032,2.9689,2.9625,0.0,0.0,0.0,0.0,2.9024,2.9024,2.9024,2.9024,2.9024,2.9024,2.8656,2.8454,2.8454,2.8032,2.794,2.8179,2.8583,3.0352,3.3006,3.3006,3.3151,3.321,3.321,3.4086,3.5259,3.5259,3.6008,3.7003,3.7003,3.7003,3.7003,3.8738,3.9232,3.9478,4.0955,4.1445,4.1445,4.1445,4.1445,4.1445,4.1445,4.2451,4.3671,4.4157,4.5398,4.6847,4.7358,4.7838,4.8318,4.8318,4.8558,4.8797,4.8797,4.8797,4.8797,4.8797,4.8797,4.8797,4.8797,4.8797,4.8797,4.8797,4.8797,4.8797,4.8797,4.8318,4.799,4.8353,4.7678,4.7774,4.8802,4.9636,4.9823,4.9979,5.0038,5.0038,4.9222,4.896,4.8697,4.8697,4.8697,4.8697,4.8697,4.8697,4.8697,4.8697,4.8697,4.8697,1.1088,1.3388,1.619,1.9325,2.0073,2.0291,2.0291,2.1854,2.1882,1.7065,1.5799,1.5556,1.5586,1.6676,1.775,1.8036,2.1148,2.3451,2.3451,2.5562,2.7118,2.7859,2.7551,2.7828,0.0,0.0,0.0,0.0,2.8858,2.8858,2.8858,2.8858,2.8858,2.8858,2.8546,2.8362,2.8362,2.7995,2.7811,2.783,2.8197,2.9755,3.2338,3.2441,3.1046,2.8454,2.8491,2.9947,3.2503,3.2503,3.3758,3.5758,3.5758,3.5758,3.6008,3.6257,3.6506,3.6506,3.6754,3.7003,3.7003,3.7003,3.7003,3.7003,3.7003,3.8985,4.12,4.12,4.34,4.5611,4.5611,4.6365,4.7088,4.7328,4.7328,4.7568,4.7568,4.7808,4.8078,4.8078,4.8318,4.8558,4.8588,4.8558,4.8558,4.8527,4.8527,4.8527,4.8558,4.8078,4.7598,4.7598,4.7137,4.6739,4.7403,4.8294,4.8675,4.8788,4.9456,4.9485,4.896,4.8697,4.8697,4.8697,4.8697,4.8697,4.8697,4.8697,4.8697,4.8697,4.8697,4.8697,1.0951,1.2242,1.3416,1.6419,1.7253,1.7441,1.7441,1.7508,1.7318,1.6306,1.4278,1.2813,1.2962,1.3304,1.4173,1.6961,1.8345,1.9436,1.9699,2.0288,2.0562,2.0837,2.1323,2.2387,0.0,0.0,0.0,0.0,0.0,2.8032,2.8032,2.8032,2.8032,2.8032,2.7958,2.7922,2.7922,2.7848,2.7811,2.7811,2.7885,2.8203,2.8767,2.9464,2.9307,2.8473,2.8785,2.9222,2.9766,2.9766,3.0019,3.0273,3.0273,3.0273,3.0526,3.3006,3.3758,3.4009,3.6257,3.7003,3.7003,3.7003,3.7003,3.7003,3.7003,3.7251,3.7747,3.7747,3.8713,3.9453,3.9453,4.1664,4.3886,4.4372,4.2614,4.0632,4.0632,4.2858,4.4857,4.4857,4.6606,4.8078,4.7899,4.7628,4.7298,4.7148,4.7118,4.7387,4.7957,4.7058,4.6365,4.6877,4.5998,4.5585,4.6214,4.7375,4.8265,4.8646,4.9456,4.9747,4.9485,4.896,4.8697,4.8697,4.8697,4.8697,4.8697,4.8697,4.8697,4.8697,4.8697,4.8697,0.8898,0.9411,0.991,1.1767,1.334,1.4593,1.4593,1.5451,1.5293,1.2509,1.0989,1.0015,1.0163,1.0131,1.0636,1.2358,1.4119,1.5092,1.5351,1.6688,1.7754,1.8126,1.9011,2.0169,2.14,0.0,0.0,0.0,0.0,2.6349,2.6349,2.7324,2.7811,2.7811,2.7811,2.7811,2.7811,2.7811,2.7811,2.7811,2.7811,2.794,2.8142,2.7885,2.7903,2.8124,2.8307,2.8638,2.9024,2.9024,2.9024,2.9024,2.9024,2.9024,2.9024,3.0526,3.1012,3.1012,3.2272,3.2775,3.2775,3.2775,3.2775,3.2775,3.2775,3.3758,3.501,3.501,3.6008,3.7499,3.7499,3.896,4.0438,4.0683,3.9428,3.8417,3.8886,4.0141,4.1393,4.1393,4.237,4.3101,4.3129,4.4109,4.5198,4.6665,4.6938,4.6879,4.7268,4.6606,4.5882,4.6365,4.5398,4.517,4.5824,4.6386,4.7238,4.8216,4.8561,4.8877,4.9222,4.6002,4.4091,4.4091,4.571,4.6531,4.6531,4.8142,4.8697,4.8697,4.8697,4.8697,0.7204,0.7447,0.7738,0.7993,0.9702,1.139,1.1426,1.3152,1.3332,0.9001,0.8215,0.8231,0.8353,0.8252,0.8199,0.8316,1.0021,1.1432,1.1395,1.3022,1.4886,1.5564,1.679,1.8027,1.925,0.0,0.0,0.0,0.0,0.0,2.4878,2.6589,2.7554,2.7554,2.7554,2.7554,2.7554,2.7554,2.7554,0.0,2.7554,2.783,2.8271,2.7223,2.7187,2.7958,2.7958,2.8271,2.8767,2.8858,2.8895,2.8895,2.8895,2.8895,2.8895,2.8895,2.8895,2.8913,2.9005,2.9024,2.9024,2.9024,2.9024,2.9024,2.9024,3.0526,3.2252,3.2252,3.3758,3.5259,3.5259,3.6008,3.6731,3.6234,3.5985,3.6234,3.6684,3.7428,3.7899,3.7899,3.8393,3.8664,3.8664,4.0301,4.2298,4.4409,4.4743,4.4756,4.4813,4.4416,4.3989,4.4073,4.3643,4.3375,4.3868,4.4032,4.4497,4.5711,4.5756,4.6112,4.6867,4.2292,3.9936,4.0053,4.2198,4.3825,4.4357,4.6796,4.817,4.8697,4.8697,4.8697,0.7384,0.7574,0.776,0.8093,0.8368,0.8329,0.8439,0.8801,0.8874,0.8358,0.8273,0.8231,0.8353,0.8189,0.8072,0.8194,0.8362,0.8248,0.8133,0.8356,0.9031,1.0109,1.1285,1.3198,1.6296,0.0,0.0,0.0,0.0,0.0,0.0,2.5773,2.6728,2.6728,2.6728,2.6728,2.6728,2.6728,2.6728,2.6728,2.6728,2.7132,2.7866,2.7389,2.7628,2.8381,2.8381,2.8215,2.7958,2.8344,2.8491,2.8491,2.8491,2.8491,2.8491,2.8491,2.8491,2.8546,2.8913,2.9024,2.9024,2.9024,2.9024,2.9024,2.9024,2.9024,2.9278,2.9278,2.9531,2.9785,2.9785,3.1516,3.2755,3.0273,2.9766,2.9766,2.9766,3.2252,3.4466,3.4466,3.6459,3.7971,3.7971,3.7653,3.7566,3.7843,3.7806,3.8119,3.8617,3.807,3.8074,3.8614,3.8097,3.7771,3.7819,3.825,3.8585,3.8681,3.9567,4.038,4.0429,3.9901,3.9584,4.003,4.0322,4.1663,4.4357,4.4623,4.6267,4.8697,4.8697,4.8697,0.7018,0.7267,0.7532,0.7813,0.7897,0.7961,0.8152,0.8178,0.8178,0.8252,0.8173,0.8125,0.8247,0.813,0.8035,0.8083,0.7993,0.7897,0.785,0.8266,0.8921,0.9583,1.1485,1.3152,1.4341,0.0,0.0,0.0,0.0,0.0,0.0,2.4967,2.6617,2.6617,2.6617,2.6617,2.6617,2.6617,2.6617,2.6617,2.6617,2.6911,2.7462,2.704,2.7168,2.7719,2.7719,2.7628,2.7499,2.7903,2.8215,2.8418,2.816,2.8068,2.8105,2.8362,2.8454,2.8509,2.8895,2.9024,2.9024,2.9024,2.9024,2.9024,2.9024,2.9024,2.9024,2.9024,2.9024,2.9024,2.9024,2.9766,3.0273,2.9278,2.9024,2.9024,2.9024,3.0019,3.1012,3.1012,3.1768,3.2503,3.2503,3.3784,3.4694,3.4498,3.5917,3.7133,3.737,3.7104,3.7053,3.7388,3.7015,3.6885,3.7003,3.7191,3.7449,3.7754,3.8409,3.7096,3.3719,3.399,3.4358,3.4522,3.6413,3.7918,3.9268,4.0859,4.2466,4.3558,4.3558,4.338,0.6759,0.7029,0.7331,0.7569,0.7712,0.7855,0.8088,0.8051,0.8019,0.821,0.8125,0.8056,0.8173,0.8046,0.7929,0.7961,0.7871,0.7791,0.7791,0.868,0.9576,1.0054,1.1961,1.3628,1.3866,0.0,0.0,0.0,0.0,0.0,0.0,2.3078,2.4967,2.4967,2.5434,2.5667,2.5667,2.6366,2.6617,2.6617,2.6617,2.653,2.6092,2.5915,2.6476,2.7242,2.7242,2.7242,2.7242,2.7389,2.7701,2.805,2.7756,2.7646,2.7701,2.8105,2.8252,2.8326,2.884,2.9024,2.9024,2.9024,2.9024,2.9024,2.9024,2.9024,2.9024,2.9024,2.9024,2.9024,2.9024,2.9024,2.9024,2.9024,2.9024,2.9024,2.9024,2.9024,2.9024,2.9024,2.8932,2.8895,2.9005,3.0506,3.1809,3.1716,3.3383,3.4498,3.4566,3.4477,3.4566,3.4539,3.4561,3.4627,3.451,3.451,3.4663,3.5245,3.5399,3.3696,2.9612,3.0163,3.053,3.0659,3.3075,3.4583,3.5371,3.7474,3.8809,3.9607,3.9607,3.9684,0.6737,0.697,0.7209,0.7447,0.7595,0.7738,0.7972,0.7929,0.7945,0.83,0.8183,0.8056,0.8173,0.7913,0.7717,0.7829,0.7754,0.768,0.768,0.8626,1.0054,1.1246,1.2676,1.3866,1.5302,0.0,0.0,0.0,0.0,0.0,0.0,2.0023,2.0965,2.0965,2.2844,2.3781,2.3781,2.5667,2.6617,2.6617,2.6617,2.5667,2.3797,2.4142,2.528,2.7242,2.7242,2.7242,2.7205,2.6801,2.6874,2.7242,2.7242,2.7242,2.7297,2.7683,2.783,2.794,2.8748,2.9024,2.9024,2.9024,2.9024,2.9024,2.9024,2.9024,2.9024,2.9024,2.9024,2.9024,2.9024,2.9024,2.9024,2.9024,2.9024,2.9024,2.9024,2.9024,2.9024,2.9024,2.8711,2.8564,2.8969,2.8583,2.8666,2.895,2.9024,2.9024,2.9024,2.9024,2.9024,2.9024,2.9024,2.9024,2.9024,2.9024,2.9024,2.9024,2.9391,2.9612,2.9612,2.9612,2.9814,3.0236,3.0254,3.1821,3.467,3.4691,3.6237,3.8834,3.8834,3.8834,0.66,0.6854,0.7103,0.7426,0.7468,0.75,0.7733,0.7876,0.7993,0.8109,0.8136,0.8104,0.7977,0.7866,0.7776,0.7738,0.7701,0.768,0.768,0.8626,1.0054,1.1246,1.2676,1.3866,1.5302,0.0,0.0,0.0,0.0,0.0,0.0,2.0037,2.0965,2.0965,2.1435,2.1905,2.1905,2.2375,2.2844,2.2844,2.2844,2.2375,2.1905,2.2011,2.2308,2.3017,2.3017,2.3017,2.3017,2.2875,2.2765,2.2639,2.2386,2.3222,2.4221,2.5087,2.6039,2.7113,2.7922,2.8197,2.8252,2.8528,2.8638,2.8675,2.895,2.9024,2.9024,2.9024,2.9024,2.8697,2.7149,2.6766,2.7225,2.8516,2.9024,2.9024,2.9024,2.9024,2.9024,2.9024,2.8932,2.8803,2.8656,2.8711,2.8711,2.8509,2.8785,2.9024,2.9024,2.9024,2.9024,2.9024,2.9024,2.9024,2.9024,2.9024,2.9024,2.9024,2.8895,2.8822,2.8822,2.9079,2.9281,2.9409,2.9961,3.0615,3.1097,3.1404,3.2065,3.3117,3.3117,3.2936,0.6457,0.67,0.6917,0.7225,0.7246,0.7267,0.7548,0.7723,0.785,0.7934,0.8046,0.8072,0.7876,0.7807,0.776,0.7691,0.768,0.768,0.768,0.8626,1.0054,1.1246,1.2676,1.3866,1.5302,0.0,0.0,0.0,0.0,0.0,1.6963,1.8134,1.8843,1.8843,1.9551,1.9801,1.9801,2.0744,2.0258,1.8843,1.8843,1.9315,1.9787,1.9912,2.009,2.0776,2.066,2.0602,2.0602,2.0819,2.0702,2.0511,2.0306,2.0982,2.207,2.2639,2.3644,2.4787,2.5396,2.5616,2.565,2.5887,2.5971,2.6005,2.6225,2.6293,2.6293,2.6293,2.6394,2.6159,2.4795,2.4359,2.4785,2.6042,2.6394,2.6496,2.6496,2.7122,2.7735,2.7735,2.8263,2.8546,2.8454,2.8399,2.8326,2.8481,2.8509,2.8785,2.9005,2.9024,2.9024,2.9024,2.9024,2.9024,2.9024,2.9024,2.8969,2.8822,2.826,2.8132,2.8436,2.8675,2.8877,2.9024,2.952,2.9648,2.9391,2.9648,2.9777,2.9777,2.9777,2.9648,0.6516,0.6536,0.669,0.6917,0.6986,0.7308,0.7647,0.7729,0.7564,0.7786,0.7671,0.7713,0.785,0.7507,0.7441,0.768,0.768,0.768,0.768,0.8626,1.0054,1.1239,1.2438,1.3866,1.5064,1.5302,0.0,0.0,0.0,0.0,1.5302,1.5302,1.5302,1.5302,1.6963,1.791,1.791,1.9565,1.8843,1.5302,1.5281,1.6229,1.7873,1.7601,1.8618,2.0199,1.9898,1.9769,1.9769,1.9755,1.9741,1.9741,1.9712,1.9884,2.0199,2.0747,2.1081,2.1654,2.1991,2.2094,2.2108,2.2123,2.2138,2.2138,2.2167,2.2167,2.2167,2.2167,2.2109,2.199,2.1964,2.1906,2.1921,2.2167,2.2387,2.2592,2.2592,2.4106,2.5613,2.5613,2.657,2.7433,2.7794,2.727,2.6981,2.7805,2.7932,2.8399,2.8642,2.8733,2.9024,2.9024,2.9024,2.877,2.877,2.877,2.8569,2.783,2.7474,2.751,2.7902,2.7938,2.81,2.8461,2.8497,2.8497,2.8479,2.8497,2.8516,2.8516,2.8516,2.8516,0.7627,0.7677,0.7727,0.7133,0.7773,0.862,0.8721,0.8132,0.7542,0.7686,0.6526,0.6052,0.7482,0.6491,0.5998,0.7441,0.768,0.768,0.768,0.8626,0.9576,1.0054,1.1246,1.2438,1.3628,1.3866,0.0,0.0,0.0,0.0,1.5302,1.5302,1.5302,1.5302,1.5777,1.6014,1.6014,1.6489,1.624,1.5302,1.5133,1.5282,1.5738,1.5494,1.56,1.6044,1.5986,1.5963,1.5952,1.5744,1.5663,1.5651,1.5444,1.5409,1.5733,1.7771,1.9281,2.0747,2.1081,2.1196,2.124,2.1713,2.1786,2.183,2.2094,2.2167,2.2167,2.2167,1.9844,1.7758,1.9147,1.9533,2.0196,2.1675,2.2225,2.2269,2.2269,2.2591,2.3131,2.3131,2.3257,2.3333,2.3148,2.321,2.3241,2.3086,2.4948,2.6253,2.6484,2.767,2.8497,2.8497,2.8225,2.7954,2.7954,2.7954,2.6622,2.3365,2.3256,2.341,2.344,2.3578,2.3701,2.4029,2.4277,2.4277,2.4029,2.4277,2.44,2.44,2.44,2.44,0.8559,0.8656,0.8941,0.8471,0.8729,0.8718,0.7825,0.6794,0.5988,0.5148,0.4248,0.3803,0.4789,0.4074,0.3834,0.4796,0.5036,0.5036,0.5036,0.575,0.6703,0.6937,0.0,1.1,1.1953,1.339,0.0,0.0,0.0,0.0,1.5302,1.5302,1.5302,1.5302,1.5302,1.5302,1.5302,1.5196,1.5154,1.5143,1.4911,1.4805,1.4795,1.4562,1.4446,1.4446,0.0,1.4287,1.4277,1.415,1.4097,1.4087,1.396,1.3907,1.4166,1.5418,1.6618,1.7825,1.8231,1.8371,1.8396,1.8548,1.8825,1.8864,1.9018,1.907,1.907,1.907,1.7267,1.5733,1.6922,1.7267,1.7615,1.8828,1.9173,1.9263,1.9263,2.0103,2.0689,2.0689,2.1315,2.1845,2.1552,2.1639,2.1595,2.1331,2.2752,2.3744,2.3965,2.4637,2.5304,2.5422,2.5158,2.5024,2.5278,2.5239,2.4211,2.197,2.1625,2.1689,2.1861,2.2312,2.2471,2.2616,2.2776,2.2776,2.2616,2.2776,2.2863,2.2863,2.2863,2.2863,0.9511,1.006,1.035,1.0374,0.9571,0.8268,0.6743,0.5061,0.3575,0.2042,0.1615,0.1641,0.1904,0.1674,0.1677,0.1911,0.1914,0.1918,0.1918,0.2636,0.3353,0.359,0.6942,0.9092,0.9801,1.2191,0.0,0.0,0.0,1.4341,1.4816,1.4816,1.5064,1.5302,1.5302,1.5043,1.4055,1.4317,1.4448,1.4448,1.444,1.4562,1.4552,1.4319,1.4203,0.0,0.0,1.3907,1.3907,1.3907,1.3907,1.3907,1.3907,1.3907,1.3939,1.4213,1.4446,1.4678,1.5143,1.5302,1.5302,1.5302,1.5302,1.5302,1.5302,1.5302,1.5302,1.5302,1.5302,1.5302,1.5302,1.5302,1.5302,1.5302,1.545,1.5598,1.5598,1.7222,1.859,1.859,1.9607,2.0566,2.0607,2.0328,2.0132,2.0255,2.0887,2.1283,2.1344,2.1464,2.1675,2.2096,2.1889,2.163,2.1882,2.1921,2.1617,2.1103,2.037,2.051,2.0949,2.1127,2.1572,2.2092,2.2092,2.2092,2.2092,2.2092,2.2092,2.2092,2.2092,2.2092,1.0938,1.1662,1.2861,1.3055,1.0508,0.7834,0.7617,0.4798,0.2198,0.201,0.0681,0.0,0.1641,0.0475,0.0,0.1648,0.19,0.1918,0.1918,0.3353,0.4311,0.3114,0.5029,0.6464,0.6464,0.6937,0.0,0.0,0.0,0.9801,1.1961,1.1961,1.3152,1.5302,1.5302,1.3298,0.891,1.062,1.1677,1.1677,1.3519,1.4319,1.4309,1.4065,1.396,0.0,0.0,0.0,1.3907,1.3907,1.3907,1.3907,1.3907,1.3907,1.396,1.4404,1.4583,1.4678,1.5143,1.5302,1.5302,1.5302,1.5302,1.5302,1.5302,1.5302,1.5302,1.5302,1.5302,1.5302,1.5302,1.5302,1.5302,1.5302,1.5323,1.5355,1.5355,1.5614,1.5886,1.5886,1.6092,1.6285,1.6263,1.6251,1.6229,1.615,1.7869,1.9182,1.9222,2.0426,2.1376,2.1659,2.1094,2.089,2.089,2.1044,1.9754,1.6568,1.6263,1.6401,1.6806,1.687,1.7161,1.7722,1.7722,1.7722,1.7722,1.7722,1.7722,1.7722,1.7722,1.7722,1.208,1.2554,1.322,1.3199,1.0809,0.8051,0.6743,0.3482,0.0438,-0.0668,-0.1798,-0.205,-0.1166,-0.1886,-0.2127,-0.1173,-0.1179,-0.1181,-0.117,0.0,0.0475,-0.0719,0.1916,0.3829,0.0,0.5264,0.6698,0.0,0.0,0.8131,0.9324,0.9324,0.9801,1.0993,1.1138,1.0072,0.7614,0.8633,0.9014,0.9014,0.9973,1.0329,1.0329,1.0252,1.0862,0.0,0.0,0.0,1.3907,1.261,1.2827,1.3907,1.3907,1.3907,1.3949,1.4298,1.4425,1.4488,1.4964,1.5122,1.5143,1.526,1.5302,1.5302,1.5302,1.3381,1.1223,1.1231,1.1231,1.1461,1.2905,1.3152,1.3628,1.5064,1.5302,1.5302,1.5302,1.5302,1.5302,1.5302,1.5302,1.5302,1.5302,1.5302,1.5122,1.509,1.5993,1.6614,1.6523,1.6998,1.7551,1.8024,1.7545,1.7235,1.7485,1.7722,1.6998,1.5054,1.5302,1.5366,1.5779,1.5728,1.6032,1.6507,1.6633,1.6697,1.6697,1.6697,1.6697,1.6697,1.6697,1.6697,1.2861,0.0,1.3209,1.2717,1.0346,0.7394,0.0,0.1959,-0.1313,-0.3103,-0.3567,-0.3609,-0.3713,-0.3744,-0.3755,-0.3755,-0.3766,-0.375,-0.3675,-0.3263,-0.3077,-0.358,-0.0715,0.119,0.119,0.3583,0.5264,0.0,0.0,0.5981,0.6698,0.6698,0.6923,0.7611,0.6312,0.5754,0.5902,0.6258,0.6433,0.6428,0.6784,0.696,0.696,0.696,0.0,0.0,0.0,0.0,1.2169,1.0437,1.0654,1.2385,1.2385,1.2413,1.2479,1.2639,1.2511,1.2604,1.3195,1.3327,1.3355,1.3553,1.3619,1.3619,1.3619,1.0747,0.7643,0.7648,0.7648,0.812,1.004,1.0524,1.1,1.2905,1.3381,1.3628,1.4104,1.4341,1.4569,1.5228,1.5228,1.5196,1.5101,1.5112,1.489,1.4853,1.471,1.4663,1.4752,1.4448,1.4468,1.4893,1.4541,1.4267,1.4731,1.3792,1.3159,1.287,1.3362,1.352,1.3844,1.3807,1.4155,1.4438,1.4664,1.4786,1.4786,1.5361,1.5649,1.5649,1.6427,1.6697,0.0,1.3209,1.3108,1.2448,0.8886,0.5218,0.3917,0.0,0.0,-0.3495,-0.354,-0.3596,-0.366,-0.3715,-0.3755,-0.3755,-0.38,-0.3795,-0.3681,-0.3763,-0.3578,-0.2824,-0.1409,-0.047,-0.047,0.0,0.048,0.0,0.0,0.0,0.4074,0.4071,0.5228,0.7495,0.2974,0.0451,0.0448,0.264,0.3708,0.3705,0.5878,0.696,0.696,0.696,0.0,0.0,0.0,0.0,0.0,0.7394,0.7394,0.7394,0.7394,0.7462,0.7569,0.7802,0.7878,0.7999,0.8132,0.8179,0.8196,0.8092,0.8131,0.8131,0.8131,0.7892,0.7648,0.7654,0.7654,0.7654,0.7892,0.7892,0.7654,0.741,0.7648,0.8609,1.0516,1.1239,1.2386,1.456,1.4995,1.4879,1.4734,1.4562,1.4647,1.4573,1.4503,1.4657,1.4524,1.4294,1.4468,1.4893,1.4415,1.423,1.4665,1.0477,0.8049,0.8058,0.8092,0.8109,0.8154,0.8289,0.8619,0.8631,0.8839,0.8949,0.8949,1.1404,1.2784,1.2784,1.539,1.6697,1.2713,1.3104,1.3453,1.3055,0.9631,0.6086,0.5218,0.1088,-0.2398,-0.2834,-0.3287,-0.354,-0.3599,-0.366,-0.3699,-0.3699,-0.3747,-0.3758,-0.3678,-0.3736,-0.3543,-0.3286,-0.2602,-0.1904,-0.0952,-0.0718,-0.048,0.0,0.0,0.0,0.1439,0.1439,0.1887,0.2729,0.0904,0.0,0.0,0.0874,0.1307,0.1307,0.2178,0.2612,0.2612,0.2612,0.0,0.0,0.0,0.0,0.0,0.5439,0.5656,0.696,0.696,0.6986,0.7034,0.733,0.7341,0.7119,0.7532,0.7603,0.7394,0.7505,0.759,0.7654,0.7654,0.5264,0.2876,0.2876,0.2876,0.3116,0.4796,0.5275,0.5515,0.6942,0.742,0.7638,0.803,0.8483,0.8916,0.9699,0.9901,0.9851,1.0144,1.0152,1.0137,1.0232,1.0025,0.9973,1.0205,0.9958,0.9796,1.0213,0.9883,0.9752,1.0057,0.8351,0.7458,0.741,0.7648,0.7643,0.7659,0.7707,0.777,0.7844,0.8166,0.828,0.8422,0.9496,0.9828,0.9909,1.095,1.147,1.1518,1.1502,1.1222,1.0724,0.7904,0.5218,0.4349,0.0871,-0.2398,-0.2834,-0.3272,-0.3509,-0.3567,-0.3625,-0.3899,-0.4841,-0.4907,-0.5155,-0.5966,-0.6031,-0.6057,-0.5966,-0.5599,-0.4959,-0.4015,-0.2858,-0.1678,-0.048,0.0,0.0,0.0,-0.0718,-0.1406,-0.222,-0.2226,-0.2213,-0.2178,-0.1525,-0.1089,-0.1089,-0.0436,0.0,0.0,0.0,0.0,0.0,0.0,0.0,0.0,0.3047,0.3265,0.4787,0.4787,0.4802,0.4827,0.5081,0.4867,0.4878,0.4987,0.5042,0.5078,0.5159,0.522,0.5264,0.5264,0.2636,0.0,-0.024,-0.048,-0.024,0.168,0.216,0.2397,0.4049,0.4518,0.4736,0.4889,0.5104,0.554,0.636,0.6341,0.6544,0.6694,0.6679,0.6871,0.6997,0.6768,0.6758,0.7377,0.7161,0.7155,0.7377,0.7225,0.6383,0.5254,0.5086,0.5032,0.5042,0.5032,0.4789,0.4793,0.4789,0.4569,0.4859,0.4885,0.4955,0.5074,0.5328,0.588,0.6737,0.6964,0.7465,0.9653,0.8156,0.6386,0.5418,0.3482,0.1524,0.0218,-0.1744,-0.349,-0.3487,-0.3487,-0.3506,-0.3564,-0.3625,-0.46,-0.7235,-0.758,-0.8277,-1.0544,-1.1104,-1.1017,-1.0493,-1.0739,-1.0718,-1.0029,-0.6803,-0.3827,-0.12,0.0,0.0,-0.0233,-0.2374,-0.4663,-0.6992,-0.6976,-0.697,-0.696,-0.4787,-0.3482,-0.3482,-0.1089,0.0,0.0,0.0,0.0,0.0,0.0,0.0,0.0,0.0,0.0,0.0,0.0,0.0,0.0,0.0,0.0,0.0,0.0,0.0,0.0,0.0,0.0,0.0,0.0,0.0,-0.024,-0.096,-0.144,-0.192,-0.192,-0.192,-0.2153,-0.2589,-0.2346,-0.1167,0.0688,0.16,0.2729,0.5141,0.5572,0.5543,0.523,0.5214,0.5435,0.5878,0.5887,0.611,0.6768,0.6986,0.6986,0.7204,0.6986,0.502,0.0436,0.0,0.0,0.0,-0.072,-0.096,-0.096,-0.168,-0.192,-0.192,-0.1948,-0.1977,-0.2004,-0.1254,0.0252,0.3067,0.3779,0.5505,0.7954,0.7242,0.6917,0.6521,0.4352,0.217,0.1929,-0.0432,-0.3257,-0.4928,-0.5609,-0.6535,-0.8094,-0.8432,-0.8802,-0.9858,-1.0015,-1.032,-1.092,-1.0951,-1.0881,-1.0601,-1.0204,-1.0029,-0.9801,-0.859,-0.7317,-0.645,0.0,0.0,-0.5332,-0.8323,-0.9347,-0.7971,-0.8088,-0.7816,-0.6949,-0.6732,-0.6308,-0.5883,-0.5222,-0.5004,-0.5004,-0.5004,-0.4135,-0.2612,0.0,0.0,0.0,-0.1743,-0.1525,0.0,0.0,0.0,0.0,0.0,-0.1104,-0.2474,-0.0675,-0.1145,-0.2346,-0.0707,0.0,-0.072,-0.5264,-0.6694,-0.6698,-0.6937,-0.7176,-0.7176,-0.7176,-0.5986,-0.4773,-0.47,-0.3281,-0.1629,-0.1585,-0.135,-0.0895,-0.022,-0.0219,0.0,0.0218,0.0218,0.0436,0.0436,0.0654,0.0872,0.1526,0.1526,0.1744,0.218,0.218,0.1321,-0.0451,-0.0235,0.0,0.0,-0.024,-0.024,-0.024,-0.2159,-0.3339,-0.3068,-0.4733,-0.5707,-0.5496,-0.5257,-0.4812,-0.3903,-0.3927,-0.3446,0.5484,0.451,0.3917,0.3917,0.2177,0.0434,0.0645,-0.1946,-0.4776,-0.6222,-0.7553,-0.8906,-1.0205,-1.0564,-1.0962,-1.228,-1.2414,-1.2725,-1.3875,-1.3796,-1.3667,-1.3449,-1.3042,-1.2856,-1.2856,-1.1974,-1.1231,-1.0591,-1.0086,0.0,-1.1144,-1.3063,-1.3363,-1.1458,-1.1712,-1.1398,-1.0743,-1.0019,-0.9339,-0.9136,-0.8045,-0.7611,-0.7611,-0.7611,-0.6955,-0.5652,-0.6738,0.0,0.0,-0.4352,-0.4135,-0.2829,-0.2829,-0.2829,-0.2829,-0.2829,-0.3756,-0.4955,-0.3381,-0.4141,-0.5427,-0.4015,-0.3535,-0.423,-0.7974,-0.9144,-0.9377,-0.9618,-0.9618,-0.9618,-0.9852,-0.8916,-0.7718,-0.7598,-0.6425,-0.5244,-0.5551,-0.4863,-0.4408,-0.4365,-0.3487,-0.2834,-0.2398,-0.2398,-0.2398,-0.218,-0.1962,-0.1744,-0.1308,-0.0872,-0.0654,-0.0654,-0.2412,-0.3781,-0.4105,-0.4001,-0.3834,-0.3834,-0.4071,-0.406,-0.4035,-0.5695,-0.6592,-0.6258,-0.7872,-0.859,-0.8418,-0.8132,-0.8167,-0.8052,-0.8075,-0.7854,0.2752,0.1076,-0.0872,-0.0872,-0.1744,-0.2616,-0.2827,-0.5001,-0.7172,-0.7594,-0.9332,-1.0854,-1.107,-1.1222,-1.2084,-1.4777,-1.482,-1.5499,-1.801,-1.7985,-1.7682,-1.7405,-1.7602,-1.7747,-1.7747,-1.6225,-1.4858,-1.4274,-1.3636,0.0,-1.7246,-1.7205,-1.6831,-1.6606,-1.6377,-1.6269,-1.6048,-1.3816,-1.262,-1.2639,-1.0453,-0.9368,-0.9382,-0.9368,-0.9143,-0.8926,-0.846,0.0,0.0,-0.736,-0.7144,-0.6928,-0.6928,-0.715,-0.7155,-0.7144,-0.7303,-0.7749,-0.751,-0.8121,-0.8798,-0.8561,-0.9098,-0.9567,-0.9567,-0.9567,-0.9794,-1.0256,-1.0483,-1.071,-1.1172,-1.1399,-1.1358,-1.097,-1.0699,-1.0415,-1.0461,-0.8906,-0.7394,-0.7394,-0.5661,-0.4141,-0.4141,-0.4141,-0.3923,-0.3269,-0.3269,-0.3049,-0.2614,-0.196,-0.1744,-0.2396,-0.6414,-0.9211,-0.9106,-0.9371,-0.9536,-0.955,-1.0012,-1.0171,-1.0022,-1.0719,-1.1104,-1.0929,-1.1156,-1.1221,-1.1136,-1.0513,-1.0293,-1.0203,-0.9609,-0.932,0.043,-0.0652,-0.1526,-0.1526,-0.1962,-0.304,-0.4921,-0.6246,-0.8015,-1.1531,-1.27,-1.3681,-1.5416,-1.6064,-1.6551,-1.7282,-1.7545,-1.7545,-1.8235,-1.7985,-1.7682,-1.7405,-1.7431,-1.7471,-1.7471,-1.754,-1.7168,-1.669,-1.6903,0.0,-2.0365,-2.025,-1.9191,-1.6994,-1.7164,-1.7139,-1.6048,-1.5976,-1.5815,-1.5566,-1.4477,-1.3823,-1.3997,-1.337,-1.1959,-1.0391,-1.1852,0.0,0.0,-0.8607,-0.8352,-0.7101,-0.7101,-0.7368,-0.7868,-0.7757,-0.9247,-1.0945,-0.8822,-0.9645,-1.1286,-0.9435,-1.2133,-1.6178,-1.6178,-1.6178,-1.6178,-1.6404,-1.6404,-1.6404,-1.6642,-1.6642,-1.6166,-1.4069,-1.1905,-1.0415,-1.0461,-1.0205,-0.9772,-0.9772,-0.9339,-0.8906,-0.8906,-0.8906,-0.8906,-0.8906,-0.8899,-0.846,-0.8033,-0.7828,-0.7834,-0.8473,-0.8815,-0.9184,-0.9787,-0.9179,-0.9027,-0.9144,-0.904,-0.9192,-0.8937,-1.1001,-1.2054,-1.1861,-1.3874,-1.4709,-1.4567,-1.4294,-1.4294,-1.4348,-1.4256,-1.4319,-0.1941,-0.2396,-0.2616,-0.5001,-0.5004,-0.521,-0.7733,-0.9282,-1.0837,-1.3321,-1.4579,-1.5703,-1.7137,-1.8348,-1.9035,-1.8381,-2.0233,-2.1339,-2.0023,-2.0618,-2.1139,-2.0594,-2.0547,-2.012,-1.9067,-1.9501,-1.9124,-1.7578,-1.8876,-2.0887,-2.3411,-2.3828,-2.3152,-2.1571,-2.1625,-2.1547,-2.0876,-2.0931,-2.0931,-2.0861,-2.0087,-1.9808,-1.9969,-1.9211,-1.8173,-1.7051,-1.7695,0.0,-1.3017,-1.364,-1.2715,-1.0865,-1.0959,-1.1213,-1.1424,-1.1415,-1.2534,-1.4003,-1.2344,-1.3178,-1.5003,-1.5826,-1.8392,-2.1078,-2.1078,-2.1078,-2.1078,-2.1078,-2.0202,-1.9516,-1.9371,-1.8473,-1.7167,-1.5846,-1.4643,-1.3681,-1.3681,-1.2807,-1.2159,-1.2159,-1.1286,-1.0421,-1.0421,-1.0421,-1.0421,-1.0421,-1.0413,-1.0413,-0.9981,-1.1943,-1.3475,-1.3681,-1.343,-1.338,-1.3722,-1.3382,-1.348,-1.3597,-1.3499,-1.3166,-1.3061,-1.4414,-1.4975,-1.4731,-1.5846,-1.6438,-1.629,-1.629,-1.629,-1.629,-1.6438,-1.6512,-0.4097,-0.4349,-0.4787,-0.8683,-0.8689,-0.8256,-1.0638,-1.2591,-1.4123,-1.4759,-1.6267,-1.764,-1.8368,-2.0166,-2.1244,-1.9849,-2.3076,-2.5073,-2.2597,-2.38,-2.4719,-2.4174,-2.4137,-2.3292,-2.1595,-2.1708,-2.1062,-1.9092,-2.1266,-2.3777,-2.6186,-2.675,-2.6938,-2.6938,-2.6429,-2.609,-2.5938,-2.5831,-2.5646,-2.5646,-2.5019,-2.4835,-2.4817,-2.4199,-2.3805,-2.3787,-2.2884,0.0,-2.0194,-1.9214,-1.785,-1.6434,-1.6665,-1.6652,-1.672,-1.6916,-1.7202,-1.727,-1.7218,-1.7827,-1.9096,-2.2863,-2.4137,-2.4137,-2.4137,-2.4137,-2.4137,-2.4137,-2.2816,-2.122,-2.0943,-1.9377,-1.7878,-1.7878,-1.7878,-1.7948,-1.8214,-1.6768,-1.5276,-1.4894,-1.3209,-1.1718,-1.1718,-1.1718,-1.1718,-1.1718,-1.1718,-1.1718,-1.1718,-1.4906,-1.7246,-1.7714,-1.8146,-1.8556,-1.9092,-1.929,-1.9208,-1.9264,-1.9222,-1.929,-1.9035,-1.9021,-1.8893,-1.8438,-1.8438,-1.8438,-1.8438,-1.8438,-1.8438,-1.8438,-1.8438,-1.8438,-0.5622,-0.7605,-0.9556,-1.0205,-1.0205,-1.0638,-1.2817,-1.3691,-1.4974,-1.9038,-1.9634,-2.0334,-2.2799,-2.4199,-2.4886,-2.4563,-2.5751,-2.6285,-2.5071,-2.4859,-2.4578,-2.4137,-2.4137,-2.3926,-2.3715,-2.3861,-2.3877,-2.366,-2.5556,-2.7282,-2.7948,-2.8031,-2.8051,-2.8051,-2.6582,-2.5794,-2.6165,-2.6109,-2.5864,-2.5883,-2.4791,-2.4355,-2.4116,-2.3294,-2.2888,-2.2854,0.0,0.0,-2.1708,-2.1318,-2.1368,-2.157,-2.1622,-2.2015,-2.2448,-2.2388,-2.2535,-2.2886,-2.2764,-2.2904,-2.3221,-2.3963,-2.4137,-2.4137,-2.4137,-2.4137,-2.4137,-2.4137,-2.3462,-2.2985,-2.2931,-2.2459,-2.1772,-2.1772,-2.1772,-2.1789,-2.1841,-2.1656,-2.0928,-1.9407,-1.7605,-1.6505,-1.6505,-1.6505,-1.6505,-1.6505,-1.6505,-1.6505,-1.6505,-1.6498,-1.7532,-1.9661,-1.9947,-2.1057,-2.339,-2.3396,-2.3379,-2.3712,-2.3414,-2.3203,-2.3363,-2.3363,-2.3345,-2.3292,-2.3292,-2.3292,-2.3292,-2.3292,-2.3292,-2.3292,-2.3292,-2.3292,-0.7763,-0.9116,-1.107,-1.367,-1.4306,-1.4725,-1.605,-1.8168,-2.0272,-2.1366,-2.2329,-2.3416,-2.4886,-2.6776,-2.7722,-2.6237,-2.8997,-3.055,-2.804,-2.8642,-2.885,-2.838,-2.815,-2.7501,-2.6264,-2.6232,-2.5789,-2.4725,-2.8276,-3.0363,-3.0564,-3.0832,-3.0877,-3.0586,-2.9893,-2.9428,-2.9641,-2.9641,-2.9768,-3.0044,-2.8841,-2.8485,-2.8247,-2.7577,-2.7351,-2.733,0.0,-2.593,-2.5093,-2.4649,-2.405,-2.3274,-2.3289,-2.3568,-2.3737,-2.3793,-2.3844,-2.4119,-2.3917,-2.5666,-2.792,-2.792,-2.792,-2.792,-2.792,-2.792,-2.792,-2.792,-2.6546,-2.532,-2.5083,-2.3689,-2.2378,-2.2378,-2.2378,-2.2451,-2.2451,-2.2506,-2.2359,-2.1522,-2.0872,-2.016,-2.016,-1.9347,-1.8531,-1.8531,-1.7698,-1.7698,-1.9953,-2.0096,-2.0357,-2.1539,-2.1573,-2.2189,-2.3817,-2.3689,-2.3762,-2.4163,-2.4229,-2.4137,-2.4137,-2.4137,-2.4137,-2.4137,-2.4137,-2.4137,-2.4137,-2.4137,-2.4137,-2.4137,-2.4137,-2.4137,-1.1114,-1.2515,-1.4295,-1.8396,-1.9435,-1.9633,-2.012,-2.2851,-2.4943,-2.433,-2.5223,-2.628,-2.7376,-2.9548,-3.071,-2.8451,-3.2093,-3.4169,-3.09,-3.1653,-3.2374,-3.1986,-3.1293,-3.0256,-2.8798,-2.8589,-2.8343,-2.8301,-3.1627,-3.3818,-3.3942,-3.4337,-3.4436,-3.4189,-3.4164,-3.4214,-3.4362,-3.4238,-3.3853,-3.3682,-3.3505,-3.3039,-3.2285,-3.1875,-3.1707,-3.1683,-3.0684,-2.95,-2.8337,-2.7971,-2.6978,-2.5578,-2.5686,-2.5627,-2.5578,-2.5705,-2.5823,-2.5994,-2.6566,-2.9182,-3.1909,-3.1909,-3.1705,-3.1321,-3.1466,-3.1103,-3.0714,-3.0855,-2.9249,-2.7539,-2.7264,-2.5589,-2.4052,-2.3953,-2.3914,-2.3799,-2.4114,-2.3976,-2.3817,-2.3338,-2.3158,-2.3195,-2.2688,-2.13,-2.0308,-2.0308,-1.9095,-1.9034,-2.2037,-2.2397,-2.2631,-2.3139,-2.3451,-2.3898,-2.4931,-2.5293,-2.5489,-2.5804,-2.5823,-2.5823,-2.5823,-2.5823,-2.6034,-2.6643,-2.6643,-2.6832,-2.7439,-2.7439,-2.7251,-2.6643,-2.6643,-2.6433,-1.6421,-1.9183,-2.1791,-2.4733,-2.5364,-2.5364,-2.5364,-2.5574,-2.6413,-2.8337,-2.8566,-2.8979,-3.1586,-3.3186,-3.383,-3.3095,-3.4581,-3.5366,-3.3584,-3.2788,-3.2351,-3.2326,-3.15,-3.111,-3.1524,-3.111,-3.2523,-3.6987,0.0,-3.731,-3.7693,-3.7749,-3.8238,-3.8829,-3.8589,-3.8868,-3.9701,-3.8868,-3.7252,-3.4901,-3.6889,-3.6561,-3.4023,-3.3997,-3.3972,-3.3972,-3.1889,-3.0855,-3.0671,-3.0648,-3.0648,-3.0625,-3.0464,-3.0648,-3.0625,-3.0464,-3.0464,-3.0944,-3.3665,-3.4842,-3.5035,-3.5035,-3.3681,-3.2253,-3.2766,-3.154,-3.0269,-3.0761,-3.0527,-3.0011,-2.9866,-2.9537,-2.9011,-2.8906,-2.8599,-2.8226,-2.8249,-2.7875,-2.7051,-2.5408,-2.5104,-2.4642,-2.2833,-2.2506,-2.2305,-2.2305,-2.2305,-2.2235,-2.1878,-2.1786,-2.2681,-2.5022,-2.5672,-2.713,-2.9474,-3.0163,-3.0441,-3.0464,-3.0464,-3.0464,-3.0464,-3.0464,-3.15,-3.3536,-3.3767,-3.4764,-3.6539,-3.6539,-3.5552,-3.3767,-3.3767,-3.2508,-1.7514,-2.0493,-2.3922,-2.4958,-2.6628,-2.7689,-2.6623,-2.8524,-3.0648,-3.0417,-3.2228,-3.4481,-3.5349,-3.7497,-3.8493,-3.7576,-3.8443,-3.9053,-3.7547,-3.7292,-3.7117,-3.7117,-3.6512,-3.5931,-3.5756,-3.5931,-3.679,-3.8848,-3.8879,-3.885,-3.9083,-3.867,-3.8613,-3.844,-3.7632,-3.7315,-3.7774,-3.7141,-3.6317,-3.5138,-3.593,-3.5818,-3.4837,-3.4837,-3.4837,-3.4837,-3.4022,-3.3627,-3.3627,-3.3627,-3.3627,-3.3627,-3.3627,-3.3627,-3.3627,-3.3627,-3.3627,-3.3771,-3.5284,-3.569,-3.569,-3.6044,-3.5662,-3.5115,-3.5147,-3.4842,-3.4286,-3.4504,-3.415,-3.3824,-3.3795,-3.2364,-3.1142,-3.1143,-3.001,-2.9133,-2.9133,-2.8923,-2.8623,-2.804,-2.7686,-2.7165,-2.656,-2.62,-2.5433,-2.4067,-2.6156,-2.7187,-2.5931,-2.57,-2.6085,-2.7358,-2.7583,-2.8427,-3.0057,-3.0292,-3.055,-3.0879,-3.2326,-3.2945,-3.2945,-3.4355,-3.5349,-3.6162,-3.6567,-3.7174,-3.775,-3.8153,-3.7952,-3.7146,-3.7146,-3.6539,-2.0811,-2.3639,-2.6524,-2.7187,-2.8957,-3.0574,-3.0116,-3.254,-3.456,-3.4303,-3.6586,-3.8762,-3.8642,-4.0248,-4.112,-3.9973,-4.0304,-4.0582,-3.9655,-3.9315,-3.9482,-3.9923,-3.9325,-3.8725,-3.8755,-4.0352,0.0,-4.1571,-4.1634,-4.1509,-4.1091,-4.089,-4.0475,-4.0242,-3.9174,-3.8737,-3.898,-3.8574,-3.8049,-3.7817,-3.7027,-3.7217,-3.7786,-3.7027,-3.6646,-3.6455,-3.569,-3.5335,-3.5143,-3.5143,-3.5143,-3.5143,-3.5143,-3.5143,-3.5143,-3.5143,-3.5813,-3.6934,-3.7492,-3.7492,-3.7492,-3.7833,-3.7431,-3.712,-3.7145,-3.6829,-3.6323,-3.6528,-3.6293,-3.6098,-3.6047,-3.4772,-3.3483,-3.365,-3.2529,-3.1485,-3.1485,-3.1301,-3.1301,-3.1301,-3.038,-2.9825,-2.9825,-2.8898,-2.7968,-2.7175,-2.8688,-3.0061,-3.0052,-2.9926,-3.0027,-3.0606,-3.0833,-3.1311,-3.2218,-3.247,-3.2722,-3.31,-3.4355,-3.5172,-3.5172,-3.6567,-3.7779,-3.8784,-3.8955,-3.9754,-4.0551,-4.0948,-4.0749,-3.9923,-3.9923,-3.9355,-2.7018,-2.8601,-2.987,-3.2006,-3.3101,-3.4117,-3.6269,-3.712,-3.8182,-4.0153,-4.1029,-4.1553,-4.1407,-4.1795,-4.1637,-4.0593,-4.0242,-3.9887,-3.9663,-3.9113,-3.9163,-4.0656,-3.9724,-3.9295,-3.9862,-4.39,-4.614,-4.5719,-4.5719,-4.5179,-4.4417,-4.4193,-4.4193,-4.4193,-4.3469,-4.3435,-4.4159,-4.3435,-4.3056,-4.3056,-4.0917,-4.1103,-4.3056,-4.0917,-3.9765,-3.9015,-3.7127,-3.6015,-3.5278,-3.547,-3.547,-3.5278,-3.5278,-3.5278,-3.5278,-3.5442,-3.7463,-4.0324,-4.0815,-4.064,-4.0324,-4.0815,-3.9553,-3.8091,-3.8583,-3.7493,-3.6107,-3.6541,-3.6718,-3.676,-3.6693,-3.6696,-3.6545,-3.6659,-3.6147,-3.5758,-3.5758,-3.5399,-3.5068,-3.5068,-3.3411,-3.2164,-3.2164,-3.0749,-3.0035,-3.1327,-3.001,-3.0213,-3.4288,-3.4203,-3.3849,-3.4689,-3.5318,-3.5726,-3.638,-3.6978,-3.7347,-3.7347,-3.7376,-3.7376,-3.7376,-3.7578,-3.8755,-4.1344,-4.1542,-4.2921,-4.5525,-4.5525,-4.4485,-4.2267,-4.2299,-4.1083,-2.6303,-3.0577,-3.3988,-3.5413,-3.7279,-3.8919,-3.9501,-4.0222,-4.0761,-4.0877,-4.2659,-4.4095,-4.3457,-4.4656,-4.5179,-4.3728,-4.3756,-4.3563,-4.3007,-4.2837,-4.291,-4.3336,-4.3625,-4.5004,-4.775,-4.801,-4.8419,-4.953,-4.9136,-4.8674,-4.8442,-4.8045,-4.7865,-4.7865,-4.671,-4.6194,-4.642,-4.5765,-4.5349,-4.5349,-4.4794,-4.4794,-4.5349,-4.4794,-4.3753,-4.2426,-4.302,-4.1792,-3.9439,-4.0623,-4.0445,-3.926,-3.926,-3.926,-3.9586,-4.232,-4.2978,-4.2862,-4.4536,-4.3377,-4.1547,-4.3206,-4.2517,-4.1059,-4.1232,-4.0773,-4.0453,-4.0623,-4.069,-4.0656,-4.063,-3.9644,-3.869,-3.8704,-3.7397,-3.6326,-3.6326,-3.6147,-3.6147,-3.6147,-3.5399,-3.4678,-3.4678,-3.3984,-3.3609,-3.4219,-3.4089,-3.4404,-3.6422,-3.5157,-3.4214,-3.4475,-3.4702,-3.4882,-3.5533,-3.6155,-3.6693,-3.6693,-3.8519,-3.9984,-4.0184,-4.1771,-4.2953,-4.339,-4.5039,-4.6075,-4.6273,-4.6641,-4.6457,-4.5869,-4.4458,-4.3609,-2.8136,-3.2852,-3.6454,-3.7187,-3.8482,-3.9792,-4.1048,-4.1631,-4.2184,-4.3333,-4.4725,-4.5888,-4.57,-4.6347,-4.634,-4.5161,-4.4948,-4.4844,-4.4484,-4.4528,-4.4927,-4.5797,-4.6669,-4.8083,-5.0584,-4.969,-4.9549,-5.0624,-5.0322,-5.0001,-5.0001,-4.9331,-4.9092,-4.9092,-4.7914,-4.7479,-4.7479,-4.6965,-4.6895,-4.6895,-4.6895,-4.6895,-4.6895,-4.6895,-4.6225,-4.5214,-4.6225,-4.5176,-4.3169,-4.4195,-4.4025,-4.3169,-4.3169,-4.3169,-4.3341,-4.585,-4.6057,-4.5045,-4.66,-4.5759,-4.4099,-4.559,-4.5252,-4.4441,-4.4441,-4.3928,-4.3414,-4.3414,-4.2761,-4.2242,-4.2416,-4.2171,-4.1789,-4.1303,-4.0746,-4.0013,-3.9377,-3.9025,-3.8848,-3.8848,-3.8108,-3.7365,-3.7365,-3.6326,-3.669,-4.021,-3.9888,-3.9553,-4.0276,-3.9124,-3.7849,-3.6848,-3.7156,-3.7431,-3.7756,-3.8341,-3.8554,-3.8938,-4.1235,-4.2806,-4.3155,-4.5089,-4.619,-4.6273,-4.7519,-4.8198,-4.7917,-4.8273,-4.8451,-4.8273,-4.724,-4.6918,-3.1457,-3.4795,-3.7401,-3.8267,-3.8585,-3.9244,0.0,-4.2602,-4.3382,-4.6603,-4.7278,-4.7331,-4.814,-4.7264,-4.6417,-4.5976,-4.5273,-4.4704,-4.5242,-4.5179,-4.5968,-4.8278,-4.9159,-4.9855,-5.063,-5.0364,-5.0404,-5.0579,-5.0457,-5.0416,-5.0549,-4.9855,-4.9406,-4.9575,-4.8838,-4.8264,-4.8264,-4.8264,-4.8264,-4.8264,-4.8264,-4.8264,-4.8264,-4.8264,-4.8264,-4.8098,-4.7601,-4.7268,-4.7181,-4.7093,-4.6965,-4.6797,-4.6678,-4.6649,-4.6743,-4.7609,-4.7484,-4.6948,-4.7649,-4.7319,-4.6783,-4.7319,-4.7484,-4.7319,-4.744,-4.6275,-4.5099,-4.5214,-4.4062,-4.2898,-4.3451,-4.4744,-4.5552,-4.4441,-4.5083,-4.5383,-4.3928,-4.3279,-4.2898,-4.2898,-4.1477,-4.0397,-4.0397,-3.8815,-3.9864,-4.686,-4.6014,-4.4628,-4.4819,-4.4299,-4.3206,-4.1164,-4.1435,-4.173,-4.2046,-4.1996,-4.2215,-4.2584,-4.4306,-4.558,-4.5942,-4.7484,-4.8689,-4.9139,-4.9315,-4.9625,-4.9894,-5.0068,-5.0068,-5.0068,-4.9894,-4.9969,0.0,0.0,0.0,0.0,0.0,0.0,0.0,-4.7609,-4.8014,-4.8183,-4.9251,-5.0078,-4.9624,-4.8905,-4.8526,-4.9088,-4.7681,-4.6807,-4.8468,-4.8302,-4.884,-5.1025,-5.0875,-5.1465,-5.4211,-5.3055,-5.2889,-5.442,-5.387,-5.3424,-5.3424,-5.3245,-5.3156,-5.3156,-5.2977,-5.2729,-5.2366,-5.2366,-5.2207,-5.1931,-5.1931,-5.1931,-5.1931,-5.1931,-5.1931,-5.177,-5.023,-5.0819,-5.2785,-5.2184,-5.1074,-4.9613,-4.8718,-4.8797,-4.9258,-4.9411,-4.8487,-4.7316,-4.895,-4.7556,-4.5309,-4.6847,-4.6376,-4.543,-4.6111,-4.6149,-4.5982,-4.6902,-4.7061,-4.7022,-4.7188,-4.7686,-4.8017,-4.7852,-4.8017,-4.8017,-4.7686,-4.752,-4.7354,-4.7022,-4.6688,-4.6354,-4.6057,-4.4536,-4.4233,-4.73,-4.7221,-4.6807,-4.646,-4.6342,-4.5889,-4.5176,-4.5159,-4.497,-4.4336,-4.4089,-4.4133,-4.4311,-4.579,-4.6843,-4.7381,-4.8412,-4.8981,-4.8826,-5.0155,-5.0626,-5.0082,-5.0576,-5.0782,-5.0782,-4.9544,-5.0613,0.0,0.0,0.0,0.0,0.0,0.0,0.0,0.0,0.0,0.0,0.0,-4.9027,-4.9188,0.0,-4.822,-4.9188,-4.8382,-4.8223,-4.9658,-4.97,-5.0683,-5.3789,-5.3352,-5.3575,-5.5406,-5.4354,-5.3924,-5.4768,-5.447,-5.4425,-5.4882,-5.447,-5.485,-5.6098,-5.563,-5.5658,-5.6177,-5.6177,-5.6024,-5.5871,-5.5871,-5.5871,-5.5871,-5.4993,-5.4729,-5.4573,-5.264,-5.2632,-5.3808,-5.3322,-5.2205,-5.1032,-5.0888,-5.0809,-5.0915,-5.0466,-4.9491,-4.8692,-4.9642,-4.8887,-4.7471,-4.854,-4.8388,-4.7709,-4.8445,-4.7909,-4.741,-4.787,-4.7848,-4.7855,-4.8017,-4.9321,-5.0308,-4.9658,-4.9983,-5.0146,-4.9332,-4.9004,-4.8676,-4.8512,-4.8512,-4.8347,-4.8058,-4.7892,-4.8553,-5.023,-4.9579,-4.8717,-4.8553,-4.8553,-4.8058,-4.6728,-4.6521,-4.6057,-4.5045,-4.4779,-4.4695,-4.4175,-4.6381,-4.7993,-4.8888,-5.0246,-5.0919,-5.0787,-5.161,-5.1883,-5.1566,-5.2047,-5.2207,-5.2163,-5.0992,-5.1525,0.0,0.0,0.0,0.0,0.0,0.0,0.0,0.0,0.0,0.0,0.0,0.0,0.0,0.0,0.0,-4.9029,-4.9173,-4.9559,-5.0651,-5.0898,-5.2003,-5.5291,-5.5302,-5.5099,-5.5612,-5.4969,-5.4509,-5.4509,-5.4822,-5.5302,-5.5931,-5.5661,-5.6297,-5.8296,-5.7675,-5.7841,-5.9029,-5.8979,-5.8979,-5.8832,0.0,0.0,-5.8832,-5.7541,-5.6834,-5.653,-5.4838,-5.3791,-5.3476,-5.3205,-5.2599,-5.1948,-5.1974,-5.1656,-5.1082,-5.0315,-4.9851,-4.9555,-4.9555,-4.9555,-4.9703,-5.0044,-5.0044,-5.0191,-5.0667,-4.9734,0.0,-4.8863,-4.8556,-4.8175,-4.8689,-5.0347,-5.1949,-5.1174,-5.1695,-5.2057,-5.1114,-5.0469,-4.9983,-4.9983,-4.9983,-4.9821,-4.9495,-5.0417,-5.1519,-5.316,-5.1563,-5.0362,-5.0738,-5.0405,-4.9357,-4.7733,-4.7406,-4.6913,-4.5717,-4.604,-4.5706,-4.442,-4.7034,-4.9243,-5.0417,-5.1924,-5.2756,-5.2936,-5.2756,-5.2666,-5.2352,-5.2934,-5.309,-5.3045,-5.3019,-5.2849,0.0,0.0,0.0,0.0,0.0,0.0,0.0,0.0,0.0,0.0,0.0,0.0,0.0,0.0,0.0,0.0,-5.1444,-5.1569,-5.3237,-5.3435,-5.3633,-5.4076,-5.4775,-5.5288,-5.5428,-5.5335,-5.5288,-5.5288,-5.6834,-5.7788,-5.7433,0.0,0.0,0.0,0.0,-5.9617,-5.9471,-5.9471,-5.9177,-5.8832,-5.8832,-5.8832,-5.8832,-5.8684,-5.7841,-5.653,-5.6377,-5.535,-5.3994,-5.3994,-5.3902,-5.3538,-5.085,-4.9444,-4.8667,-4.8435,-4.8389,0.0,0.0,0.0,0.0,-4.8389,-4.853,-4.8713,-4.9535,-4.9665,-4.9657,-5.0565,-5.1032,-5.1272,-5.1272,-5.1854,-5.2576,-5.361,-5.3843,-5.3971,-5.4962,-5.4885,-5.4573,-5.4261,-5.4105,-5.3948,-5.3679,-5.2535,-5.1924,-5.3145,-5.1595,-5.1067,-5.2688,-5.1292,-4.9845,-4.9649,0.0,0.0,-4.823,-5.0046,-5.0023,-4.7076,-4.9201,-5.0884,-5.1614,-5.1715,-5.2165,-5.3237,-5.251,-5.1752,-5.0797,-5.15,-5.1946,-5.19,-5.4195,-5.4921,0.0,0.0,0.0,0.0,0.0,0.0,0.0,0.0,0.0,0.0,0.0,0.0,0.0,0.0,0.0,0.0,-5.0945,-5.1593,-5.2223,-5.2738,-5.3012,-5.3012,-5.3488,-5.4555,-5.6022,-5.6368,-5.7204,-5.8684,-5.9567,-5.9859,-5.9713,-6.0583,-6.1353,-6.2116,-6.2116,-6.2399,-6.282,-6.282,-6.268,-6.2258,-6.2258,-6.2258,-6.2205,-6.073,-5.9518,0.0,-5.695,-5.5691,-5.496,-5.3927,-5.3152,0.0,0.0,0.0,0.0,0.0,-5.0045,-4.9901,-4.9901,-4.9535,-4.922,-4.9316,-4.8902,-4.8628,-4.9182,-4.9275,-4.9367,-4.9829,-5.067,-5.1423,-5.1423,-5.218,-5.318,-5.3753,-5.3555,-5.3355,-5.4075,-5.3919,-5.347,-5.332,0.0,0.0,-5.2868,-5.1982,-5.142,-5.1683,-5.0811,-5.0421,-5.1278,-5.0511,-4.9987,-4.9987,-4.9987,-4.9792,-4.9598,-5.0406,0.0,0.0,0.0,-5.0674,-5.0932,-5.0721,0.0,0.0,0.0,0.0,0.0,0.0,0.0,0.0,-5.2357,-5.2713,0.0,0.0,0.0,0.0,0.0,0.0,0.0,0.0,0.0,0.0,0.0,0.0,0.0,0.0,0.0,0.0,-5.0111,-5.0768,-5.1047,-5.1664,-5.2324,-5.2755,-5.2945,-5.4047,-5.664,-5.6939,-5.7818,-5.9968,-6.0678,-6.0996,-6.0787,-6.1344,-6.2087,-6.3148,-6.3148,-6.3553,-6.4465,-6.4465,-6.4332,-6.401,-6.3931,-6.3876,-6.3742,-6.1745,-6.0508,-5.9995,-5.8054,-5.6679,-5.6011,-5.4904,-5.3708,-5.265,-5.382,-5.3688,-5.2564,-5.228,-5.1995,-5.1805,-5.1805,-5.1097,-5.0207,-5.0348,-4.9694,-4.895,-4.9041,-4.9179,-4.9179,-4.9363,-5.0017,-5.0908,-5.1047,-5.1757,-5.2707,-5.3136,-5.2898,-5.2659,-5.2991,-5.2748,-5.2504,-5.2358,-5.189,-5.1326,-5.0893,-5.0893,-5.084,-5.0677,-5.0202,0.0,-5.0384,-4.9908,-4.9727,-5.002,-5.002,-5.0166,-5.0266,-5.0978,-5.0978,-5.0563,-5.0886,-5.0978,-5.0366,-5.0833,-5.1275,-5.1945,-5.1855,-5.2603,0.0,0.0,0.0,0.0,0.0,0.0,0.0,0.0,0.0,0.0,0.0,0.0,0.0,0.0,0.0,0.0,0.0,0.0,0.0,0.0,0.0,0.0,0.0,0.0,-5.0277,-5.1321,-5.2361,-5.3642,-5.35,-5.4458,-5.7095,-5.6273,-5.6064,-5.7366,-5.9259,-6.0193,-5.9765,-6.156,-6.2379,-6.1998,-6.1998,-6.1998,-6.2125,-6.2125,-6.2125,-6.2125,-6.1871,-6.1743,-6.1743,-6.1358,-6.045,-5.8995,-5.9995,-5.9102,-5.6803,-5.787,-5.6824,-5.4415,-5.3836,-5.3501,-5.3371,-5.3371,-5.3371,-5.3371,-5.3371,-5.2456,-5.1261,-5.1261,-5.0318,-4.9179,-4.9179,-4.9179,-4.9179,-4.9637,-4.9821,-4.9821,-5.0277,-5.0413,-5.0836,-5.2259,-5.2222,-5.2277,-5.328,-5.3183,-5.2748,-5.2358,-5.0722,-4.9181,-4.8905,-4.9778,-5.0521,-5.0863,-4.9974,0.0,-5.1612,-5.0019,-4.9135,-5.023,-5.0365,-5.0365,-5.0365,-5.2283,-5.2566,-5.0413,-5.2283,-5.2566,-5.0413,-5.2468,-5.2434,-5.0319,-5.0065,-5.0198,-5.0701,0.0,0.0,0.0,0.0,0.0,0.0,0.0,0.0,0.0,0.0,0.0,0.0,0.0,0.0,0.0,0.0,0.0,0.0,0.0,0.0,0.0,0.0,0.0,0.0,0.0,-5.1398,-5.268,-5.2322,-5.3236,-5.6778,-5.686,-5.7731,-5.9818,-6.1339,-6.2109,-6.1959,-6.2644,-6.295,-6.2825,-6.2825,-6.27,-6.2449,-6.2449,-6.2267,-6.2014,-6.1888,-6.1888,-6.1888,-6.0932,-6.0351,-5.9792,-5.9356,-5.8545,-5.7539,-5.7019,-5.7206,-5.7605,-5.7149,-5.6439,-5.5398,-5.4505,-5.4202,-5.4101,-5.3262,-5.2749,-5.2207,-5.1509,-5.0507,-4.9532,-4.9532,-4.9532,-4.9532,-4.9659,-4.9453,-4.899,-4.9119,-4.9264,-4.9543,-5.0278,-5.1394,-5.225,-5.2778,-5.2419,-5.1961,-5.1783,-4.9207,-4.761,-4.8875,-4.9394,-4.9627,-4.9964,-5.0396,-5.0645,-5.0884,-5.0242,-4.9963,-5.027,-5.0405,-5.0675,-5.1394,-5.2139,-5.2455,-5.2456,-5.1664,-5.1056,-5.0272,-4.954,-4.9136,-4.9138,-4.9491,-5.017,-5.1199,0.0,0.0,0.0,0.0,0.0,0.0,0.0,0.0,0.0,0.0,0.0,0.0,0.0,0.0,0.0,0.0,0.0,0.0,0.0,0.0,0.0,0.0,0.0,0.0,0.0,0.0,-5.1237,-5.1344,0.0,-5.5664,-5.7034,-5.8293,-6.0019,-6.1723,-6.2492,-6.2023,-6.2449,-6.2392,-6.1845,-6.1845,-6.1723,-6.1479,-6.1479,-6.1357,-6.1111,-6.0987,-6.121,-6.16,-6.0697,-6.0586,-6.0975,-6.0642,-6.0075,-5.9387,-5.8157,-5.8741,-6.0119,-5.905,-5.8239,-5.7519,-5.572,-5.5048,-5.4818,-5.3692,-5.3235,-5.308,-5.1863,-5.0473,-4.9196,-4.9196,-4.8824,-4.8571,-4.8613,-4.8227,-4.7884,-4.8027,-4.8202,-4.8345,-4.8604,-4.9606,-5.0484,-5.0484,-5.014,-5.0024,-5.0774,-4.8437,-4.6849,-4.8869,-4.902,-4.8941,-4.9565,-4.9983,-5.0189,-4.976,-5.0031,-5.0492,-5.0809,-5.1234,-5.1597,-5.1908,-5.1858,-5.1967,-5.2256,-5.0866,-5.0088,-5.0214,-4.8767,-4.8302,-4.9297,-4.9965,-5.0742,0.0,0.0,0.0,0.0,0.0,0.0,0.0,0.0,0.0,0.0,0.0,0.0,0.0,0.0,0.0,0.0,0.0,0.0,0.0,0.0,0.0,0.0,0.0,0.0,0.0,0.0,0.0,-4.9765,-5.0803,0.0,0.0,0.0,0.0,-5.7942,-6.0399,-6.1262,-5.9942,-6.1021,-6.1021,-5.9651,-5.9535,-5.9535,-5.9419,-5.9419,-5.9475,-5.9531,-5.9123,-5.9677,-6.0965,-6.072,-6.121,-6.2379,-6.3363,-6.3252,-6.2212,-6.1178,-6.1175,-6.143,-5.897,-5.8598,-5.9224,-5.6561,-5.5624,-5.5408,-5.4199,-5.3805,-5.3579,-5.2316,-5.0245,-4.815,-4.8268,-4.739,0.0,0.0,-4.6749,-4.6706,-4.7062,-4.7147,-4.7195,-4.7243,-4.7291,-4.7339,-4.7037,-4.6925,-4.7533,0.0,-4.8005,-4.6877,-4.8892,0.0,-4.8552,-4.9503,-4.9129,-4.8723,-4.8632,-4.9506,-5.0598,-5.1698,-5.2739,-5.2891,-5.195,-5.2024,-5.1564,-5.0371,-5.0026,-4.9975,-5.0218,-4.9924,-4.9913,-5.0448,-5.1118,0.0,0.0,0.0,0.0,0.0,0.0,0.0,0.0,0.0,0.0,0.0,0.0,0.0,0.0,0.0,0.0,0.0,0.0,0.0,0.0,0.0,0.0,0.0,0.0,0.0,0.0,-4.8203,-4.9965,-5.1977,-5.1877,-5.2317,0.0,0.0,0.0,0.0,0.0,0.0,-6.0816,-6.2288,-6.2504,-6.1133,-6.1079,-6.0628,-5.9535,-5.9419,-5.9926,-6.0773,-6.0653,-6.1329,-6.2624,-6.2501,-6.2669,-6.295,-6.3288,-6.3106,-6.2532,-6.113,-5.9485,-5.7874,-5.6841,-5.5927,-5.5034,-5.3455,-5.2893,-5.2698,-5.1563,-5.1214,-5.1224,-5.1545,0.0,-5.0794,-5.1374,0.0,0.0,0.0,0.0,-4.6152,-4.6204,0.0,-4.6759,-4.7,-4.9076,-5.1008,-5.106,-5.0272,-4.9283,0.0,-4.7204,-4.7047,-4.9827,0.0,0.0,0.0,0.0,-5.0466,-4.9965,-5.004,-5.0314,-5.0533,-5.1594,-5.2199,-5.1939,-5.2719,-5.3029,-5.2762,-5.1624,-5.1145,-5.1145,-5.0347,-4.9392,-4.8537,0.0,0.0,0.0,0.0,0.0,0.0,0.0,0.0,0.0,0.0,0.0,0.0,0.0,0.0,0.0,0.0,0.0,0.0,0.0,0.0,0.0,0.0,0.0,0.0,0.0,0.0,0.0,-4.6798,-4.864,-5.049,-5.1391,-5.1884,0.0,0.0,0.0,0.0,0.0,0.0,0.0,0.0,0.0,-6.0732,-6.0732,-6.0308,-5.9446,-5.9475,-5.9828,-6.0515,-6.0445,-6.1111,-6.2353,-6.2353,-6.2691,-6.3199,-6.3199,-6.3107,-6.2797,-6.0687,-5.9205,-5.8194,0.0,0.0,0.0,0.0,0.0,-5.1456,-5.0066,-4.9494,0.0,0.0,0.0,0.0,0.0,0.0,0.0,0.0,0.0,0.0,0.0,0.0,0.0,-4.5255,-4.6868,-4.8455,-4.9093,-4.9497,-4.9552,0.0,-4.7442,-4.7598,-5.0776,0.0,0.0,0.0,0.0,0.0,-4.8996,-4.9589,-5.0153,-5.0151,-5.1627,-5.2432,-5.196,-5.2529,-5.2595,-5.2105,-5.1179,-5.0909,-5.134,-5.0575,-5.0384,0.0,0.0,0.0,0.0,0.0,0.0,0.0,0.0,0.0,0.0,0.0,0.0,0.0,0.0,0.0,0.0,0.0,0.0,0.0,0.0,0.0,0.0,0.0,0.0,0.0,0.0,0.0,0.0,0.0,-4.5859,-4.7578,0.0,0.0,0.0,0.0,0.0,0.0,0.0,0.0,0.0,0.0,0.0,0.0,0.0,-5.9792,-5.9777,-5.9618,-5.9576,-5.9752,-5.9709,-6.0398,-6.1476,-6.1476,-6.2038,-6.3164,-6.2776,0.0,-6.2177,-5.9672,0.0,0.0,0.0,0.0,0.0,0.0,0.0,0.0,0.0,0.0,0.0,0.0,0.0,0.0,0.0,0.0,0.0,0.0,0.0,0.0,0.0,0.0,-4.3745,-4.3889,-4.4151,-4.4434,0.0,-4.7313,-4.898,-4.8844,0.0,0.0,0.0,0.0,0.0,0.0,0.0,0.0,-4.739,-4.8977,-5.0218,-5.0169,-5.2092,-5.2982,-5.1999,-5.1998,-5.1667,-5.0622,-5.0196,-5.0457,-5.1643,-5.128,0.0,0.0,0.0,0.0,0.0,0.0,0.0,0.0,0.0,0.0,0.0,0.0,0.0,0.0,0.0,0.0,0.0,0.0,0.0,0.0,0.0,0.0,0.0,0.0,0.0,0.0,0.0,0.0,0.0,0.0,0.0,0.0,0.0,0.0,0.0,0.0,0.0,0.0,0.0,0.0,0.0,0.0,0.0,0.0,0.0,0.0,0.0,0.0,0.0,0.0,-6.0882,-6.1551,-6.2861,-6.2861,-6.3022,-6.3111,-6.079,-5.9153,-5.7953,0.0,0.0,0.0,0.0,0.0,0.0,0.0,0.0,0.0,0.0,0.0,0.0,0.0,0.0,0.0,0.0,0.0,0.0,0.0,0.0,0.0,0.0,0.0,0.0,0.0,-4.9064,-4.9712,0.0,0.0,0.0,0.0,0.0,0.0,0.0,0.0,0.0,0.0,0.0,0.0,-4.894,-4.9772,-5.0475,-5.0524,-5.1485,-5.2064,-5.1943,-5.2762,-5.3209,-5.2736,-5.3119,-5.3455,0.0,0.0,0.0,0.0,0.0,0.0,0.0,0.0,0.0,0.0,0.0,0.0,0.0,0.0,0.0,0.0,0.0,0.0,0.0,0.0,0.0,0.0,0.0,0.0,0.0,0.0,0.0,0.0,0.0,0.0,0.0,0.0,0.0,0.0,0.0,0.0,0.0,0.0,0.0,0.0,0.0,0.0,0.0,0.0,0.0,0.0,0.0,0.0,0.0,0.0,0.0,0.0,0.0,0.0,0.0,0.0,0.0,0.0,0.0,-5.6359,0.0,0.0,0.0,0.0,0.0,0.0,0.0,0.0,0.0,0.0,0.0,0.0,0.0,0.0,0.0,0.0,0.0,0.0,0.0,0.0,0.0,0.0,0.0,0.0,0.0,0.0,0.0,0.0,0.0,0.0,0.0,0.0,0.0,0.0,0.0,0.0,0.0,0.0,0.0,0.0,-4.911,-5.0257,-5.1257,-5.1297,-5.2219,-5.2779,-5.2779,-5.3235,-5.3767,-5.448,-5.4516,0.0,0.0,0.0,0.0,0.0,0.0,0.0,0.0,0.0,0.0,0.0,0.0,0.0,0.0,0.0,0.0,0.0,0.0,0.0,0.0,0.0,0.0,0.0,0.0,0.0,0.0,0.0,0.0,0.0,0.0,0.0,0.0,0.0,0.0,0.0,0.0,0.0,0.0,0.0,0.0,0.0,0.0,0.0,0.0,0.0,0.0,0.0,0.0,0.0,0.0,0.0,0.0,0.0,0.0,0.0,0.0,0.0,0.0,0.0,-5.6177,0.0,0.0,0.0,0.0,0.0,0.0,0.0,0.0,0.0,0.0,0.0,0.0,0.0,0.0,0.0,0.0,0.0,0.0,0.0,0.0,0.0,0.0,0.0,0.0,0.0,0.0,0.0,0.0,0.0,0.0,0.0,0.0,0.0,0.0,0.0,0.0,0.0,0.0,0.0,0.0,0.0,-4.97,-5.1151,-5.2376,-5.2376,-5.3078,-5.363,-5.363,-5.363,-5.4155,-5.5333,0.0,0.0,0.0,0.0,0.0,0.0,0.0,0.0,0.0,0.0,0.0,0.0,0.0,0.0,0.0,0.0,0.0,0.0,0.0,0.0,0.0,0.0,0.0,0.0,0.0,0.0,0.0,0.0,0.0,0.0,0.0,0.0,0.0,0.0,0.0,0.0,0.0,0.0,0.0,0.0,0.0,0.0,0.0,0.0,0.0,0.0,0.0,0.0,0.0,0.0,0.0,0.0,0.0,0.0,0.0,0.0,0.0,0.0,0.0,0.0,0.0,0.0,0.0,0.0,0.0,0.0,0.0,0.0,0.0,0.0,0.0,0.0,0.0,0.0,0.0,0.0,0.0,0.0,0.0,0.0,0.0,0.0,0.0,0.0,0.0,0.0,0.0,0.0,0.0,0.0,0.0,0.0,0.0,0.0,0.0,0.0,0.0,0.0,0.0,0.0,0.0,0.0,-5.1945,-5.3033,-5.3826,-5.3826,-5.3728,-5.3531,-5.3334,-5.4117,-5.473,-5.4868,0.0,0.0,0.0,0.0,0.0,0.0,0.0,0.0,0.0,0.0,0.0,0.0,0.0,0.0,0.0,0.0,0.0,0.0,0.0,0.0,0.0,0.0,0.0,0.0,0.0,0.0,0.0,0.0,0.0,0.0,0.0,0.0,0.0,0.0,0.0,0.0,0.0,0.0,0.0,0.0,0.0,0.0,0.0,0.0,0.0,0.0,0.0,0.0,0.0,0.0,0.0,0.0,0.0,0.0,0.0,0.0,0.0,0.0,0.0,0.0,0.0,0.0,0.0,0.0,0.0,0.0,0.0,0.0,0.0,0.0,0.0,0.0,0.0,0.0,0.0,0.0,0.0,0.0,0.0,0.0,0.0,0.0,0.0,0.0,0.0,0.0,0.0,0.0,0.0,0.0,0.0,0.0,0.0,0.0,0.0,0.0,0.0,0.0,0.0,0.0,0.0,0.0,-5.203,-5.3033,-5.3962,-5.4575,-5.448,-5.4575,-5.5014,-5.5295,-5.5821,-5.6949,0.0,0.0,0.0,0.0,0.0,0.0,0.0,0.0,0.0,0.0,0.0,0.0,0.0,0.0,0.0,0.0,0.0,0.0,0.0,0.0,0.0,0.0,0.0,0.0,0.0,0.0,0.0,0.0,0.0,0.0,0.0,0.0,0.0,0.0,0.0,0.0,0.0,0.0,0.0,0.0,0.0,0.0,0.0,0.0,0.0,0.0,0.0,0.0,0.0,0.0,0.0,0.0,0.0,0.0,0.0,0.0,0.0,0.0,0.0,0.0,0.0,0.0,0.0,0.0,0.0,0.0,0.0,0.0,0.0,0.0,0.0,0.0,0.0,0.0,0.0,0.0,0.0,0.0,0.0,0.0,0.0,0.0,0.0,0.0,0.0,0.0,0.0,0.0,0.0,0.0,0.0,0.0,0.0,0.0,0.0,0.0,0.0,0.0,0.0,0.0,0.0,0.0,-5.214,-5.325,-5.4289,-5.4894,-5.5535,-5.6029,-5.6034,-5.6887,-5.749,-5.7722,0.0,0.0,0.0,0.0,0.0,0.0,0.0,0.0,0.0,0.0,0.0,0.0,0.0,0.0,0.0,0.0,0.0,0.0,0.0,0.0,0.0,0.0,0.0,0.0,0.0,0.0,0.0,0.0,0.0,0.0,0.0,0.0,0.0,0.0,0.0,0.0,0.0,0.0,0.0,0.0,0.0,0.0,0.0,0.0,0.0,0.0,0.0,0.0,0.0,0.0,0.0,0.0,0.0,0.0,0.0,0.0,0.0,0.0,0.0,0.0,0.0,0.0,0.0,0.0,0.0,0.0,0.0,0.0,0.0,0.0,0.0,0.0,0.0,0.0,0.0,0.0,0.0,0.0,0.0,0.0,0.0,0.0,0.0,0.0,0.0,0.0,0.0,0.0,0.0,0.0,0.0,0.0,0.0,0.0,0.0,0.0,0.0,0.0,0.0,0.0,0.0,0.0,-5.2874,-5.4092,-5.4988,-5.4988,-5.7003,-5.762,-5.6003,-5.8972,-5.9553,0.0,0.0,0.0,0.0,0.0,0.0,0.0,0.0,0.0,0.0,0.0,0.0,0.0,0.0,0.0,0.0,0.0,0.0,0.0,0.0,0.0,0.0,0.0,0.0,0.0,0.0,0.0,0.0,0.0,0.0,0.0,0.0,0.0,0.0,0.0,0.0,0.0,0.0,0.0,0.0,0.0,0.0,0.0,0.0,0.0,0.0,0.0,0.0,0.0,0.0,0.0,0.0,0.0,0.0,0.0,0.0,0.0,0.0,0.0,0.0,0.0,0.0,0.0,0.0,0.0,0.0,0.0,0.0,0.0,0.0,0.0,0.0,0.0,0.0,0.0,0.0,0.0,0.0,0.0,0.0,0.0,0.0,0.0,0.0,0.0,0.0,0.0,0.0,0.0,0.0,0.0,0.0,0.0,0.0,0.0,0.0,0.0,0.0,0.0,0.0,0.0,0.0,0.0,-5.3743,-5.5585,-5.6918,0.0,-5.8556,-5.9421,-5.9249,-6.0268,-6.0175,-5.8323,0.0,0.0,0.0,0.0,0.0,0.0,0.0,0.0,0.0,0.0,0.0,0.0,0.0,0.0,0.0,0.0,0.0,0.0,0.0,0.0,0.0,0.0,0.0,0.0,0.0,0.0,0.0,0.0,0.0,0.0,0.0,0.0,0.0,0.0,0.0,0.0,0.0,0.0,0.0,0.0,0.0,0.0,0.0,0.0,0.0,0.0,0.0,0.0,0.0,0.0,0.0,0.0,0.0,0.0,0.0,0.0,0.0,0.0,0.0,0.0,0.0,0.0,0.0,0.0,0.0,0.0,0.0,0.0,0.0,0.0,0.0,0.0,0.0,0.0,0.0,0.0,0.0,0.0,0.0,0.0,0.0,0.0,0.0,0.0,0.0,0.0,0.0,0.0,0.0,0.0,0.0,0.0,0.0,0.0,0.0,0.0,0.0,0.0,0.0,0.0,0.0,0.0,0.0,-5.6717,-5.7819,0.0,-5.941,-6.0302,-6.0051,-6.0595,-6.0135,-5.7875,0.0,0.0,0.0,0.0,0.0,0.0,0.0,0.0,0.0,0.0,0.0,0.0,0.0,0.0,0.0,0.0,0.0,0.0,0.0,0.0,0.0,0.0,0.0,0.0,0.0,0.0,0.0,0.0,0.0,0.0,0.0,0.0,0.0,0.0,0.0,0.0,0.0,0.0,0.0,0.0,0.0,0.0,0.0,0.0,0.0,0.0,0.0,0.0,0.0,0.0,0.0,0.0,0.0,0.0,0.0,0.0,0.0,0.0,0.0,0.0,0.0,0.0,0.0,0.0,0.0,0.0,0.0,0.0,0.0,0.0,0.0,0.0,0.0,0.0,0.0,0.0,0.0,0.0,0.0,0.0,0.0,0.0,0.0,0.0,0.0,0.0,0.0,0.0,0.0,0.0,0.0,0.0,0.0,0.0,0.0,0.0,0.0,0.0,0.0,0.0,0.0,0.0,0.0,-5.7695,-5.8062,-5.7999,-5.9754,-6.0306,-5.8969,-6.0316,-5.95,-5.5484,-5.5785,0.0,0.0,0.0,0.0,0.0,0.0,0.0,0.0,0.0,0.0,0.0,0.0,0.0,0.0,0.0,0.0,0.0,0.0,0.0,0.0,0.0,0.0,0.0,0.0,0.0,0.0,0.0,0.0,0.0,0.0,0.0,0.0,0.0,0.0,0.0,0.0,0.0,0.0,0.0,0.0,0.0,0.0,0.0,0.0,0.0,0.0,0.0,0.0,0.0,0.0,0.0,0.0,0.0,0.0,0.0,0.0,0.0,0.0,0.0,0.0,0.0,0.0,0.0,0.0,0.0,0.0,0.0,0.0,0.0,0.0,0.0,0.0,0.0,0.0,0.0,0.0,0.0,0.0,0.0,0.0,0.0,0.0,0.0,0.0,0.0,0.0,0.0,0.0,0.0,0.0,0.0,0.0,0.0,0.0,0.0,0.0,0.0,0.0,0.0,0.0,0.0,0.0,-5.863,-5.9658,-5.888,-6.0241,-6.0945,-6.037,-6.018,-5.911,-5.6832,-5.5805,0.0,0.0,0.0,0.0,0.0,0.0,0.0,0.0,0.0,0.0,0.0,0.0,0.0,0.0,0.0,0.0,0.0,0.0,0.0,0.0,0.0,0.0,0.0,0.0,0.0,0.0,0.0,0.0,0.0,0.0,0.0,0.0,0.0,0.0,0.0,0.0,0.0,0.0,0.0,0.0,0.0,0.0,0.0,0.0,0.0,0.0,0.0,0.0,0.0,0.0,0.0,0.0,0.0,0.0,0.0,0.0,0.0,0.0,0.0,0.0,0.0,0.0,0.0,0.0,0.0,0.0,0.0,0.0,0.0,0.0,0.0,0.0,0.0,0.0,0.0,0.0,0.0,0.0,0.0,0.0,0.0,0.0,0.0,0.0,0.0,0.0,0.0,0.0,0.0,0.0,0.0,0.0,0.0,0.0,0.0,0.0,0.0,0.0,0.0,0.0,0.0,0.0,-5.7425,-5.916,-5.9062,-5.9582,-5.9945,-5.986,-5.8848,-5.7657,-5.6241,-5.483,0.0,0.0,0.0,0.0,0.0,0.0,0.0,0.0,0.0,0.0,0.0,0.0,0.0,0.0,0.0,0.0,0.0,0.0,0.0,0.0,0.0,0.0,0.0,0.0,0.0,0.0,0.0,0.0,0.0,0.0,0.0,0.0,0.0,0.0,0.0,0.0,0.0,0.0,0.0,0.0,0.0,0.0,0.0,0.0,0.0,0.0,0.0,0.0,0.0,0.0,0.0,0.0,0.0,0.0,0.0,0.0,0.0,0.0,0.0,0.0,0.0,0.0,0.0,0.0,0.0,0.0,0.0,0.0,0.0,0.0,0.0,0.0,0.0,0.0,0.0,0.0,0.0,0.0,0.0,0.0,0.0,0.0,0.0,0.0,0.0,0.0,0.0,0.0,0.0,0.0,0.0,0.0,0.0,0.0,0.0,0.0,0.0,0.0,0.0,0.0,0.0,0.0,0.0,-5.7867,-5.8678,-5.8504,-5.8463,-5.8631,-5.7373,-5.6166,-5.5086,0.0,0.0,0.0,0.0,0.0,0.0,0.0,0.0,0.0,0.0,0.0,0.0,0.0,0.0,0.0,0.0,0.0,0.0,0.0,0.0,0.0,0.0,0.0,0.0,0.0,0.0,0.0,0.0,0.0,0.0,0.0,0.0,0.0,0.0,0.0,0.0,0.0,0.0,0.0,0.0,0.0,0.0,0.0,0.0,0.0,0.0,0.0,0.0,0.0,0.0,0.0,0.0,0.0,0.0,0.0,0.0,0.0,0.0,0.0,0.0,0.0,0.0,0.0,0.0,0.0,0.0,0.0,0.0,0.0,0.0,0.0,0.0,0.0,0.0,0.0,0.0,0.0,0.0,0.0,0.0,0.0,0.0,0.0,0.0,0.0,0.0,0.0,0.0,0.0,0.0,0.0,0.0,0.0,0.0,0.0,0.0,0.0,0.0,0.0,0.0,0.0,0.0,0.0,0.0,0.0,-5.6948,-5.7785,-5.8379,-5.8379,-5.7198,-5.608,-5.4934,0.0,0.0,0.0,0.0,0.0,0.0,0.0,0.0,0.0,0.0,0.0,0.0,0.0,0.0]}],[{"header":{"parameterUnit":"kt","parameterCategory":2,"dx":1,"dy":1,"la1":29.285339999999998,"la2":30.599998999999997,"lo1":-89.70041500000002,"lo2":-87.6738589999976,"nx":112,"ny":82,"refTime":"2022-09-30T06:00:00:Z","depth":0,"parameterNumber":2,"parameterNumberName":"V-component_of_WINDS"},"data":[11.7439,11.8029,0.0,11.4197,11.4861,11.5155,11.044,10.9703,10.9262,10.6598,10.5293,10.4334,10.3259,10.2258,10.1441,10.1499,10.022,9.9595,0.0,10.0507,10.0555,10.1208,10.1557,10.3356,10.755,10.8983,11.025,11.1869,11.3911,11.4615,0.0,0.0,11.2784,11.1236,10.9687,10.7434,10.4406,10.6448,10.647,10.4546,10.6646,10.6679,10.4915,10.4201,10.2928,10.1252,10.0292,9.9157,9.7744,9.7173,9.6205,9.5108,9.4916,9.4851,9.4851,9.4723,9.5045,9.5753,9.8135,9.9874,10.1162,10.1677,10.1806,10.1806,10.1806,10.1806,10.1806,10.1806,10.1806,10.1806,10.1806,10.1806,10.1806,10.1806,10.1806,10.1806,10.1806,10.1806,10.1806,10.1806,10.1806,10.1944,10.2155,10.2292,10.2429,10.27,10.3104,10.3894,10.5534,10.6788,10.8238,11.0211,11.1263,11.1197,10.9751,10.883,10.7449,10.5476,10.5805,10.5476,10.4096,10.403,10.403,10.403,10.403,10.403,10.403,10.403,10.403,10.403,10.403,10.4802,0.0,0.0,11.3019,10.9261,10.9924,11.0514,10.6756,10.683,10.7047,10.5141,10.4714,10.3835,10.1433,10.1832,10.1557,9.888,9.9437,10.0088,0.0,10.0974,10.2141,10.2328,10.2717,10.4539,10.8419,11.0539,0.0,0.0,11.4615,0.0,0.0,11.2714,11.1799,10.9757,10.7645,10.5603,10.3632,10.5181,10.5392,10.4406,10.5955,10.5999,10.4689,10.3847,10.2352,10.0287,9.9478,9.8062,9.6363,9.5991,9.5155,9.3872,9.3559,9.3433,9.3564,9.5561,9.627,9.6593,9.8978,10.0582,10.1806,10.1806,10.1806,10.1806,10.1806,10.1806,10.1806,10.1806,10.1806,10.1806,10.1806,10.1806,10.1806,10.1806,10.1806,10.1806,10.1806,10.1806,10.1806,10.1806,10.1806,10.1944,10.2082,10.2082,10.2155,10.2429,10.2836,10.376,10.5534,10.7248,10.883,11.0277,11.1658,11.2118,11.1197,10.9817,10.8436,10.6923,10.6857,10.6463,10.5476,10.4556,10.4227,10.4687,10.4227,10.403,10.403,10.4418,10.4546,10.4546,10.4225,10.5116,10.9482,10.683,10.3957,10.2262,10.1894,10.2409,10.3957,10.4325,10.4594,10.5236,10.4642,10.3318,10.1016,10.2173,10.1558,9.5528,9.96,0.0,0.0,10.0882,10.394,10.4477,10.5318,10.6628,0.0,11.1266,0.0,0.0,0.0,0.0,11.1517,11.1095,10.9687,10.68,10.3702,10.2013,10.2013,10.3562,10.4336,10.4336,10.5815,10.5815,10.4336,10.4266,10.2152,9.8653,9.8548,9.7323,9.5338,9.5043,9.48,9.4433,9.4061,9.375,9.3884,9.6918,9.8019,9.8278,9.9365,10.0647,10.1806,10.1806,10.1806,10.1806,10.1806,10.1806,10.1806,10.1806,10.1806,10.1806,10.1806,10.1806,10.1806,10.1806,10.1806,10.1806,10.1806,10.1806,10.1806,10.1806,10.1806,10.1806,10.1806,10.1806,10.2082,10.27,10.2836,10.3626,10.5737,10.7383,10.883,11.0211,11.1658,11.2513,11.2513,11.1263,10.9882,10.8501,10.837,10.8304,10.8304,10.5542,10.4687,10.6068,10.4753,10.403,10.403,10.5049,10.5727,10.5604,10.4675,10.4736,10.6167,10.5062,10.3957,10.2262,10.2778,10.3514,10.2778,10.3514,10.3932,10.2313,10.3466,0.0,0.0,0.0,10.2274,10.1232,0.0,10.281,10.2,10.47,10.7071,10.7826,11.0091,0.0,0.0,0.0,0.0,0.0,0.0,11.546,11.2996,10.9757,10.7575,10.673,10.3702,10.2013,10.2013,10.2506,10.2717,10.2717,10.3139,10.3069,10.2646,10.1837,10.0818,9.9742,9.8964,9.8125,9.7323,9.7213,9.7706,9.8305,9.7321,9.7501,9.8564,9.9646,9.997,10.0165,10.1192,10.1832,10.2082,10.1944,10.1806,10.1806,10.1806,10.1806,10.1806,10.1806,10.1806,10.1806,10.1806,10.1806,10.1806,10.1806,10.1806,10.1806,10.1806,10.1806,10.1806,10.1806,10.1806,10.1806,10.1806,10.1806,10.1944,10.2082,10.2292,10.2695,10.3691,10.6119,10.8161,10.883,11.1066,11.2513,11.2513,11.2184,11.1789,11.1395,10.9422,10.8304,10.8304,10.5542,10.4687,10.6068,10.4753,10.403,10.403,10.4355,10.4418,10.4546,10.6811,10.7625,10.2778,10.182,10.1009,10.0052,10.0567,10.1231,10.0936,10.2188,10.3327,10.3268,0.0,0.0,0.0,0.0,0.0,0.0,10.3605,10.4707,10.3817,10.7028,10.965,11.0128,0.0,0.0,0.0,0.0,0.0,0.0,11.5077,11.3867,11.0328,10.7975,10.6096,10.4829,10.2998,10.2013,10.2013,10.2013,10.2013,10.2013,10.2013,10.2013,10.2013,10.1395,10.076,10.0374,10.0332,9.9477,9.8474,9.9699,10.0272,10.0284,10.1392,10.2815,10.4121,10.3011,10.2517,10.2389,10.224,10.2155,10.2082,10.1944,10.1806,10.1806,10.1806,10.1806,10.1806,10.1806,10.1806,10.1806,10.1806,10.1806,10.1806,10.1806,10.1806,10.1806,10.1806,10.1806,10.1806,10.1806,10.1806,10.1806,10.1806,10.1806,10.1944,10.2082,10.2155,10.2429,10.2836,10.5584,10.7827,10.7965,11.0663,11.2513,11.2513,11.2513,11.2513,11.2513,11.1489,11.0639,11.0042,10.7707,10.6886,10.7629,10.6226,10.5491,10.5491,10.6039,10.6039,10.5548,10.8354,10.8921,9.9757,9.8136,9.6957,9.6957,9.6957,9.7473,9.9389,0.0,10.322,10.6093,0.0,10.739,10.7173,0.0,0.0,10.1733,10.5219,0.0,10.4563,10.8738,11.2178,11.2178,11.3332,0.0,0.0,11.7952,11.8019,11.434,11.4282,11.1969,10.6184,10.6172,10.5083,10.2262,10.2103,10.2013,10.2013,10.2013,10.2013,10.2013,10.2013,10.2154,10.2294,10.2154,10.1697,10.1124,10.2305,10.16,9.9718,10.2497,10.2694,10.1834,10.5853,10.8281,10.9139,10.6387,10.5357,10.4923,10.3305,10.2565,10.2429,10.2292,10.2292,10.2292,10.2292,10.2292,10.2292,10.2082,10.2082,10.2082,10.1944,10.1806,10.1806,10.1806,10.1806,10.1806,10.1806,10.1806,10.1806,10.1806,10.1806,10.1806,10.1806,10.1806,10.1944,10.2155,10.2155,10.2292,10.27,10.5584,10.755,10.7623,11.0523,11.2371,11.2371,11.2513,11.2513,11.2513,11.377,11.3773,11.2163,11.0929,11.015,10.9877,10.8444,10.7693,10.7693,10.8841,10.902,10.8058,10.9357,10.9289,9.8337,9.7252,9.6957,9.6957,9.6957,9.7768,0.0,0.0,0.0,10.6609,10.93,11.1171,10.9789,10.9129,0.0,10.9227,0.0,0.0,0.0,11.3209,0.0,11.5504,11.5724,0.0,11.6215,11.673,11.647,11.4959,11.3103,11.0963,10.8515,10.5482,10.3639,10.2998,10.2386,10.2013,10.2013,10.2013,10.2013,10.2013,10.2013,10.2717,10.3914,10.2646,10.3329,10.5462,10.4479,10.4455,10.5176,10.5806,10.6506,10.7388,10.8491,10.9183,10.9247,10.7739,10.7163,10.6929,10.6093,10.585,10.5604,10.5108,10.4982,10.4982,10.4982,10.4982,10.473,10.3767,10.3438,10.3172,10.222,10.1806,10.1806,10.1806,10.1806,10.1806,10.1806,10.1806,10.1806,10.1806,10.1806,10.1806,10.1806,10.1806,10.1806,10.1944,10.1944,10.2082,10.2292,10.4892,10.6849,10.7206,10.9813,11.1653,11.1653,11.1941,11.2085,11.2085,11.3633,11.3303,11.0621,11.2421,11.2334,10.9877,10.8444,10.7693,10.7693,10.9015,11.0201,11.0868,11.1214,11.0081,9.6494,9.6368,9.6957,9.6957,9.762,0.0,0.0,10.3809,10.6977,10.7788,11.0538,11.2696,11.2625,11.1462,11.0928,11.2518,11.2773,11.3278,11.4958,11.5944,11.6997,11.8692,11.7439,0.0,11.8692,11.8102,11.709,11.5883,11.1971,10.9283,10.8484,10.55,10.3658,10.3175,10.283,10.2473,10.2013,10.2013,10.2013,10.2013,10.2858,10.3632,10.4336,10.3562,10.4477,10.6659,10.5885,10.6026,10.6871,10.8349,10.9405,11.0109,11.0218,11.0294,11.0192,10.9031,10.8414,10.8122,10.7279,10.6811,10.6506,10.6026,10.5904,10.5904,10.585,10.5727,10.5604,10.4982,10.473,10.4603,10.4027,10.3767,10.3767,10.3767,10.3767,10.3767,10.3767,10.3305,10.277,10.277,10.3438,10.3767,10.3767,10.3767,10.3767,10.3767,10.3767,10.3897,10.4027,10.6665,10.8715,10.8848,11.1634,11.3496,11.3496,11.3287,11.3009,11.3009,11.3974,11.384,11.2365,11.4191,11.412,11.1965,11.1007,11.057,11.057,11.286,11.3534,11.2601,11.344,11.2003,9.502,9.5778,9.6957,9.6957,9.8283,0.0,10.0715,10.4399,10.823,11.0219,11.2428,11.4222,11.5172,11.3794,11.2911,11.4217,11.3866,11.4569,11.7817,11.7218,11.7365,12.0018,11.8029,0.0,12.0092,11.9134,11.766,11.6113,11.1409,10.8298,10.764,10.5723,10.4276,10.3736,10.3338,10.2915,10.228,10.2103,10.2013,10.2083,10.3632,10.4547,10.4829,10.4829,10.5815,10.7575,10.7293,10.7293,10.7786,11.0179,11.1165,11.1165,11.1165,11.1165,11.1067,11.0089,10.9603,10.9215,10.8122,10.7602,10.7374,10.7027,10.6978,10.6861,10.6692,10.6573,10.6454,10.6454,10.6334,10.6093,10.585,10.5727,10.5727,10.5727,10.5727,10.5727,10.5727,10.4857,10.4286,10.4476,10.5233,10.5727,10.5727,10.5727,10.5727,10.5727,10.5727,10.5727,10.5727,10.8525,11.0466,11.0466,11.3414,11.5494,11.5494,11.471,11.4377,11.431,11.4906,11.5162,11.4825,11.5957,11.5899,11.4369,11.4033,11.3981,11.3981,11.6797,11.6868,11.4474,11.5389,11.3823,9.4775,9.5778,9.6957,9.6957,9.8283,0.0,10.4988,10.8598,11.1913,11.5008,11.6933,11.7678,11.6501,11.6059,11.5995,11.6142,11.6133,11.6197,11.6629,11.6555,11.6555,11.6923,11.6629,0.0,11.6923,11.6776,11.6039,11.4492,11.2368,10.9877,10.7007,10.595,10.541,10.5275,10.397,10.3175,10.3081,10.2386,10.2013,10.2083,10.3632,10.5111,10.6448,10.6448,10.7997,11.0602,10.9194,10.9405,11.0743,11.1024,11.1165,11.1165,11.1165,11.1165,11.1165,11.1067,11.0968,11.0869,11.0568,11.0294,11.0294,11.0055,10.9742,10.953,10.953,10.9316,10.9278,10.9278,10.8371,10.7163,10.6093,10.5727,10.5727,10.5727,10.5727,10.5727,10.5727,10.5604,10.585,10.7046,10.6454,10.5727,10.5727,10.5727,10.5727,10.5727,10.5727,10.5727,10.5727,10.8275,11.0018,11.0018,11.283,11.4643,11.4643,11.4775,11.5037,11.523,11.688,11.7295,11.6079,11.7354,11.7223,11.5677,11.5569,11.56,11.56,11.7361,11.8065,11.7642,11.6445,11.4865,9.4876,9.6671,9.8537,9.8505,0.0,0.0,10.624,10.9998,11.3461,11.4787,11.6334,11.7218,11.6555,11.6408,11.6408,11.6408,11.6408,11.7071,11.8986,11.8397,11.8839,12.1786,11.9502,0.0,0.0,11.7513,11.5376,11.2798,11.2871,11.1177,10.6977,10.6446,10.6004,10.5543,10.4929,10.4351,10.3898,10.3164,10.3157,10.4079,10.5245,10.6519,10.7927,10.7927,10.9123,11.1095,10.9546,10.9757,11.1165,11.1165,11.1165,11.1165,11.1165,11.1165,11.1165,11.1165,11.1165,11.1165,11.1067,11.0968,11.0968,11.0669,11.0568,11.0364,11.0125,10.9916,10.9811,10.9599,10.9278,10.8662,10.8147,10.8035,10.8035,10.8035,10.8035,10.8035,10.8035,10.7463,10.7279,10.8551,10.8371,10.8035,10.8035,10.8035,10.8035,10.8035,10.8035,10.8035,10.8035,10.9883,11.1526,11.223,11.4282,11.6045,11.6935,11.6509,11.6384,11.6689,11.688,11.6851,11.6526,11.769,11.7734,11.6089,11.6907,11.722,11.722,11.8839,11.9543,11.9543,11.7009,11.5037,9.5984,0.0,0.0,0.0,0.0,0.0,10.792,11.1237,11.4259,11.4639,11.5597,11.6408,11.6408,11.6408,11.6555,11.6997,11.7071,11.8029,12.0902,12.0239,12.0755,12.4365,12.1639,0.0,0.0,0.0,0.0,0.0,11.2945,11.1619,10.764,10.6977,10.6446,10.5877,10.5682,10.5275,10.4714,10.397,10.4205,10.5601,10.6545,10.7716,10.8842,10.9264,11.0109,11.1095,10.9968,11.0109,11.1165,11.1165,11.1165,11.1165,11.1165,11.1165,11.1165,11.1165,11.1165,11.1165,11.1165,11.1165,11.1165,11.0968,11.0769,11.0638,11.0332,11.0125,10.9916,10.9811,10.9705,10.9599,10.9599,10.9599,10.9599,10.9599,10.9599,10.9599,10.9599,10.8882,10.8551,10.9493,10.9599,10.9599,10.9599,10.9599,10.9599,10.9599,10.9599,10.9599,10.9599,11.0987,11.2513,11.3969,11.5565,11.7091,11.8617,11.8103,11.7866,11.8152,11.7488,11.7247,11.7728,11.8548,11.8516,11.7472,11.8345,11.8839,11.8839,12.0036,12.0529,12.0529,11.8205,11.6093,0.0,0.0,0.0,10.3749,10.5765,10.7723,11.0898,11.3039,11.4677,11.6102,11.6408,11.6408,11.6408,11.6408,11.6923,11.8471,11.8692,11.9281,12.1049,12.127,12.127,12.1418,12.1344,0.0,0.0,0.0,0.0,0.0,11.2577,11.0882,10.9261,10.764,10.6683,10.6624,10.594,10.5543,10.5477,10.4714,10.4689,10.5601,10.7085,10.8213,10.8912,11.0391,11.1165,11.1165,11.1095,11.1165,11.1165,11.1165,11.1165,11.1165,11.1165,11.1165,11.1165,11.1165,11.1165,11.1165,11.1165,11.1165,11.1165,11.1165,11.0769,11.0536,11.0669,11.0229,10.9705,10.9916,10.9811,10.9599,10.9599,10.9599,10.9599,10.9599,10.9599,10.9599,10.9599,10.9599,10.9599,10.9599,10.9599,10.9599,10.9599,10.9599,10.9599,10.9599,10.9599,10.9599,10.9599,11.0987,11.2513,11.3969,11.5565,11.7091,11.8617,11.8756,11.8985,11.9619,11.966,11.9881,12.0422,12.0422,12.0422,12.0352,12.0352,12.0458,12.0458,12.0529,12.0529,12.0529,12.0458,11.8769,10.0547,10.3164,10.526,10.7426,11.083,11.3584,11.3584,11.4841,11.6112,11.657,11.6657,11.6595,11.6595,11.7481,11.844,11.8957,11.9788,12.1049,12.267,12.2891,12.326,12.4365,12.3554,12.2228,0.0,0.0,0.0,0.0,0.0,0.0,11.0882,11.0219,10.9924,10.9924,10.8713,10.7488,10.6325,10.6565,10.7394,10.87,10.9754,11.067,11.1358,11.1856,11.1767,11.1165,11.1165,11.1165,11.1165,11.1165,11.1165,11.1165,11.1165,11.1165,11.1165,11.1165,11.1165,11.1165,11.1165,11.1165,11.1165,11.1165,11.1067,11.0869,11.0769,11.0638,11.0434,11.0125,10.9916,10.9811,10.9705,10.9599,10.9599,10.9599,10.9599,10.9599,10.9599,10.9599,10.9599,10.9599,10.9599,10.9599,10.9599,10.9599,10.9599,10.9599,10.9599,10.9599,10.9599,11.0085,11.1333,11.39,11.4594,11.5981,11.8548,11.8756,11.8985,11.973,11.973,12.006,12.0422,12.0529,12.0529,12.0529,12.0529,12.0529,12.0529,12.0529,12.0529,12.0529,12.0529,11.9402,10.2448,10.5317,10.8009,11.0773,11.3829,11.605,11.5549,11.6215,11.6807,11.6157,11.6394,11.6496,11.5979,11.7678,11.9315,11.9905,12.1254,12.2744,12.4291,12.4586,12.4954,12.6059,12.4659,12.3039,0.0,0.0,0.0,0.0,0.0,11.3608,11.2503,11.1913,11.1545,11.1545,11.0072,10.8745,10.764,10.7511,10.8372,11.0218,11.0809,11.1557,11.2594,11.2594,11.2047,11.1165,11.1861,11.1955,11.1673,11.1673,11.1457,11.1165,11.1165,11.1165,11.1165,11.1165,11.1165,11.1165,11.1165,11.1165,11.1165,11.1165,11.1067,11.0968,11.0968,11.0769,11.0466,11.0229,11.0021,10.9811,10.9705,10.9599,10.9599,10.9599,10.9599,10.9599,10.9599,10.9599,10.9599,10.9599,10.9599,10.9599,10.9599,10.9599,10.9599,10.9599,10.9599,10.9599,10.9599,10.9599,11.057,11.3068,11.3941,11.526,11.7829,11.8524,11.9213,11.9841,11.9841,12.006,12.0422,12.0529,12.0529,12.0529,12.0529,12.0529,12.0529,12.0529,12.0529,12.0529,12.0529,11.9684,10.4021,10.6531,10.8877,11.3806,11.4939,11.5404,11.6905,11.7128,11.6626,11.4882,11.5639,11.6231,11.4808,11.7059,11.9746,12.1297,12.2729,12.4217,12.5912,12.6059,12.6059,12.6059,12.4586,12.2891,0.0,0.0,0.0,0.0,11.5008,11.4197,11.4197,11.2724,11.184,11.184,11.0293,10.9482,10.9482,10.7861,10.8088,11.0434,11.0507,11.1309,11.2611,11.2611,11.2232,11.1457,11.3134,11.3389,11.2683,11.2683,11.214,11.136,11.136,11.136,11.136,11.1263,11.1263,11.1263,11.1165,11.1165,11.1165,11.1165,11.0968,11.0869,11.1067,11.0669,11.0125,11.0434,11.0125,10.9599,10.9599,10.9599,10.9599,10.9599,10.9599,10.9599,10.9599,10.9599,10.9599,10.9599,10.9599,10.9599,10.9599,10.9599,10.9599,10.9599,10.9599,10.9599,10.9599,10.9599,11.0224,11.175,11.3534,11.5213,11.6706,11.8238,11.9368,11.999,11.9951,11.9951,12.0422,12.0529,12.0529,12.0529,12.0529,12.0529,12.0529,12.0529,12.0529,12.0529,12.0529,11.9754,10.4798,11.0096,11.3583,11.6161,11.7647,11.826,11.7518,11.6404,11.5365,11.4865,11.4978,11.5236,11.5158,11.7767,12.0337,12.1665,12.306,12.4491,12.6041,12.5095,12.4291,12.4291,12.2891,12.127,0.0,0.0,0.0,0.0,11.6039,11.5818,11.5818,11.545,11.5155,11.5155,11.3682,11.2871,11.2871,11.1177,11.1263,11.3136,11.4312,11.4726,11.4439,11.4439,11.3971,11.322,11.372,11.3802,11.3556,11.3556,11.3473,11.322,11.322,11.322,11.3134,11.2433,11.2232,11.214,11.1457,11.1165,11.1165,11.1165,11.1165,11.1067,11.1165,11.1067,11.0869,11.0669,11.0536,11.0229,11.0021,10.9811,10.9599,10.9599,10.9599,10.9599,10.9599,10.9599,10.9599,10.9599,10.9599,10.9599,10.9599,10.9599,10.9599,10.9599,10.9599,10.9599,10.9599,10.9811,11.0542,11.2073,11.288,11.4312,11.7035,11.7374,11.8071,11.9771,11.9841,11.9951,12.0207,12.0422,12.0529,12.0529,12.0529,12.0529,12.0529,12.0529,12.0529,12.0529,12.0529,12.0317,10.5194,11.1327,11.5545,11.6351,11.7791,11.876,11.7866,11.6172,11.493,11.5349,11.5321,11.5367,11.5638,11.8294,12.0663,12.1347,12.2513,12.3503,12.4392,12.3567,12.2794,12.2729,12.1327,11.9935,0.0,0.0,0.0,0.0,11.6408,11.6408,11.6408,11.6408,11.6408,11.6408,11.4934,11.4124,11.4124,11.2429,11.2061,11.3019,11.4639,11.5284,11.5105,11.5105,11.4668,11.3939,11.3939,11.4156,11.4435,11.4435,11.4201,11.3883,11.3883,11.3883,11.3883,11.3305,11.3134,11.3049,11.2522,11.2342,11.2342,11.2342,11.2342,11.2342,11.2342,11.2047,11.1578,11.1386,11.0968,11.0364,11.0229,11.0021,10.9811,10.9811,10.9705,10.9599,10.9599,10.9599,10.9599,10.9599,10.9599,10.9599,10.9599,10.9599,10.9599,10.9599,10.9599,10.9599,10.9599,10.9811,11.0369,11.1205,11.2321,11.3929,11.638,11.6934,11.8092,11.992,12.006,12.006,12.0315,12.0422,12.0529,12.0529,12.0529,12.0529,12.0529,12.0529,12.0529,12.0529,12.0529,12.0529,10.5495,11.1043,11.5195,11.548,11.6817,11.8089,11.8089,11.6497,11.5255,11.5913,11.6092,11.6201,11.6427,11.8653,12.057,12.0681,12.1485,12.2067,12.2067,12.1565,12.1072,12.067,11.9338,11.8182,0.0,0.0,0.0,0.0,11.5745,11.5745,11.5745,11.5745,11.5745,11.5745,11.4492,11.3755,11.3755,11.2282,11.1545,11.1619,11.3092,11.4027,11.4663,11.5029,11.4863,11.4124,11.4271,11.4762,11.5248,11.5248,11.4886,11.428,11.428,11.428,11.4201,11.4123,11.4043,11.4043,11.3963,11.3883,11.3883,11.3883,11.3883,11.3883,11.3883,11.322,11.2433,11.2433,11.1602,11.0799,11.0799,11.0568,11.0262,11.0159,11.0159,11.0055,11.0055,10.9951,10.9916,10.9916,10.9811,10.9705,10.9775,10.9705,10.9705,10.9636,10.9636,10.9636,10.9705,10.9916,11.0125,11.0125,11.1726,11.3537,11.5152,11.6592,11.8241,12.0,12.0137,12.0207,12.0422,12.0529,12.0529,12.0529,12.0529,12.0529,12.0529,12.0529,12.0529,12.0529,12.0529,12.0529,10.6425,10.957,11.1269,11.5009,11.719,11.8467,11.8467,11.7152,11.5875,11.6022,11.6289,11.6994,11.8353,11.9079,11.9743,12.0684,12.0942,12.1002,12.0959,11.963,11.8119,11.6683,11.5051,11.3843,0.0,0.0,0.0,0.0,0.0,11.2429,11.2429,11.2429,11.2429,11.2429,11.2135,11.1987,11.1987,11.1692,11.1545,11.1545,11.184,11.2073,11.2243,11.4965,11.5397,11.4197,11.545,11.6123,11.6142,11.6142,11.6076,11.6011,11.6011,11.6011,11.5944,11.5105,11.4886,11.4813,11.4123,11.3883,11.3883,11.3883,11.3883,11.3883,11.3883,11.3802,11.3638,11.3638,11.3233,11.2977,11.2977,11.2181,11.1412,11.1219,11.1742,11.2397,11.2397,11.1648,11.1024,11.1024,11.0466,10.9916,11.016,11.0195,11.0089,10.974,10.9671,10.9637,10.9638,11.0192,11.0568,11.0434,11.105,11.2122,11.3669,11.5082,11.6521,11.8171,11.9398,12.0099,12.0207,12.0422,12.0529,12.0529,12.0529,12.0529,12.0529,12.0529,12.0529,12.0529,12.0529,12.0529,10.433,10.7563,11.0492,11.4356,11.7088,11.8851,11.8851,11.7364,11.616,11.6569,11.6798,11.7419,11.9159,11.8781,11.8584,12.0097,11.9291,11.8636,11.8602,11.6888,11.5348,11.4445,11.3608,11.2945,11.2719,0.0,0.0,0.0,0.0,11.19,11.19,11.1665,11.1545,11.1545,11.1545,11.1545,11.1545,11.1545,11.1545,11.1545,11.1545,11.2061,11.2871,11.184,11.1913,11.2798,11.3534,11.4861,11.6408,11.6408,11.6408,11.6408,11.6408,11.6408,11.6408,11.5944,11.5737,11.5737,11.5392,11.525,11.525,11.525,11.525,11.525,11.525,11.4886,11.4511,11.4511,11.4201,11.372,11.372,11.3148,11.2628,11.254,11.2905,11.3173,11.2933,11.2573,11.22,11.22,11.1834,11.1555,11.1626,11.1977,11.1869,11.0606,10.9913,10.9773,11.0019,11.0466,11.0769,11.0568,11.0968,11.1799,11.3418,11.4091,11.5466,11.7855,11.8699,11.9472,12.0315,12.142,12.1966,12.1966,12.1449,12.1218,12.1218,12.0669,12.0529,12.0529,12.0529,12.0529,10.3015,10.6499,11.0665,11.4301,11.676,11.8285,11.8663,11.772,11.7012,11.7653,11.7482,11.771,11.9452,11.8013,11.7255,11.8922,11.7495,11.6069,11.5691,11.4296,11.3073,11.2522,11.2345,11.2231,11.2027,0.0,0.0,0.0,0.0,0.0,11.1069,11.075,11.0514,11.0514,11.0514,11.0514,11.0514,11.0514,11.0514,0.0,11.0514,11.1619,11.3387,10.9187,10.904,11.2135,11.2135,11.3387,11.5376,11.5745,11.5892,11.5892,11.5892,11.5892,11.5892,11.5892,11.5892,11.5966,11.6334,11.6408,11.6408,11.6408,11.6408,11.6408,11.6408,11.5944,11.5318,11.5318,11.4886,11.4435,11.4435,11.4201,11.3891,11.405,11.4129,11.405,11.3747,11.3504,11.3268,11.3268,11.3101,11.3089,11.3089,11.3806,11.3889,11.2021,11.0743,11.0082,11.0223,11.0629,11.0963,11.1174,11.1507,11.2263,11.3538,11.3963,11.5167,11.7547,11.8425,11.9346,12.0519,12.1959,12.291,12.3271,12.2553,12.2062,12.1869,12.1117,12.074,12.0529,12.0529,12.0529,10.559,10.8317,11.0968,11.574,11.6025,11.5495,11.701,11.843,11.9414,11.9528,11.8316,11.771,11.9452,11.7104,11.5437,11.7179,11.595,11.4359,11.2769,11.2448,11.1634,11.0016,10.9673,10.9459,10.9041,0.0,0.0,0.0,0.0,0.0,0.0,10.7354,10.7198,10.7198,10.7198,10.7198,10.7198,10.7198,10.7198,10.7198,10.7198,10.8819,11.1766,10.9851,11.0808,11.3829,11.3829,11.3166,11.2135,11.3682,11.4271,11.4271,11.4271,11.4271,11.4271,11.4271,11.4271,11.4492,11.5966,11.6408,11.6408,11.6408,11.6408,11.6408,11.6408,11.6408,11.6344,11.6344,11.628,11.6215,11.6215,11.56,11.5177,11.6011,11.6142,11.6142,11.6142,11.5318,11.4518,11.4518,11.3899,11.3484,11.3484,11.5029,11.5616,11.3927,11.2177,11.0707,10.981,11.0563,11.1365,11.2143,11.3041,11.371,11.3854,11.5152,11.616,11.6449,11.9115,12.0684,12.0828,12.1004,12.1827,12.3199,12.3183,12.2736,12.1869,12.1772,12.132,12.0529,12.0529,12.0529,10.0364,10.3924,10.7711,11.1726,11.2938,11.3847,11.6574,11.6952,11.6952,11.8013,11.6877,11.6195,11.7937,11.6271,11.4907,11.5589,11.4301,11.2938,11.2256,11.1236,11.0272,10.953,10.9271,10.9082,10.8933,0.0,0.0,0.0,0.0,0.0,0.0,10.7076,10.6756,10.6756,10.6756,10.6756,10.6756,10.6756,10.6756,10.6756,10.6756,10.7935,11.0145,10.8451,10.8966,11.1177,11.1177,11.0808,11.0293,11.1913,11.3166,11.3976,11.2945,11.2577,11.2724,11.3755,11.4124,11.4345,11.5892,11.6408,11.6408,11.6408,11.6408,11.6408,11.6408,11.6408,11.6408,11.6408,11.6408,11.6408,11.6408,11.6142,11.6011,11.6344,11.6408,11.6408,11.6408,11.6076,11.5737,11.5737,11.5531,11.5248,11.5248,11.5907,11.6193,11.5538,11.4787,11.3441,11.0882,11.0891,11.1549,11.2557,11.308,11.3522,11.3883,11.4461,11.5255,11.6194,11.7338,11.8555,11.956,12.1534,12.285,12.3435,12.392,12.4024,12.3603,12.3006,12.2461,12.2157,12.2157,12.1656,9.6652,10.0515,10.4833,10.8241,11.0287,11.2332,11.5665,11.5134,11.468,11.7407,11.6195,11.521,11.6877,11.5059,11.3392,11.3847,11.2559,11.1423,11.1423,11.0291,10.9454,10.9412,10.9219,10.9024,10.8994,0.0,0.0,0.0,0.0,0.0,0.0,10.7421,10.7076,10.7076,10.6966,10.6911,10.6911,10.674,10.6756,10.6756,10.6756,10.7404,10.8683,10.7944,10.8199,10.9261,10.9261,10.9261,10.9261,10.9851,11.1103,11.2503,11.1324,11.0882,11.1103,11.2724,11.3313,11.3608,11.5671,11.6408,11.6408,11.6408,11.6408,11.6408,11.6408,11.6408,11.6408,11.6408,11.6408,11.6408,11.6408,11.6408,11.6408,11.6408,11.6408,11.6408,11.6408,11.6408,11.6408,11.6408,11.6039,11.5892,11.6334,11.5871,11.5678,11.6333,11.6419,11.5538,11.3059,11.2769,11.3059,11.3861,11.3934,11.4151,11.4663,11.4663,11.5172,11.6186,11.6695,11.7514,11.8765,12.0976,12.2449,12.2965,12.3438,12.3655,12.3353,12.2571,12.2155,12.1899,12.1899,12.1235,9.6349,9.9682,10.3091,10.6499,10.862,11.0665,11.3998,11.3392,11.3619,11.8694,11.7028,11.521,11.6877,11.3165,11.0362,11.1953,11.0893,10.9832,10.9832,10.961,10.9412,10.9295,10.9139,10.8994,10.8878,0.0,0.0,0.0,0.0,0.0,0.0,10.8033,10.7854,10.7854,10.7472,10.7268,10.7268,10.6911,10.6756,10.6756,10.6756,10.6911,10.7342,10.8899,10.9498,10.9261,10.9261,10.9261,10.9114,10.7493,10.7788,10.9261,10.9261,10.9261,10.9482,11.1029,11.1619,11.2061,11.5303,11.6408,11.6408,11.6408,11.6408,11.6408,11.6408,11.6408,11.6408,11.6408,11.6408,11.6408,11.6408,11.6408,11.6408,11.6408,11.6408,11.6408,11.6408,11.6408,11.6408,11.6408,11.5155,11.4566,11.6187,11.4639,11.3914,11.6113,11.6408,11.6408,11.6408,11.6408,11.6408,11.6408,11.6408,11.6408,11.6408,11.6408,11.6408,11.6408,11.7881,11.8765,11.8765,11.8765,11.9576,12.127,12.1344,12.0864,11.992,11.9993,11.9456,11.8637,11.8637,11.8637,9.438,9.8016,10.1576,10.6196,10.6802,10.7257,11.059,11.2635,11.4301,11.5968,11.6346,11.5892,11.4074,11.2483,11.1196,11.0665,11.0135,10.9832,10.9832,10.961,10.9412,10.9295,10.9139,10.8994,10.8878,0.0,0.0,0.0,0.0,0.0,0.0,10.8107,10.7854,10.7854,10.7761,10.7667,10.7667,10.757,10.7472,10.7472,10.7472,10.757,10.7667,10.8188,10.8437,10.8289,10.8289,10.8289,10.8289,10.762,10.71,10.6506,10.5318,10.4748,10.4911,10.7594,10.8461,10.8745,11.1987,11.3092,11.3313,11.4418,11.4861,11.5008,11.6113,11.6408,11.6408,11.6408,11.6408,11.6176,11.5299,11.5935,11.6763,11.6533,11.6408,11.6408,11.6408,11.6408,11.6408,11.6408,11.6039,11.5524,11.4934,11.5155,11.5155,11.4345,11.545,11.6408,11.6408,11.6408,11.6408,11.6408,11.6408,11.6408,11.6408,11.6408,11.6408,11.6408,11.5892,11.5597,11.5597,11.6629,11.7439,11.7955,12.0165,12.0548,11.917,12.0346,12.0721,12.0437,12.0437,11.9778,9.2335,9.5819,9.8925,10.3318,10.3621,10.3924,10.7938,11.0438,11.2256,11.3468,11.5059,11.5437,11.2635,11.165,11.0968,10.9984,10.9832,10.9832,10.9832,10.961,10.9412,10.9295,10.9139,10.8994,10.8878,0.0,0.0,0.0,0.0,0.0,10.8632,10.8366,10.8245,10.8245,10.8119,10.8151,10.8151,10.7974,10.7989,10.8245,10.8245,10.8161,10.8076,10.7435,10.7093,10.6885,10.6289,10.599,10.599,10.5871,10.5275,10.4306,10.3263,10.3128,10.3832,10.6506,10.7765,10.8443,11.1107,11.207,11.2218,11.3254,11.3624,11.3772,11.4734,11.5031,11.5031,11.5031,11.5475,11.5606,11.4197,11.4602,11.5365,11.5088,11.5475,11.5919,11.5919,11.632,11.6644,11.6644,11.5501,11.4492,11.4124,11.3903,11.3608,11.3178,11.4345,11.545,11.6334,11.6408,11.6408,11.6408,11.6408,11.6408,11.6408,11.6408,11.6187,11.5597,11.4407,11.3891,11.405,11.5008,11.5818,11.6408,11.8397,11.8913,11.7881,11.8913,11.9428,11.9428,11.9428,11.8913,9.0351,9.3471,9.5668,9.8925,9.9909,10.1333,10.6028,10.7164,10.8166,11.1347,11.3258,11.3864,11.2256,11.0833,10.9849,10.9832,10.9832,10.9832,10.9832,10.961,10.9412,10.922,10.9166,10.8994,10.8912,10.8878,0.0,0.0,0.0,0.0,10.8878,10.8878,10.8878,10.8878,10.8632,10.848,10.848,10.8194,10.8245,10.8878,10.8728,10.8591,10.8255,10.6607,10.5586,10.514,10.3574,10.2903,10.2903,10.2829,10.2754,10.2754,10.2605,10.35,10.514,10.6736,10.845,11.0117,11.1831,11.2353,11.2427,11.2502,11.2576,11.2576,11.2725,11.2725,11.2725,11.2725,11.3742,11.4461,11.2997,11.2699,11.2773,11.2725,11.3843,11.4886,11.4886,11.5896,11.6739,11.6739,11.3953,11.2108,11.3583,11.1444,11.0264,11.2564,11.308,11.3903,11.5955,11.6323,11.6408,11.6408,11.6408,11.6471,11.6471,11.6471,11.566,11.3731,11.3348,11.3496,11.4026,11.4173,11.4837,11.6312,11.6459,11.6459,11.6386,11.6459,11.6533,11.6533,11.6533,11.6533,8.9426,9.2394,9.5513,9.8909,10.1603,10.3744,10.4955,10.6297,10.7863,10.9908,11.0667,11.0846,11.0455,11.0061,10.9861,10.9849,10.9832,10.9832,10.9832,10.961,10.9454,10.9412,10.9295,10.9166,10.9024,10.8994,0.0,0.0,0.0,0.0,10.8878,10.8878,10.8878,10.8878,10.8811,10.8776,10.8776,10.8705,10.8666,10.8878,10.7675,10.7041,10.6898,10.5245,10.4385,10.4241,10.3866,10.3716,10.3641,10.229,10.1764,10.1689,10.0339,10.0113,10.0755,10.3421,10.5313,10.6736,10.845,10.9046,10.927,11.0416,11.0788,11.1012,11.2353,11.2725,11.2725,11.2725,11.254,11.212,11.1429,11.2209,11.3095,11.2821,11.3023,11.3247,11.3247,11.357,11.3694,11.3694,11.3048,11.2179,11.1287,11.1585,11.1733,11.099,11.2531,11.3715,11.3584,11.5254,11.6459,11.6459,11.6448,11.6435,11.6435,11.6435,11.4175,10.8758,11.1808,11.3792,11.3941,11.461,11.5205,11.5525,11.6714,11.6714,11.5525,11.6714,11.7309,11.7309,11.7309,11.7309,8.8884,9.2002,9.5026,9.6822,9.9772,10.2212,10.2284,10.3652,10.545,10.7167,10.8119,10.8895,10.9692,10.9797,10.9806,10.9844,10.9833,10.9833,10.9833,10.9722,10.9592,10.9501,0.0,10.9244,10.9144,10.9054,0.0,0.0,0.0,0.0,10.8878,10.8878,10.8878,10.8878,10.8878,10.8878,10.8878,10.8127,10.7826,10.7751,10.6096,10.5344,10.5269,10.3615,10.2788,10.2788,0.0,10.166,10.1585,10.0682,10.0307,10.0231,9.9329,9.8953,9.9223,10.1648,10.3459,10.5107,10.7502,10.8326,10.8476,10.9374,10.9558,10.9782,11.068,11.098,11.098,11.098,11.0583,11.0198,10.9945,11.0583,11.122,11.1021,11.1578,11.2102,11.2102,11.2572,11.3006,11.3006,11.2271,11.1086,10.9596,11.0043,10.9819,10.724,11.0594,11.1705,10.6994,11.2289,11.533,11.2347,11.4662,11.6478,11.6424,11.5033,11.2692,10.9203,10.9968,11.1581,11.379,11.4786,11.5606,11.6351,11.7171,11.7171,11.6351,11.7171,11.7618,11.7618,11.7618,11.7618,8.8634,9.1859,9.4501,9.4727,9.7177,9.9507,9.9546,10.0786,10.2369,10.4006,10.576,10.743,10.9097,10.9632,10.9784,10.9476,10.9628,10.9856,10.9856,10.9841,10.9745,10.9662,10.9577,10.9419,10.9282,10.9118,0.0,0.0,0.0,10.8933,10.8869,10.8869,10.8912,10.8878,10.8878,10.8761,10.8587,10.6944,10.616,10.616,10.4399,10.3615,10.354,10.1886,10.1058,0.0,0.0,9.8953,9.8953,9.8953,9.8953,9.8953,9.8953,9.8953,9.9179,10.1134,10.2788,10.4442,10.7751,10.8878,10.8878,10.8878,10.8878,10.8878,10.8878,10.8878,10.8878,10.8878,10.8878,10.8878,10.8878,10.8878,10.8878,10.8878,10.9931,11.0984,11.0984,11.1896,11.26,11.26,11.1194,10.9631,10.8541,10.8362,10.7317,10.4202,10.872,10.9494,10.1502,10.9149,11.2821,10.6232,11.131,11.5302,11.5255,11.2773,11.1208,11.1152,10.8586,10.9332,11.4425,11.5396,11.6395,11.7765,11.7765,11.7765,11.7765,11.7765,11.7765,11.7765,11.7765,11.7765,8.9082,9.167,9.4499,9.5928,9.7921,9.9542,9.9559,9.9886,10.0737,10.2336,10.41,10.5772,10.743,10.8884,10.9341,10.7886,10.8869,10.9856,10.9856,10.9745,10.9712,10.9752,10.9681,10.9606,10.9606,10.9501,0.0,0.0,0.0,10.9282,10.9219,10.9219,10.9082,10.8878,10.8878,10.83,10.7225,10.5467,10.4514,10.4514,10.2684,10.1886,10.181,10.0081,9.9329,0.0,0.0,0.0,9.8953,9.8953,9.8953,9.8953,9.8953,9.8953,9.9329,10.2487,10.3765,10.4442,10.7751,10.8878,10.8878,10.8878,10.8878,10.8878,10.8878,10.8878,10.8878,10.8878,10.8878,10.8878,10.8878,10.8878,10.8878,10.8878,10.9029,10.9254,10.9254,10.9371,10.9562,10.9562,10.9302,10.8966,10.8816,10.8741,10.8591,10.8065,10.9718,11.019,10.7638,10.8884,10.7463,10.0814,10.6048,11.0033,11.0033,10.954,10.924,10.9231,10.8816,11.1405,11.7715,11.8166,11.8354,11.8578,11.8578,11.8578,11.8578,11.8578,11.8578,11.8578,11.8578,11.8578,9.0237,9.2241,9.4066,9.3915,9.6742,9.9524,9.9546,9.9713,10.038,10.2049,10.3023,10.4385,10.6905,10.8034,10.8333,10.7512,10.8044,10.8272,10.7284,10.7974,10.8808,10.9794,10.978,10.9654,0.0,10.9594,10.9516,0.0,0.0,10.9419,10.9324,10.9324,10.9282,10.9169,10.8238,10.7046,10.5574,10.3896,10.3025,10.3025,10.1258,10.0383,10.0383,9.9627,9.9181,0.0,0.0,0.0,9.8953,9.9127,9.9099,9.8953,9.8953,9.8953,9.9254,10.1735,10.2637,10.3089,10.6472,10.76,10.7751,10.8578,10.8878,10.8878,10.8878,10.8978,10.9069,10.9144,10.9144,10.9044,10.9036,10.9082,10.9024,10.8912,10.8878,10.8878,10.8878,10.8878,10.8878,10.8878,10.8878,10.8878,10.8878,10.8878,10.76,10.4076,10.7014,10.9531,10.893,10.8857,10.6307,9.9676,10.4846,10.882,10.8857,10.8818,10.8857,10.8836,10.8878,11.1093,11.5941,11.5565,11.5907,11.745,11.8353,11.8804,11.8804,11.8804,11.8804,11.8804,11.8804,11.8804,9.1509,0.0,9.399,9.3445,9.6411,9.9499,0.0,9.9754,10.0297,10.1549,10.2141,10.3355,10.6315,10.7226,10.7529,10.7529,10.7833,10.7377,10.5252,10.6785,10.8462,10.9358,10.9263,10.9107,10.9107,10.9434,10.9594,0.0,0.0,10.9558,10.9516,10.9516,10.9274,10.8847,10.7029,10.5387,10.3934,10.2316,10.1544,10.1469,10.0152,9.9531,9.9531,9.9531,0.0,0.0,0.0,0.0,9.9105,9.9303,9.928,9.9079,9.9079,9.9305,9.9832,10.1113,10.1894,10.2647,10.5558,10.6613,10.6839,10.8421,10.8949,10.8949,10.8949,10.9117,10.9302,10.9378,10.9378,10.9268,10.926,10.9291,10.9244,10.9036,10.8978,10.9024,10.8964,10.8933,10.8826,10.8352,10.8352,10.8127,10.745,10.7525,10.5946,10.0888,10.4668,10.774,10.6655,10.7923,10.6311,9.9654,10.3465,10.6568,10.6505,10.6554,10.7169,10.8734,10.8827,11.0109,11.2746,11.2445,11.3243,11.5504,11.7312,11.8292,11.8292,11.8678,11.887,11.887,11.8765,11.8804,0.0,9.399,9.4771,9.7846,9.9072,9.9561,9.9697,9.985,0.0,10.0092,10.1382,10.2976,10.4797,10.6391,10.7529,10.7529,10.8819,10.8667,10.5404,10.7757,10.9282,10.7861,10.7661,10.7669,10.7669,10.9037,10.9947,0.0,0.0,0.0,10.9797,10.9721,10.8836,10.7181,10.4819,10.3341,10.2582,10.0802,9.9933,9.9857,9.9676,9.9531,9.9531,9.9531,0.0,0.0,0.0,0.0,0.0,9.9499,9.9499,9.9499,9.9499,10.0408,10.1847,10.1981,10.2966,10.4556,10.6297,10.6903,10.713,10.8889,10.9419,10.9419,10.9419,10.9436,10.9378,10.9453,10.9453,10.9453,10.9436,10.9436,10.9453,10.9394,10.9378,10.9382,10.9216,10.922,10.8714,10.6988,10.6698,10.5871,10.3207,10.3615,10.4217,10.369,10.485,10.4292,10.0169,10.5032,10.6311,9.9654,9.9417,9.9674,9.9611,9.968,10.2267,10.8435,10.8889,10.9116,10.9722,11.1539,11.2656,11.2808,11.5533,11.6972,11.6972,11.8436,11.9136,11.9136,11.8904,11.8804,9.0456,9.3238,9.572,9.5928,9.7782,9.9512,9.9561,9.9768,9.9897,9.9885,10.0403,10.1382,10.3052,10.4797,10.5935,10.5935,10.7301,10.7605,10.5328,10.6998,10.822,10.7544,10.8399,10.9097,10.9033,10.9642,11.0023,0.0,0.0,0.0,10.9939,10.9939,10.811,10.4218,10.3642,10.2583,10.0913,10.015,9.9841,9.9841,9.9826,9.9739,9.9739,9.9739,0.0,0.0,0.0,0.0,0.0,9.9625,9.9613,9.9531,9.9531,9.9909,10.0591,10.1636,10.1787,10.1803,10.4438,10.5422,10.5742,10.7332,10.8544,10.9453,10.9453,10.9594,10.9835,10.9835,10.9835,10.9828,10.9844,10.9822,10.981,10.9577,10.9546,10.9226,10.8056,10.7793,10.7301,10.5555,10.5232,10.4702,10.2996,10.3071,10.292,10.1614,10.1787,10.1258,9.9174,10.1107,10.1733,9.925,10.264,10.3644,9.9876,10.3233,10.6651,10.9394,10.9378,10.9302,10.9529,11.0211,11.112,11.218,11.3223,11.4814,11.6783,11.7386,11.8273,11.9257,11.9166,11.9117,9.054,9.3679,9.6618,9.5987,9.7708,9.9561,9.9603,9.977,9.9897,9.9885,9.9948,10.0472,10.2141,10.3811,10.5092,10.5585,10.7027,10.7319,10.5071,10.6209,10.6663,10.5071,10.6841,10.8164,10.8203,10.9152,10.986,11.0023,0.0,0.0,10.9037,10.9642,10.7434,10.1724,10.2027,10.142,9.9826,9.9838,9.9844,9.9844,9.9925,9.9926,9.9926,9.9926,0.0,0.0,0.0,0.0,0.0,9.9727,9.972,9.9659,9.9659,9.9962,10.0493,10.1165,10.1327,10.1555,10.383,10.4968,10.5726,10.7395,10.8684,10.9594,10.9594,10.9841,11.0024,11.0024,11.0023,11.0024,11.0012,11.0003,10.9846,10.9114,10.8944,10.8478,10.6647,10.6257,10.5703,10.3983,10.368,10.3287,10.2136,10.1909,10.144,10.0061,9.9924,9.9773,9.9272,9.9288,9.9212,9.9272,10.3318,10.4362,10.0244,10.5878,10.9757,10.9985,10.9757,10.9692,10.9768,10.9692,11.0157,11.1285,11.1892,11.3485,11.6216,11.6205,11.709,11.8641,11.8096,11.7837,9.3811,9.563,9.7439,9.9246,9.9713,9.9762,9.9849,9.991,9.9941,9.9865,9.9865,10.0396,10.2065,10.3811,10.5368,10.6818,10.8393,10.819,10.4711,10.5646,10.4815,9.9831,10.2172,10.4159,10.4152,10.7379,10.9578,11.0018,0.0,0.0,10.6835,10.8784,10.6809,9.9985,9.9758,9.9682,9.9531,9.9659,9.9713,9.9713,9.9844,9.9926,9.9926,9.9926,9.9926,0.0,0.0,0.0,0.0,9.9926,9.9926,9.9926,9.9926,10.0913,10.2203,10.0533,10.2052,10.4937,10.4937,10.6076,10.7746,10.9493,11.0024,11.0024,11.0024,11.0024,11.0024,11.002,11.0015,11.0008,11.0008,11.0008,10.9624,10.7867,10.7493,10.6981,10.5163,10.4773,10.4218,10.2378,10.2051,10.1521,9.9789,9.9485,9.9549,9.9676,9.9828,9.9891,9.9924,9.9909,9.9909,9.9894,9.9909,9.9951,10.0001,10.6152,11.0024,11.0024,11.0022,11.002,11.002,11.0012,11.0008,11.0008,11.1602,11.3272,11.4791,11.4953,11.5719,11.7122,11.543,11.46,9.5723,9.7455,9.8925,9.9484,9.9679,9.9446,9.8236,9.9013,9.9493,9.8131,9.8779,9.9712,10.0054,10.1474,10.3196,10.4778,10.6441,10.7175,10.6123,10.6425,10.5745,10.3026,10.36,10.4152,10.4173,10.6185,10.803,10.9379,0.0,0.0,10.617,10.5749,10.4215,10.1283,9.9979,9.9315,9.9379,9.9394,9.9574,9.9752,9.9637,9.9648,9.9648,9.9648,9.9688,9.9739,0.0,0.0,0.0,9.9834,9.9838,9.9926,9.9926,10.0229,10.0609,10.0077,10.121,10.3085,10.3188,10.5007,10.7493,10.8048,10.9037,10.9946,10.9594,10.944,10.9516,10.9501,10.9486,10.9486,10.9486,10.9633,10.9313,10.7644,10.7393,10.6671,10.3786,10.3106,10.2579,10.0912,10.0533,10.0381,9.9925,9.9773,9.9849,9.9849,9.9923,9.9922,9.9914,9.9914,9.991,9.9902,9.9902,10.0904,10.3266,10.7518,11.0024,11.0024,11.0024,11.0024,11.0024,10.9927,10.929,10.8159,10.8402,10.8888,10.9431,10.9443,11.0223,11.1779,11.2462,11.2781,9.6581,9.8379,9.9697,9.9697,9.975,9.9545,9.8481,9.9071,9.9431,9.821,9.8726,9.9299,9.9174,10.0511,10.2149,10.3757,10.4888,10.5539,10.5394,10.4792,10.3813,10.2157,10.2516,10.2846,10.2846,10.5092,10.6854,10.753,10.7197,0.0,10.6023,10.4503,10.3241,10.2552,10.0842,10.0038,10.011,9.9498,9.9259,9.9431,9.9449,9.9483,9.9483,9.9483,9.9455,9.9537,9.947,0.0,0.0,9.9679,9.9688,9.9734,9.9734,9.9734,9.9734,9.9734,10.1223,10.3148,10.3287,10.5387,10.8066,10.8203,10.7992,10.7663,10.7299,10.7205,10.7185,10.724,10.724,10.724,10.7219,10.7301,10.7013,10.5347,10.5044,10.4426,10.1672,10.1251,10.0968,9.9982,9.9865,9.9885,9.9897,9.9897,9.9897,9.9902,9.9906,9.991,9.9917,9.9922,9.9923,9.9923,10.0504,10.1906,10.4477,10.7824,10.9806,10.9806,10.9721,10.9418,10.8735,10.866,10.7773,10.6119,10.5936,10.6185,10.696,10.6297,10.6751,10.8359,10.8662,10.8906,9.7001,9.8629,9.9922,9.9922,9.991,9.9891,9.9658,9.9572,9.9439,9.9256,9.9184,9.9105,9.9081,10.044,10.2098,10.3508,10.3808,10.3709,10.3457,10.1997,10.0277,9.8707,9.9828,10.0651,10.0651,10.3906,10.572,10.4881,10.7186,0.0,10.5896,10.421,10.3348,10.3384,10.196,10.1285,10.132,9.9886,9.9202,9.9353,9.9454,9.9562,9.9713,9.9562,9.9506,9.9526,9.9186,0.0,0.0,9.9045,9.9061,9.9076,9.9076,9.9137,9.9212,9.9061,10.1257,10.427,10.4135,10.6145,10.8758,10.8777,10.6676,10.4119,10.4119,10.4119,10.4098,10.4129,10.4107,10.4084,10.4111,10.4087,10.3709,10.2224,10.1795,10.1213,9.9529,9.9299,9.9499,9.9499,9.9689,9.984,9.984,9.984,9.9848,9.9872,9.9872,9.9803,9.9815,9.983,9.991,9.9821,10.1241,10.2702,10.4084,10.711,10.9001,10.9152,10.8958,10.8104,10.6517,10.6449,10.5646,10.3985,10.396,10.4564,10.5948,10.4409,10.4507,10.5966,10.4572,10.3912,9.8482,9.962,9.9914,9.9914,9.9906,9.9499,9.798,9.8589,9.907,9.7423,9.812,9.8908,9.8729,10.001,10.1624,10.3273,10.346,10.346,10.3418,10.1997,10.0277,9.8707,9.8856,9.908,9.908,10.2074,10.3985,10.3909,10.672,0.0,10.3561,10.1804,10.1081,10.1551,10.1214,10.1064,10.132,10.087,10.128,10.2624,10.1403,10.1571,10.285,10.1555,10.1043,10.0987,9.8302,0.0,0.0,9.5972,9.5461,9.5562,9.5562,9.6303,9.7254,9.5892,9.8277,10.1998,10.0831,10.251,10.5168,10.5198,10.4463,10.3606,10.3606,10.3606,10.3606,10.357,10.357,10.357,10.3609,10.3609,10.3531,10.3377,10.2502,10.1213,9.9529,9.9174,9.9218,9.9218,9.9259,9.9299,9.9299,9.9299,9.9299,9.9299,9.9224,9.9186,9.9297,9.9466,9.9542,9.9337,10.0756,10.24,10.4022,10.4916,10.5844,10.7205,10.5995,10.5067,10.4784,10.4664,10.3784,10.2124,10.1947,10.1446,10.0469,10.0125,10.0125,10.0501,10.1434,10.1886,9.8843,9.9821,9.9891,9.9572,9.9648,9.9409,9.8255,9.8655,9.8954,9.7884,9.7551,9.7761,9.8445,9.8999,10.0261,10.2929,10.2891,10.2589,10.3009,10.1342,9.945,9.7936,9.7713,9.7801,9.809,10.0326,10.1944,10.2299,10.4383,10.5006,10.346,10.3209,10.3363,10.3705,10.284,10.2468,10.2607,10.1743,10.1743,10.2533,10.0984,10.073,10.1549,9.9995,9.9263,9.9231,9.6649,0.0,9.7236,9.554,9.4978,9.536,9.619,9.6543,9.6518,9.6443,9.8524,10.124,10.0537,10.181,10.3475,10.1355,10.0458,10.0239,10.0239,10.0239,10.0239,10.0239,10.0419,10.04,9.9655,9.9671,9.9904,10.0045,9.9461,9.8908,9.8908,9.8948,9.903,9.903,9.9057,9.9152,9.9152,9.9152,9.9152,9.9152,9.9076,9.9076,9.9121,9.9056,9.9013,9.8908,10.0321,10.163,10.2504,10.3391,10.4144,10.5048,10.4295,10.3495,10.2667,10.2562,10.1715,10.0062,10.0045,9.9565,9.8666,9.8666,9.8666,9.8666,9.9565,10.0014,9.8778,9.9603,9.9659,9.9243,9.9318,9.9355,9.9129,9.8976,9.8922,9.8753,9.7207,9.635,9.7914,9.8025,9.8884,10.2115,10.1979,10.1506,10.1931,10.0096,9.823,9.6957,9.681,9.7017,9.7409,9.8939,10.0165,10.0559,10.1131,10.1974,10.3106,10.4373,10.5109,10.5109,10.4063,10.3679,10.403,10.2648,10.1912,10.1912,10.0346,9.961,9.9536,9.7968,9.7283,9.7209,9.5319,0.0,9.7088,9.5506,9.5152,9.5638,9.6986,9.6911,9.6051,9.7173,9.8819,10.0503,10.0203,10.1099,10.1795,9.8055,9.681,9.681,9.681,9.681,9.681,9.681,9.6896,9.6714,9.5453,9.5241,9.5302,9.5302,9.5302,9.5675,9.7093,9.7584,9.7829,9.8195,9.8666,9.9007,9.9007,9.9007,9.9007,9.9007,9.9007,9.9007,9.9007,9.827,9.7809,9.7957,9.9113,10.0119,10.0559,10.1603,10.2392,10.269,10.2466,10.1603,10.0261,10.0186,9.9515,9.8287,9.8287,9.8287,9.8287,9.8287,9.8287,9.8287,9.8287,9.8287,9.9007,9.9407,9.9239,9.9174,9.9174,9.9129,9.9024,9.8983,9.872,9.7941,9.6506,9.5662,9.6822,9.7968,9.8892,9.9442,10.0475,10.0729,9.9629,9.7881,9.6777,9.681,9.681,9.6862,9.6914,9.8442,9.9453,9.9505,9.7937,9.7549,9.9097,9.9389,9.9462,9.9462,10.0965,10.2501,10.3973,10.3752,10.3735,10.3809,10.2279,10.1447,10.1426,9.9903,9.914,9.8992,0.0,0.0,9.4971,9.3268,9.2555,9.2509,9.273,9.3496,9.4408,9.3251,9.4777,9.7192,9.5738,9.6329,9.7658,9.701,9.681,9.681,9.681,9.681,9.681,9.681,9.5882,9.4826,9.4604,9.3547,9.2461,9.2461,9.2461,9.2535,9.2757,9.2878,9.3434,9.539,9.7359,9.863,9.863,9.863,9.863,9.863,9.863,9.863,9.863,9.6013,9.4594,9.557,9.5899,9.6983,9.9335,9.8397,9.8323,9.9727,9.8471,9.7585,9.7312,9.7312,9.7238,9.7017,9.7017,9.7017,9.7017,9.7017,9.7017,9.7017,9.7017,9.7017,9.8633,9.9204,9.9081,9.8833,9.8666,9.8528,9.8551,9.8028,9.746,9.7381,9.5762,9.4798,9.6228,9.7374,9.8293,9.8778,10.0298,10.0709,9.8598,9.7475,9.6622,9.5811,9.5799,9.5909,9.6334,9.705,9.7954,9.9168,9.8609,9.8543,9.9196,10.0067,10.0212,9.9269,10.0114,10.0963,10.1692,10.1692,10.213,10.3077,10.058,9.9339,9.9328,9.7782,9.6978,9.6905,0.0,9.4299,9.5311,9.3622,9.2994,9.3347,9.4282,9.4526,9.4327,9.4548,9.5631,9.6736,9.5926,9.5787,9.5788,9.5788,9.5788,9.5788,9.5788,9.5788,9.5788,9.5788,9.4917,9.3679,9.2799,9.1597,9.0597,9.0597,9.0597,9.0891,9.1751,9.1973,9.2243,9.3221,9.4147,9.4845,9.4845,9.5092,9.5332,9.5332,9.549,9.549,9.4889,9.3539,9.2783,9.3295,9.3443,9.4235,9.642,9.5904,9.6199,9.7821,9.7178,9.681,9.681,9.681,9.681,9.681,9.681,9.681,9.681,9.681,9.681,9.681,9.681,9.681,9.7548,9.8373,9.8591,9.8063,9.7708,9.7591,9.7801,9.7044,9.6449,9.6683,9.4962,9.3966,9.5471,9.6648,9.7401,9.761,9.951,9.9941,9.7261,9.6699,9.6059,9.4908,9.4899,9.5235,9.5686,9.5748,9.6455,9.7891,9.8065,9.8215,9.8574,9.9722,10.001,9.9292,9.922,9.9363,9.9794,9.9435,9.9728,10.0666,9.8001,9.6636,9.649,9.5266,9.4762,9.469,9.374,9.4279,9.5665,9.4427,9.4084,9.4631,9.5861,9.5641,9.4631,9.5934,9.6374,9.6171,9.499,9.3981,9.3331,9.3331,9.34,9.361,9.4042,9.4322,9.4529,9.4963,9.4198,9.2971,9.131,8.9979,8.8987,8.8621,8.8474,8.882,8.9993,9.0266,9.0465,9.106,9.1184,9.1331,9.185,9.2259,9.256,9.256,9.2818,9.2521,9.0915,9.067,9.0769,9.111,9.1501,9.2405,9.3862,9.4394,9.5127,9.6301,9.6374,9.6374,9.6374,9.6374,9.6317,9.6072,9.6072,9.594,9.569,9.569,9.5822,9.6072,9.6072,9.613,9.5564,9.6442,9.7287,9.6503,9.6339,9.6339,9.6339,9.6283,9.6056,9.5665,9.417,9.3328,9.4402,9.5702,9.6201,9.4769,9.6982,9.783,9.4838,9.4554,9.4624,9.4552,9.4831,9.5039,9.4903,9.5039,9.5127,9.5113,0.0,9.3517,9.5081,9.5222,9.5844,9.7325,9.7339,9.8045,9.9512,9.8045,9.7046,9.6544,9.5477,9.4627,9.4116,9.4045,9.3974,9.3974,9.462,9.4963,9.5102,9.503,9.503,9.4957,9.5169,9.503,9.4957,9.5169,9.5169,9.4534,9.0041,8.8451,8.8375,8.8375,8.8899,8.9831,9.126,9.2253,9.3157,9.4674,9.3952,9.2363,9.0572,8.8922,8.7336,8.577,8.5473,8.5597,8.5669,8.5791,8.6453,8.861,8.9012,8.9614,9.1579,9.1973,9.2022,9.2022,9.2022,9.0866,8.7748,8.7379,8.7701,8.872,9.0272,9.1588,9.2774,9.4229,9.5096,9.5169,9.5169,9.5169,9.5169,9.5169,9.4831,9.4049,9.4048,9.3602,9.2761,9.2761,9.3225,9.4048,9.4048,9.441,9.3361,9.4385,9.5063,9.4797,9.5209,9.5775,9.5999,9.553,9.503,9.5024,9.4265,9.3464,9.3302,9.4586,9.4678,9.1279,9.3385,9.4283,9.1209,9.1723,9.2449,9.2449,9.269,9.2998,9.3147,9.2998,9.3396,9.4368,9.3862,9.3792,9.4354,9.4523,9.4383,9.3961,9.3142,9.2942,9.3494,9.3094,9.2195,9.0944,9.0634,9.0351,9.0165,9.0165,9.0165,9.0165,9.0394,9.0542,9.0542,9.0542,9.0542,9.0542,9.0542,9.0542,9.0542,9.0542,9.0542,9.0326,8.8439,8.7784,8.7784,8.7558,8.7714,8.8016,8.8657,8.9022,8.9319,8.9886,8.8964,8.7544,8.6904,8.5988,8.4984,8.4417,8.4746,8.5212,8.5212,8.5203,8.5545,8.6297,8.6491,8.6815,8.7557,8.7745,8.797,8.8275,8.76,8.6887,8.6161,8.6072,8.667,8.8107,8.8832,9.0159,9.2507,9.3229,9.4024,9.5035,9.4552,9.4339,9.4339,9.3753,9.3302,9.299,9.2831,9.259,9.2274,9.2109,9.2192,9.2519,9.2519,9.2761,9.1047,9.2237,9.3266,9.2521,9.3255,9.4096,9.4084,9.3836,9.3678,9.3611,9.3476,9.3006,9.2151,9.3118,9.2903,8.9257,9.0523,9.1148,8.9067,8.9881,9.0802,9.1272,9.1532,9.1787,9.1857,9.1167,0.0,9.2285,9.2424,9.2147,9.1752,9.1841,9.1444,9.0385,8.903,8.8559,8.9116,8.8713,8.803,8.6972,8.7229,8.7148,8.6903,8.7229,8.739,8.747,8.7784,8.801,8.8087,8.8087,8.8087,8.8087,8.8087,8.8087,8.8087,8.8087,8.6996,8.5451,8.5208,8.5208,8.5208,8.4974,8.5069,8.5371,8.5939,8.624,8.662,8.711,8.655,8.5561,8.4923,8.4468,8.3926,8.3286,8.3648,8.4209,8.4209,8.4278,8.4278,8.4278,8.4614,8.4811,8.4811,8.5131,8.5442,8.5538,8.5122,8.4889,8.5456,8.5098,8.5384,8.7032,8.7676,8.9037,9.1616,9.2332,9.3049,9.4123,9.3753,9.345,9.345,9.2831,9.2345,9.1927,9.1772,9.1429,9.1078,9.0901,9.099,9.1272,9.1272,9.1601,8.8371,9.0024,9.193,8.9758,9.0331,9.125,9.0335,9.1301,9.2179,9.1254,9.1613,9.171,9.0859,9.1183,9.0838,8.856,8.8303,8.8547,8.8564,8.8891,8.9533,9.0782,9.1359,9.1462,9.1133,8.9512,8.8635,8.8768,8.8768,8.8192,8.6705,8.6734,8.6734,8.6734,8.5313,8.5246,8.6666,8.5246,8.4501,8.4501,8.5305,8.5215,8.4501,8.5305,8.5764,8.6108,8.6939,8.7487,8.7869,8.7792,8.7792,8.7869,8.7869,8.7869,8.7869,8.7721,8.464,8.0437,8.0104,8.0193,8.0437,8.0104,8.065,8.1686,8.3215,8.4211,8.5062,8.661,8.703,8.66,8.4894,8.4396,8.4048,8.2338,8.215,8.2237,8.2237,8.2392,8.2616,8.2616,8.3218,8.379,8.379,8.4481,8.4817,8.4349,8.4746,8.5319,8.5403,8.4127,8.3779,8.5322,8.687,8.8425,9.0044,9.1523,9.2438,9.2438,9.2509,9.2509,9.2509,9.2427,9.1857,9.0721,9.0631,8.9986,8.8868,8.8868,8.9223,9.0127,9.0196,9.0673,8.4061,8.5753,8.7399,8.7651,8.8359,8.8977,8.872,8.9812,9.0485,8.9181,8.9437,8.9416,8.8122,8.8117,8.7252,8.3556,8.4055,8.4583,8.3503,8.4527,8.5596,8.5977,8.7021,8.6915,8.5263,8.5291,8.5147,8.4506,8.3416,8.2631,8.2239,8.2384,8.2488,8.2488,8.1314,8.0822,8.1218,7.9668,7.8943,7.8943,7.9172,7.9172,7.8943,7.9172,7.9752,8.0638,8.0064,8.0712,8.2224,8.1476,8.1565,8.231,8.231,8.231,8.2069,8.0436,7.9569,7.8941,7.7921,7.8659,7.9812,7.8753,7.9127,8.015,8.0488,8.0891,8.1136,8.1476,8.1612,8.1544,8.1048,8.1282,8.1572,8.1145,8.1588,8.2071,8.2071,8.215,8.215,8.215,8.2392,8.2698,8.2698,8.3068,8.3711,8.4694,8.3845,8.3059,8.2775,8.2826,8.363,8.5328,8.5891,8.6882,8.8503,9.0053,9.0819,9.0819,9.1297,9.1411,9.1324,9.0609,8.955,8.7986,8.6982,8.5749,8.4345,8.4143,8.4244,8.448,8.5402,8.6519,8.1138,8.2869,8.3839,8.4513,8.4932,8.5333,8.5579,8.631,8.697,8.6913,8.6375,8.585,8.595,8.4479,8.2746,8.1056,8.1088,8.1319,8.1083,8.2011,8.2745,8.3047,8.2909,8.2449,8.1743,8.229,8.2464,8.1808,8.0924,8.0408,8.0408,8.0108,7.972,7.972,7.8572,7.7859,7.7859,7.7016,7.6525,7.6525,7.6525,7.6525,7.6525,7.6525,7.6931,7.753,7.6931,7.7464,7.8687,7.8115,7.8211,7.8687,7.8687,7.8687,7.8593,7.7067,7.7032,7.7628,7.6794,7.7298,7.8344,7.7397,7.7595,7.815,7.815,7.844,7.8725,7.8725,7.9168,7.9446,7.9354,7.9312,7.9428,7.9768,7.9968,8.0253,8.0736,8.0907,8.0992,8.0992,8.1259,8.1519,8.1519,8.2071,8.2408,8.2442,8.1331,8.065,8.1225,8.1112,8.1631,8.3251,8.3946,8.5069,8.6833,8.7655,8.8142,8.7973,8.7927,8.7765,8.7509,8.6614,8.5515,8.4345,8.3563,8.2646,8.1755,8.1545,8.1439,8.1545,8.2235,8.2507,7.8848,8.0503,8.0667,8.068,8.0444,8.0463,0.0,8.1403,8.2022,8.3643,8.2301,8.1569,8.3382,8.0641,7.8408,7.9633,7.8812,7.8613,7.9966,8.0263,8.0427,8.0747,7.9054,7.8257,7.9473,7.9822,7.9886,7.9776,7.9584,7.9519,7.9345,7.8257,7.7552,7.7444,7.6293,7.5759,7.5759,7.5759,7.5759,7.5759,7.5759,7.5759,7.5759,7.5759,7.5759,7.5864,7.6177,7.6384,7.6617,7.6849,7.7016,7.7118,7.6924,7.6498,7.5905,7.5455,7.5623,7.5868,7.5519,7.5727,7.597,7.5727,7.5623,7.5727,7.592,7.6635,7.7333,7.753,7.8277,7.9008,7.8792,7.789,7.7332,7.815,7.7694,7.7431,7.844,7.8887,7.9008,7.9008,7.9677,8.0146,8.0146,8.0923,8.0835,7.8764,7.8117,7.8481,8.003,7.9102,7.8753,7.9925,8.1322,8.279,8.433,8.4694,8.467,8.4485,8.3767,8.3081,8.2881,8.1832,8.1032,8.0582,8.0474,8.0194,7.9848,7.9739,7.9739,7.9739,7.9848,7.8814,0.0,0.0,0.0,0.0,0.0,0.0,0.0,7.5455,7.6097,7.527,7.657,7.7482,7.6781,7.751,7.7658,7.5952,7.6306,7.6757,7.6079,7.6185,7.5931,7.494,7.614,7.6659,7.5304,7.6123,7.6239,7.5247,7.4146,7.3531,7.3531,7.3286,7.3163,7.3163,7.2917,7.2909,7.3077,7.3077,7.3191,7.348,7.348,7.348,7.348,7.348,7.348,7.3593,7.447,7.4988,7.5385,7.7365,7.8646,7.9397,7.8344,7.4783,7.0347,7.024,7.088,7.1486,7.0562,7.1509,7.2864,7.1794,7.2099,7.3057,7.4153,7.4576,7.5036,7.6164,7.6423,7.6358,7.6255,7.5945,7.5736,7.584,7.5736,7.5736,7.5945,7.6049,7.6152,7.6358,7.6562,7.6765,7.7032,7.7921,7.8181,7.6811,7.6681,7.6757,7.7322,7.7127,7.7132,7.7464,7.7825,7.8285,7.9168,8.078,8.1707,8.161,8.2183,8.2375,8.2066,8.1374,8.0322,7.8902,7.7974,7.6852,7.5665,7.5336,7.5288,7.5288,7.5928,7.5036,0.0,0.0,0.0,0.0,0.0,0.0,0.0,0.0,0.0,0.0,0.0,7.3722,7.3615,0.0,7.4252,7.3615,7.4147,7.4613,7.467,7.4734,7.4438,7.3359,7.3771,7.4078,7.3861,7.3791,7.3542,7.3011,7.2285,7.2224,7.283,7.2285,7.1806,7.1802,7.1203,7.0602,6.9995,6.9995,7.0118,7.024,7.024,7.024,7.024,7.1025,7.1325,7.1444,7.2786,7.3447,7.3721,7.51,7.5604,7.5303,7.439,7.2227,6.944,6.8827,6.9065,6.9539,6.8957,6.9494,7.0378,6.9645,6.9751,7.04,7.0818,7.1364,7.197,7.2667,7.3679,7.4398,7.4294,7.4165,7.4234,7.467,7.4453,7.4344,7.4886,7.5101,7.5314,7.542,7.542,7.5526,7.58,7.5905,7.5484,7.447,7.4905,7.5378,7.5484,7.5484,7.58,7.6627,7.6664,7.7032,7.7628,7.8745,7.9402,7.9693,7.9134,7.8702,7.8238,7.7373,7.6567,7.5651,7.5092,7.4441,7.3644,7.3305,7.3191,7.3129,7.1819,7.0593,0.0,0.0,0.0,0.0,0.0,0.0,0.0,0.0,0.0,0.0,0.0,0.0,0.0,0.0,0.0,7.1338,7.1883,7.2447,7.3355,7.3369,7.3243,7.2711,7.1746,7.1806,7.3134,7.2288,7.1684,7.1684,7.1445,7.1746,7.2891,7.1564,7.0774,7.0719,6.9656,6.8627,6.7607,6.755,6.755,6.7678,0.0,0.0,6.7678,6.8879,6.9561,6.9808,7.1145,7.2035,7.2269,7.2563,7.2065,7.0848,6.9601,6.9175,6.9034,6.7996,6.7678,6.7895,6.7895,6.7895,6.7786,6.763,6.763,6.7521,6.7544,6.814,0.0,6.914,7.0649,7.21,7.1846,7.1902,7.2161,7.3084,7.281,7.2645,7.3681,7.4124,7.4453,7.4453,7.4453,7.4562,7.4779,7.3701,7.2562,7.1842,7.2624,7.3278,7.348,7.334,7.3867,7.4927,7.5134,7.5443,7.6085,7.6245,7.6446,7.6937,7.5636,7.4399,7.3701,7.246,7.195,7.2195,7.195,7.1828,7.2057,7.1536,7.1421,7.136,6.7557,6.6143,0.0,0.0,0.0,0.0,0.0,0.0,0.0,0.0,0.0,0.0,0.0,0.0,0.0,0.0,0.0,0.0,6.9522,7.0655,6.9694,6.9638,6.9581,6.9526,7.0425,7.1085,7.1264,7.1145,7.1085,7.1085,6.9561,6.8869,6.9363,0.0,0.0,0.0,0.0,6.7089,6.7219,6.7219,6.7478,6.7678,6.7678,6.7678,6.7678,6.7807,6.8627,6.9808,6.9932,7.0844,7.1978,7.1978,7.1857,7.1371,6.7787,6.5614,6.4583,6.4568,6.4507,0.0,0.0,0.0,0.0,6.4507,6.4401,6.4644,6.5735,6.6208,6.6498,6.7715,6.803,6.804,6.804,6.7884,6.7903,6.8927,6.9227,6.9704,7.0665,7.1205,7.1444,7.1681,7.1799,7.1917,7.2213,7.0034,6.8594,6.9573,6.941,6.9329,6.992,6.9634,6.9559,6.9606,0.0,0.0,7.0504,7.0814,7.1109,7.1462,7.1588,7.1337,7.0716,6.8941,6.8601,6.9694,6.8433,6.8057,6.8962,6.8343,6.8004,6.7944,6.3455,6.2626,0.0,0.0,0.0,0.0,0.0,0.0,0.0,0.0,0.0,0.0,0.0,0.0,0.0,0.0,0.0,0.0,6.6093,6.6935,6.6542,6.7199,6.7852,6.7852,6.8155,6.8279,6.8263,6.8076,6.7872,6.7807,6.7033,6.6772,6.6903,6.6115,6.5506,6.4888,6.4888,6.4616,6.4206,6.4206,6.4343,6.4752,6.4752,6.4752,6.4697,6.4841,6.5238,0.0,6.6094,6.6664,6.7268,6.8099,6.8032,0.0,0.0,0.0,0.0,0.0,6.6111,6.622,6.622,6.5735,6.5022,6.4854,6.431,6.366,6.4096,6.4216,6.4337,6.4939,6.5441,6.5818,6.5818,6.6189,6.6558,6.6975,6.7328,6.768,6.7982,6.8396,6.8747,6.8864,0.0,0.0,6.9211,6.8359,6.7928,6.8585,6.8668,6.8766,6.8983,6.8889,6.8801,6.8801,6.8801,6.8849,6.8895,6.906,0.0,0.0,0.0,6.9428,6.9145,6.8546,0.0,0.0,0.0,0.0,0.0,0.0,0.0,0.0,5.8404,5.8288,0.0,0.0,0.0,0.0,0.0,0.0,0.0,0.0,0.0,0.0,0.0,0.0,0.0,0.0,0.0,0.0,6.3566,6.4111,6.3889,6.5242,6.6075,6.5732,6.5968,6.5857,6.5157,6.5501,6.564,6.5443,6.4785,6.4277,6.4056,6.3523,6.2905,6.2056,6.2056,6.1641,6.0908,6.0908,6.1049,6.1276,6.1468,6.1416,6.1555,6.1745,6.2113,6.2398,6.3078,6.3504,6.3588,6.5143,6.5153,6.4154,6.3575,6.3983,6.4911,6.5139,6.5367,6.5421,6.5421,6.5108,6.4552,6.4442,6.3892,6.322,6.3053,6.2946,6.2946,6.2898,6.3446,6.4,6.3889,6.4488,6.5088,6.5326,6.5616,6.5906,6.6321,6.6611,6.69,6.7015,6.6416,6.599,6.6325,6.6325,6.6556,6.7251,6.7228,0.0,6.7472,6.7447,6.7203,6.6985,6.6985,6.6876,6.6706,6.6737,6.6737,6.6194,6.6616,6.6737,6.6535,6.6848,6.6222,6.4434,6.2349,6.1319,0.0,0.0,0.0,0.0,0.0,0.0,0.0,0.0,0.0,0.0,0.0,0.0,0.0,0.0,0.0,0.0,0.0,0.0,0.0,0.0,0.0,0.0,0.0,0.0,6.2365,6.3376,6.3802,6.2529,6.4042,6.4328,6.2308,6.4167,6.5353,6.5127,6.2994,6.1253,6.0288,5.8674,5.7915,5.8322,5.8322,5.8322,5.8187,5.8187,5.8187,5.8187,5.8457,5.8592,5.8592,5.8995,5.9925,6.1358,6.2398,6.2828,6.3086,6.4271,6.4795,6.4563,6.085,5.9419,5.9535,5.9535,5.9535,5.9535,5.9535,6.0343,6.1362,6.1362,6.2137,6.2946,6.2946,6.2946,6.2946,6.2682,6.2633,6.2633,6.2365,6.2255,6.2498,6.3395,6.3916,6.4557,6.5796,6.6264,6.6611,6.7015,6.4921,6.3233,6.3447,6.2861,6.2948,6.481,6.3963,0.0,6.402,6.3735,6.3173,6.2306,6.2196,6.2196,6.2196,6.2585,6.2646,6.2255,6.2585,6.2646,6.2255,6.2529,6.1664,5.9176,5.7088,5.5751,5.5088,0.0,0.0,0.0,0.0,0.0,0.0,0.0,0.0,0.0,0.0,0.0,0.0,0.0,0.0,0.0,0.0,0.0,0.0,0.0,0.0,0.0,0.0,0.0,0.0,0.0,6.2628,6.1953,6.1261,6.0972,6.1154,6.0975,6.0571,6.0342,5.9234,5.8426,5.8031,5.7403,5.718,5.7317,5.7317,5.7454,5.7727,5.7727,5.7812,5.8083,5.8218,5.8218,5.8218,5.7571,5.7522,5.7993,5.757,5.7532,5.779,5.9045,6.0546,6.2045,6.1017,6.1055,6.1797,6.1068,6.0728,6.0615,5.9938,5.9885,6.0057,5.9254,5.8616,5.8251,5.8251,5.8251,5.8251,5.8143,5.8417,5.8905,5.8798,5.9762,6.0908,6.0993,6.125,6.172,6.2069,6.2471,6.2754,6.3098,6.0496,5.8271,5.8506,5.9655,6.0741,6.1153,6.1682,6.2263,6.2557,6.288,6.2812,6.2078,6.1968,6.1748,6.125,6.1317,6.1146,6.0343,6.0224,6.0044,5.9912,5.983,5.908,5.7788,5.6682,5.4751,5.21,0.0,0.0,0.0,0.0,0.0,0.0,0.0,0.0,0.0,0.0,0.0,0.0,0.0,0.0,0.0,0.0,0.0,0.0,0.0,0.0,0.0,0.0,0.0,0.0,0.0,0.0,5.999,5.8289,0.0,5.5907,5.4837,5.4836,5.6214,5.582,5.5532,5.5601,5.5008,5.4957,5.5685,5.5685,5.582,5.6089,5.6089,5.6223,5.649,5.6623,5.683,5.7192,5.6601,5.6497,5.686,5.6549,5.6266,5.6111,5.6407,5.7223,5.831,5.7776,5.7733,5.8024,5.7448,5.7253,5.7263,5.7076,5.7088,5.6921,5.6598,5.581,5.512,5.512,5.4943,5.4659,5.5433,5.597,5.6562,5.7236,5.8473,5.9435,5.9224,5.938,5.9634,5.9634,5.9228,5.8829,5.9187,5.7982,5.6833,5.6217,5.689,5.7557,5.7523,5.8265,5.9286,6.0633,6.1783,6.1799,6.0552,6.0789,6.068,5.9713,5.9656,5.9257,5.8291,5.8002,5.7874,5.7764,5.7605,5.6805,5.5233,5.4527,5.2545,0.0,0.0,0.0,0.0,0.0,0.0,0.0,0.0,0.0,0.0,0.0,0.0,0.0,0.0,0.0,0.0,0.0,0.0,0.0,0.0,0.0,0.0,0.0,0.0,0.0,0.0,0.0,5.6746,5.52,0.0,0.0,0.0,0.0,5.3094,5.2969,5.2787,5.2799,5.143,5.143,5.3241,5.3371,5.3371,5.3501,5.3501,5.3552,5.3602,5.394,5.4684,5.5864,5.6129,5.683,5.7915,5.9087,5.8983,5.776,5.6305,5.4841,5.3636,5.1488,4.9827,4.8604,4.9168,4.9429,4.9671,5.1209,5.1732,5.1967,5.3237,5.3646,5.3712,5.3607,5.2864,0.0,0.0,5.4736,5.5171,5.7346,5.7963,5.8022,5.8081,5.814,5.8198,5.8345,5.6672,5.5164,0.0,5.6957,5.7888,5.5996,0.0,5.3452,5.4023,5.385,5.4829,5.8215,6.0055,6.0034,5.7669,5.8572,5.8741,5.7443,5.7274,5.6768,5.5697,5.5804,5.5747,5.5528,5.5691,5.4471,5.156,5.0896,0.0,0.0,0.0,0.0,0.0,0.0,0.0,0.0,0.0,0.0,0.0,0.0,0.0,0.0,0.0,0.0,0.0,0.0,0.0,0.0,0.0,0.0,0.0,0.0,0.0,0.0,5.619,5.6974,5.8235,5.4192,5.1411,0.0,0.0,0.0,0.0,0.0,0.0,4.881,4.8665,4.9495,5.1297,5.1479,5.201,5.3371,5.3501,5.3958,5.472,5.4853,5.5464,5.6635,5.6772,5.6925,5.718,5.7486,5.7573,5.73,5.4321,5.1938,5.0088,4.7907,4.6514,4.5569,4.4854,4.4579,4.481,4.6224,4.6724,4.6938,4.8489,0.0,4.8838,4.8117,0.0,0.0,0.0,0.0,4.8634,5.0866,0.0,5.4027,5.5519,5.5227,5.47,5.4755,5.4863,5.4019,0.0,4.931,4.9146,4.9179,0.0,0.0,0.0,0.0,5.3647,5.6974,5.7312,5.6869,5.6369,5.5814,5.5248,5.4972,5.4118,5.3494,5.3224,5.2533,5.2046,5.2046,5.1233,5.0043,4.8537,0.0,0.0,0.0,0.0,0.0,0.0,0.0,0.0,0.0,0.0,0.0,0.0,0.0,0.0,0.0,0.0,0.0,0.0,0.0,0.0,0.0,0.0,0.0,0.0,0.0,0.0,0.0,5.4794,5.4496,5.4144,5.0944,4.9236,0.0,0.0,0.0,0.0,0.0,0.0,0.0,0.0,0.0,4.8308,4.8308,4.8836,4.9881,5.1021,5.2007,5.2605,5.3949,5.5025,5.6143,5.6143,5.6448,5.6905,5.6905,5.6325,5.5071,5.2291,4.946,4.6497,0.0,0.0,0.0,0.0,0.0,4.1669,4.333,4.3982,0.0,0.0,0.0,0.0,0.0,0.0,0.0,0.0,0.0,0.0,0.0,0.0,0.0,5.4899,5.4634,5.4051,5.3575,5.2159,5.0205,0.0,4.6622,4.6571,4.6528,0.0,0.0,0.0,0.0,0.0,5.4177,5.5074,5.4972,5.4253,5.3695,5.3123,5.2415,5.1845,5.1236,5.0759,5.0294,4.981,4.9147,4.8627,4.7396,0.0,0.0,0.0,0.0,0.0,0.0,0.0,0.0,0.0,0.0,0.0,0.0,0.0,0.0,0.0,0.0,0.0,0.0,0.0,0.0,0.0,0.0,0.0,0.0,0.0,0.0,0.0,0.0,0.0,5.2293,4.8205,0.0,0.0,0.0,0.0,0.0,0.0,0.0,0.0,0.0,0.0,0.0,0.0,0.0,4.5057,4.5455,4.7635,4.8893,4.9037,5.1448,5.3201,5.4389,5.4389,5.5128,5.6376,5.5784,0.0,5.1942,4.9849,0.0,0.0,0.0,0.0,0.0,0.0,0.0,0.0,0.0,0.0,0.0,0.0,0.0,0.0,0.0,0.0,0.0,0.0,0.0,0.0,0.0,0.0,5.3781,5.3957,5.4038,5.3903,0.0,4.8994,4.5674,4.5151,0.0,0.0,0.0,0.0,0.0,0.0,0.0,0.0,5.0598,5.2752,5.315,5.1725,5.1639,5.1164,4.9996,4.9777,4.9244,4.8249,4.8474,4.8092,4.6704,4.6989,0.0,0.0,0.0,0.0,0.0,0.0,0.0,0.0,0.0,0.0,0.0,0.0,0.0,0.0,0.0,0.0,0.0,0.0,0.0,0.0,0.0,0.0,0.0,0.0,0.0,0.0,0.0,0.0,0.0,0.0,0.0,0.0,0.0,0.0,0.0,0.0,0.0,0.0,0.0,0.0,0.0,0.0,0.0,0.0,0.0,0.0,0.0,0.0,0.0,0.0,4.7996,4.8741,4.9778,4.9778,5.1034,5.3192,4.9447,4.833,4.9061,0.0,0.0,0.0,0.0,0.0,0.0,0.0,0.0,0.0,0.0,0.0,0.0,0.0,0.0,0.0,0.0,0.0,0.0,0.0,0.0,0.0,0.0,0.0,0.0,0.0,4.8005,4.8427,0.0,0.0,0.0,0.0,0.0,0.0,0.0,0.0,0.0,0.0,0.0,0.0,4.7261,4.9125,4.9602,4.879,4.8221,4.7708,4.7389,4.6475,4.5847,4.6045,4.5368,4.4854,0.0,0.0,0.0,0.0,0.0,0.0,0.0,0.0,0.0,0.0,0.0,0.0,0.0,0.0,0.0,0.0,0.0,0.0,0.0,0.0,0.0,0.0,0.0,0.0,0.0,0.0,0.0,0.0,0.0,0.0,0.0,0.0,0.0,0.0,0.0,0.0,0.0,0.0,0.0,0.0,0.0,0.0,0.0,0.0,0.0,0.0,0.0,0.0,0.0,0.0,0.0,0.0,0.0,0.0,0.0,0.0,0.0,0.0,0.0,4.305,0.0,0.0,0.0,0.0,0.0,0.0,0.0,0.0,0.0,0.0,0.0,0.0,0.0,0.0,0.0,0.0,0.0,0.0,0.0,0.0,0.0,0.0,0.0,0.0,0.0,0.0,0.0,0.0,0.0,0.0,0.0,0.0,0.0,0.0,0.0,0.0,0.0,0.0,0.0,0.0,4.5199,4.6865,4.7798,4.7419,4.6403,4.588,4.588,4.5467,4.4718,4.3725,4.3559,0.0,0.0,0.0,0.0,0.0,0.0,0.0,0.0,0.0,0.0,0.0,0.0,0.0,0.0,0.0,0.0,0.0,0.0,0.0,0.0,0.0,0.0,0.0,0.0,0.0,0.0,0.0,0.0,0.0,0.0,0.0,0.0,0.0,0.0,0.0,0.0,0.0,0.0,0.0,0.0,0.0,0.0,0.0,0.0,0.0,0.0,0.0,0.0,0.0,0.0,0.0,0.0,0.0,0.0,0.0,0.0,0.0,0.0,0.0,4.2912,0.0,0.0,0.0,0.0,0.0,0.0,0.0,0.0,0.0,0.0,0.0,0.0,0.0,0.0,0.0,0.0,0.0,0.0,0.0,0.0,0.0,0.0,0.0,0.0,0.0,0.0,0.0,0.0,0.0,0.0,0.0,0.0,0.0,0.0,0.0,0.0,0.0,0.0,0.0,0.0,0.0,4.2824,4.4858,4.6339,4.6339,4.5534,4.5001,4.5001,4.5001,4.4247,4.2267,0.0,0.0,0.0,0.0,0.0,0.0,0.0,0.0,0.0,0.0,0.0,0.0,0.0,0.0,0.0,0.0,0.0,0.0,0.0,0.0,0.0,0.0,0.0,0.0,0.0,0.0,0.0,0.0,0.0,0.0,0.0,0.0,0.0,0.0,0.0,0.0,0.0,0.0,0.0,0.0,0.0,0.0,0.0,0.0,0.0,0.0,0.0,0.0,0.0,0.0,0.0,0.0,0.0,0.0,0.0,0.0,0.0,0.0,0.0,0.0,0.0,0.0,0.0,0.0,0.0,0.0,0.0,0.0,0.0,0.0,0.0,0.0,0.0,0.0,0.0,0.0,0.0,0.0,0.0,0.0,0.0,0.0,0.0,0.0,0.0,0.0,0.0,0.0,0.0,0.0,0.0,0.0,0.0,0.0,0.0,0.0,0.0,0.0,0.0,0.0,0.0,0.0,3.9321,4.2374,4.4766,4.4766,4.4884,4.5118,4.5351,4.4413,4.3534,4.2868,0.0,0.0,0.0,0.0,0.0,0.0,0.0,0.0,0.0,0.0,0.0,0.0,0.0,0.0,0.0,0.0,0.0,0.0,0.0,0.0,0.0,0.0,0.0,0.0,0.0,0.0,0.0,0.0,0.0,0.0,0.0,0.0,0.0,0.0,0.0,0.0,0.0,0.0,0.0,0.0,0.0,0.0,0.0,0.0,0.0,0.0,0.0,0.0,0.0,0.0,0.0,0.0,0.0,0.0,0.0,0.0,0.0,0.0,0.0,0.0,0.0,0.0,0.0,0.0,0.0,0.0,0.0,0.0,0.0,0.0,0.0,0.0,0.0,0.0,0.0,0.0,0.0,0.0,0.0,0.0,0.0,0.0,0.0,0.0,0.0,0.0,0.0,0.0,0.0,0.0,0.0,0.0,0.0,0.0,0.0,0.0,0.0,0.0,0.0,0.0,0.0,0.0,3.9208,4.2374,4.4483,4.3606,4.3725,4.3606,4.3175,4.2814,4.1873,4.0062,0.0,0.0,0.0,0.0,0.0,0.0,0.0,0.0,0.0,0.0,0.0,0.0,0.0,0.0,0.0,0.0,0.0,0.0,0.0,0.0,0.0,0.0,0.0,0.0,0.0,0.0,0.0,0.0,0.0,0.0,0.0,0.0,0.0,0.0,0.0,0.0,0.0,0.0,0.0,0.0,0.0,0.0,0.0,0.0,0.0,0.0,0.0,0.0,0.0,0.0,0.0,0.0,0.0,0.0,0.0,0.0,0.0,0.0,0.0,0.0,0.0,0.0,0.0,0.0,0.0,0.0,0.0,0.0,0.0,0.0,0.0,0.0,0.0,0.0,0.0,0.0,0.0,0.0,0.0,0.0,0.0,0.0,0.0,0.0,0.0,0.0,0.0,0.0,0.0,0.0,0.0,0.0,0.0,0.0,0.0,0.0,0.0,0.0,0.0,0.0,0.0,0.0,3.8935,4.1979,4.3962,4.3081,4.3,4.2606,4.1842,4.2094,4.1007,3.7844,0.0,0.0,0.0,0.0,0.0,0.0,0.0,0.0,0.0,0.0,0.0,0.0,0.0,0.0,0.0,0.0,0.0,0.0,0.0,0.0,0.0,0.0,0.0,0.0,0.0,0.0,0.0,0.0,0.0,0.0,0.0,0.0,0.0,0.0,0.0,0.0,0.0,0.0,0.0,0.0,0.0,0.0,0.0,0.0,0.0,0.0,0.0,0.0,0.0,0.0,0.0,0.0,0.0,0.0,0.0,0.0,0.0,0.0,0.0,0.0,0.0,0.0,0.0,0.0,0.0,0.0,0.0,0.0,0.0,0.0,0.0,0.0,0.0,0.0,0.0,0.0,0.0,0.0,0.0,0.0,0.0,0.0,0.0,0.0,0.0,0.0,0.0,0.0,0.0,0.0,0.0,0.0,0.0,0.0,0.0,0.0,0.0,0.0,0.0,0.0,0.0,0.0,3.7541,4.0761,4.2961,4.2961,4.2955,4.2636,4.201,4.2846,4.1506,0.0,0.0,0.0,0.0,0.0,0.0,0.0,0.0,0.0,0.0,0.0,0.0,0.0,0.0,0.0,0.0,0.0,0.0,0.0,0.0,0.0,0.0,0.0,0.0,0.0,0.0,0.0,0.0,0.0,0.0,0.0,0.0,0.0,0.0,0.0,0.0,0.0,0.0,0.0,0.0,0.0,0.0,0.0,0.0,0.0,0.0,0.0,0.0,0.0,0.0,0.0,0.0,0.0,0.0,0.0,0.0,0.0,0.0,0.0,0.0,0.0,0.0,0.0,0.0,0.0,0.0,0.0,0.0,0.0,0.0,0.0,0.0,0.0,0.0,0.0,0.0,0.0,0.0,0.0,0.0,0.0,0.0,0.0,0.0,0.0,0.0,0.0,0.0,0.0,0.0,0.0,0.0,0.0,0.0,0.0,0.0,0.0,0.0,0.0,0.0,0.0,0.0,0.0,3.6421,4.0015,4.1925,0.0,4.0812,4.103,4.0341,4.0461,3.9641,3.7335,0.0,0.0,0.0,0.0,0.0,0.0,0.0,0.0,0.0,0.0,0.0,0.0,0.0,0.0,0.0,0.0,0.0,0.0,0.0,0.0,0.0,0.0,0.0,0.0,0.0,0.0,0.0,0.0,0.0,0.0,0.0,0.0,0.0,0.0,0.0,0.0,0.0,0.0,0.0,0.0,0.0,0.0,0.0,0.0,0.0,0.0,0.0,0.0,0.0,0.0,0.0,0.0,0.0,0.0,0.0,0.0,0.0,0.0,0.0,0.0,0.0,0.0,0.0,0.0,0.0,0.0,0.0,0.0,0.0,0.0,0.0,0.0,0.0,0.0,0.0,0.0,0.0,0.0,0.0,0.0,0.0,0.0,0.0,0.0,0.0,0.0,0.0,0.0,0.0,0.0,0.0,0.0,0.0,0.0,0.0,0.0,0.0,0.0,0.0,0.0,0.0,0.0,0.0,3.8799,4.0674,0.0,3.9696,3.9724,3.8998,4.0107,3.9426,3.634,0.0,0.0,0.0,0.0,0.0,0.0,0.0,0.0,0.0,0.0,0.0,0.0,0.0,0.0,0.0,0.0,0.0,0.0,0.0,0.0,0.0,0.0,0.0,0.0,0.0,0.0,0.0,0.0,0.0,0.0,0.0,0.0,0.0,0.0,0.0,0.0,0.0,0.0,0.0,0.0,0.0,0.0,0.0,0.0,0.0,0.0,0.0,0.0,0.0,0.0,0.0,0.0,0.0,0.0,0.0,0.0,0.0,0.0,0.0,0.0,0.0,0.0,0.0,0.0,0.0,0.0,0.0,0.0,0.0,0.0,0.0,0.0,0.0,0.0,0.0,0.0,0.0,0.0,0.0,0.0,0.0,0.0,0.0,0.0,0.0,0.0,0.0,0.0,0.0,0.0,0.0,0.0,0.0,0.0,0.0,0.0,0.0,0.0,0.0,0.0,0.0,0.0,0.0,3.7468,3.8979,3.8937,3.9176,3.9163,3.8295,4.1068,4.0512,3.5008,3.6227,0.0,0.0,0.0,0.0,0.0,0.0,0.0,0.0,0.0,0.0,0.0,0.0,0.0,0.0,0.0,0.0,0.0,0.0,0.0,0.0,0.0,0.0,0.0,0.0,0.0,0.0,0.0,0.0,0.0,0.0,0.0,0.0,0.0,0.0,0.0,0.0,0.0,0.0,0.0,0.0,0.0,0.0,0.0,0.0,0.0,0.0,0.0,0.0,0.0,0.0,0.0,0.0,0.0,0.0,0.0,0.0,0.0,0.0,0.0,0.0,0.0,0.0,0.0,0.0,0.0,0.0,0.0,0.0,0.0,0.0,0.0,0.0,0.0,0.0,0.0,0.0,0.0,0.0,0.0,0.0,0.0,0.0,0.0,0.0,0.0,0.0,0.0,0.0,0.0,0.0,0.0,0.0,0.0,0.0,0.0,0.0,0.0,0.0,0.0,0.0,0.0,0.0,3.6993,3.7641,3.7873,3.8563,3.9013,3.9205,4.0592,3.987,3.5858,3.521,0.0,0.0,0.0,0.0,0.0,0.0,0.0,0.0,0.0,0.0,0.0,0.0,0.0,0.0,0.0,0.0,0.0,0.0,0.0,0.0,0.0,0.0,0.0,0.0,0.0,0.0,0.0,0.0,0.0,0.0,0.0,0.0,0.0,0.0,0.0,0.0,0.0,0.0,0.0,0.0,0.0,0.0,0.0,0.0,0.0,0.0,0.0,0.0,0.0,0.0,0.0,0.0,0.0,0.0,0.0,0.0,0.0,0.0,0.0,0.0,0.0,0.0,0.0,0.0,0.0,0.0,0.0,0.0,0.0,0.0,0.0,0.0,0.0,0.0,0.0,0.0,0.0,0.0,0.0,0.0,0.0,0.0,0.0,0.0,0.0,0.0,0.0,0.0,0.0,0.0,0.0,0.0,0.0,0.0,0.0,0.0,0.0,0.0,0.0,0.0,0.0,0.0,3.6057,3.6431,3.7446,3.8325,3.8743,3.8874,4.0256,3.9442,3.5657,3.5607,0.0,0.0,0.0,0.0,0.0,0.0,0.0,0.0,0.0,0.0,0.0,0.0,0.0,0.0,0.0,0.0,0.0,0.0,0.0,0.0,0.0,0.0,0.0,0.0,0.0,0.0,0.0,0.0,0.0,0.0,0.0,0.0,0.0,0.0,0.0,0.0,0.0,0.0,0.0,0.0,0.0,0.0,0.0,0.0,0.0,0.0,0.0,0.0,0.0,0.0,0.0,0.0,0.0,0.0,0.0,0.0,0.0,0.0,0.0,0.0,0.0,0.0,0.0,0.0,0.0,0.0,0.0,0.0,0.0,0.0,0.0,0.0,0.0,0.0,0.0,0.0,0.0,0.0,0.0,0.0,0.0,0.0,0.0,0.0,0.0,0.0,0.0,0.0,0.0,0.0,0.0,0.0,0.0,0.0,0.0,0.0,0.0,0.0,0.0,0.0,0.0,0.0,0.0,3.5635,3.7202,3.8174,3.8513,3.8257,3.9987,3.9328,3.4925,0.0,0.0,0.0,0.0,0.0,0.0,0.0,0.0,0.0,0.0,0.0,0.0,0.0,0.0,0.0,0.0,0.0,0.0,0.0,0.0,0.0,0.0,0.0,0.0,0.0,0.0,0.0,0.0,0.0,0.0,0.0,0.0,0.0,0.0,0.0,0.0,0.0,0.0,0.0,0.0,0.0,0.0,0.0,0.0,0.0,0.0,0.0,0.0,0.0,0.0,0.0,0.0,0.0,0.0,0.0,0.0,0.0,0.0,0.0,0.0,0.0,0.0,0.0,0.0,0.0,0.0,0.0,0.0,0.0,0.0,0.0,0.0,0.0,0.0,0.0,0.0,0.0,0.0,0.0,0.0,0.0,0.0,0.0,0.0,0.0,0.0,0.0,0.0,0.0,0.0,0.0,0.0,0.0,0.0,0.0,0.0,0.0,0.0,0.0,0.0,0.0,0.0,0.0,0.0,0.0,3.6806,3.7886,3.864,3.864,4.0237,3.945,3.5165,0.0,0.0,0.0,0.0,0.0,0.0,0.0,0.0,0.0,0.0,0.0,0.0,0.0,0.0]}]]]